[[{"header":{"parameterUnit":"m.s-1","parameterCategory":1,"la1":31.0,"la2":29.5877,"lo1":-88.7671,"lo2":-86.6584,"dy":0.0162,"dx":0.0185,"nx":115,"ny":88,"refTime":"2023-07-27T06:00:00:Z","depth":0,"parameterNumber":2,"parameterNumberName":"U-component_of_WINDS"},"data":[0.0,0.0,0.0,0.0,0.0,0.0,0.0,0.0,0.0,0.0,0.0,0.0,0.0,0.0,0.0,0.0,0.0,0.0,0.0,0.0,0.0,0.0,0.0,0.0,0.0,0.0,0.0,0.0,0.0,0.0,0.0,0.0,0.0,0.0,0.0,0.0,0.0,0.0,0.0,0.0,0.0,0.0,0.0,0.0,0.0,0.0,0.0,0.0,0.0,0.0,0.0,0.0,0.0,0.0,0.0,0.0,0.0,0.0,0.0,0.0,0.0,0.0,0.0,0.0,0.0,0.0,0.0,0.0,0.0,0.0,0.0,0.0,0.0,0.0,0.0,0.0,0.0,0.0,0.0,0.0,0.0,0.0,0.0,0.0,0.0,0.0,0.0,0.0,0.0,0.0,0.0,0.0,0.0,0.0,0.0,0.0,0.0,0.0,0.0,0.0,0.0,0.0,0.0,0.0,0.0,0.0,0.0,0.0,0.0,0.0,0.0,0.0,0.0,0.0,0.0,0.0,0.0,0.0,0.0,0.0,0.0,0.0,0.0,0.0,0.0,0.0,0.0,0.0,0.0,0.0,0.0,0.0,0.0,0.0,0.0,0.0,0.0,0.0,0.0,0.0,0.0,0.0,0.0,0.0,0.0,0.0,0.0,0.0,0.0,0.0,0.0,0.0,0.0,0.0,0.0,0.0,0.0,0.0,0.0,0.0,0.0,0.0,0.0,0.0,0.0,0.0,0.0,0.0,0.0,0.0,0.0,0.0,0.0,0.0,0.0,0.0,0.0,0.0,0.0,0.0,0.0,0.0,0.0,0.0,0.0,0.0,0.0,0.0,0.0,0.0,0.0,0.0,0.0,0.0,0.0,0.0,0.0,0.0,0.0,0.0,0.0,0.0,0.0,0.0,0.0,0.0,0.0,0.0,0.0,0.0,0.0,0.0,0.0,0.0,0.0,0.0,0.0,0.0,0.0,0.0,0.0,0.0,0.0,0.0,0.0,0.0,0.0,0.0,0.0,0.0,0.0,0.0,0.0,0.0,0.0,0.0,0.0,0.0,0.0,0.0,0.0,0.0,0.0,0.0,0.0,0.0,0.0,0.0,0.0,0.0,0.0,0.0,0.0,0.0,0.0,0.0,0.0,0.0,0.0,0.0,0.0,0.0,0.0,0.0,0.0,0.0,0.0,0.0,0.0,0.0,0.0,0.0,0.0,0.0,0.0,0.0,0.0,0.0,0.0,0.0,0.0,0.0,0.0,0.0,0.0,0.0,0.0,0.0,0.0,0.0,0.0,0.0,0.0,0.0,0.0,0.0,0.0,0.0,0.0,0.0,0.0,0.0,0.0,0.0,0.0,0.0,0.0,0.0,0.0,0.0,0.0,0.0,0.0,0.0,0.0,0.0,0.0,0.0,0.0,0.0,0.0,0.0,0.0,0.0,0.0,0.0,0.0,0.0,0.0,0.0,0.0,0.0,0.0,0.0,0.0,0.0,0.0,0.0,0.0,0.0,0.0,0.0,0.0,0.0,0.0,0.0,0.0,0.0,0.0,0.0,0.0,0.0,0.0,0.0,0.0,0.0,0.0,0.0,0.0,0.0,0.0,0.0,0.0,0.0,0.0,0.0,0.0,0.0,0.0,0.0,0.0,0.0,0.0,0.0,0.0,0.0,0.0,0.0,0.0,0.0,0.0,0.0,0.0,0.0,0.0,0.0,0.0,0.0,0.0,0.0,0.0,0.0,0.0,0.0,0.0,0.0,0.0,0.0,0.0,0.0,0.0,0.0,0.0,0.0,0.0,0.0,0.0,0.0,0.0,0.0,0.0,0.0,0.0,0.0,0.0,0.0,0.0,0.0,0.0,0.0,0.0,0.0,0.0,0.0,0.0,0.0,0.0,0.0,0.0,0.0,0.0,0.0,0.0,0.0,0.0,0.0,0.0,0.0,0.0,0.0,0.0,0.0,0.0,0.0,0.0,0.0,0.0,0.0,0.0,0.0,0.0,0.0,0.0,0.0,0.0,0.0,0.0,0.0,0.0,0.0,0.0,0.0,0.0,0.0,0.0,0.0,0.0,0.0,0.0,0.0,0.0,0.0,0.0,0.0,0.0,0.0,0.0,0.0,0.0,0.0,0.0,0.0,0.0,0.0,0.0,0.0,0.0,0.0,0.0,0.0,0.0,0.0,0.0,0.0,0.0,0.0,0.0,0.0,0.0,0.0,0.0,0.0,0.0,0.0,0.0,0.0,0.0,0.0,0.0,0.0,0.0,0.0,0.0,0.0,0.0,0.0,0.0,0.0,0.0,0.0,0.0,0.0,0.0,0.0,0.0,0.0,0.0,0.0,0.0,0.0,0.0,0.0,0.0,0.0,0.0,0.0,0.0,0.0,0.0,0.0,0.0,0.0,0.0,0.0,0.0,0.0,0.0,0.0,0.0,0.0,0.0,0.0,0.0,0.0,0.0,0.0,0.0,0.0,0.0,0.0,0.0,0.0,0.0,0.0,0.0,0.0,0.0,0.0,0.0,0.0,0.0,0.0,0.0,0.0,0.0,0.0,0.0,0.0,0.0,0.0,0.0,0.0,0.0,0.0,0.0,0.0,0.0,0.0,0.0,0.0,0.0,0.0,0.0,0.0,0.0,0.0,0.0,0.0,0.0,0.0,0.0,0.0,0.0,0.0,0.0,0.0,0.0,0.0,0.0,0.0,0.0,0.0,0.0,0.0,0.0,0.0,0.0,0.0,0.0,0.0,0.0,0.0,0.0,0.0,0.0,0.0,0.0,0.0,0.0,0.0,0.0,0.0,0.0,0.0,0.0,0.0,0.0,0.0,0.0,0.0,0.0,0.0,0.0,0.0,0.0,0.0,0.0,0.0,0.0,0.0,0.0,0.0,0.0,0.0,0.0,0.0,0.0,0.0,0.0,0.0,0.0,0.0,0.0,0.0,0.0,0.0,0.0,0.0,0.0,0.0,0.0,0.0,0.0,0.0,0.0,0.0,0.0,0.0,0.0,0.0,0.0,0.0,0.0,0.0,0.0,0.0,0.0,0.0,0.0,0.0,0.0,0.0,0.0,0.0,0.0,0.0,0.0,0.0,0.0,0.0,0.0,0.0,0.0,0.0,0.0,0.0,0.0,0.0,0.0,0.0,0.0,0.0,0.0,0.0,0.0,0.0,0.0,0.0,0.0,0.0,0.0,0.0,0.0,0.0,0.0,0.0,0.0,0.0,0.0,0.0,0.0,0.0,0.0,0.0,0.0,0.0,0.0,0.0,0.0,0.0,0.0,0.0,0.0,0.0,0.0,0.0,0.0,0.0,0.0,0.0,0.0,0.0,0.0,0.0,0.0,0.0,0.0,0.0,0.0,0.0,0.0,0.0,0.0,0.0,0.0,0.0,0.0,0.0,0.0,0.0,0.0,0.0,0.0,0.0,0.0,0.0,0.0,0.0,0.0,0.0,0.0,0.0,0.0,0.0,0.0,0.0,0.0,0.0,0.0,0.0,0.0,0.0,0.0,0.0,0.0,0.0,0.0,0.0,0.0,0.0,0.0,0.0,0.0,0.0,0.0,0.0,0.0,0.0,0.0,0.0,0.0,0.0,0.0,0.0,0.0,0.0,0.0,0.0,0.0,0.0,0.0,0.0,0.0,0.0,0.0,0.0,0.0,0.0,0.0,0.0,0.0,0.0,0.0,0.0,0.0,0.0,0.0,0.0,0.0,0.0,0.0,0.0,0.0,0.0,0.0,0.0,0.0,0.0,0.0,0.0,0.0,0.0,0.0,0.0,0.0,0.0,0.0,0.0,0.0,0.0,0.0,0.0,0.0,0.0,0.0,0.0,0.0,0.0,0.0,0.0,0.0,0.0,0.0,0.0,0.0,0.0,0.0,0.0,0.0,0.0,0.0,0.0,0.0,0.0,0.0,0.0,0.0,0.0,0.0,0.0,0.0,0.0,0.0,0.0,0.0,0.0,0.0,0.0,0.0,0.0,0.0,0.0,0.0,0.0,0.0,0.0,0.0,0.0,0.0,0.0,0.0,0.0,0.0,0.0,0.0,0.0,0.0,0.0,0.0,0.0,0.0,0.0,0.0,0.0,0.0,0.0,0.0,0.0,0.0,0.0,0.0,0.0,0.0,0.0,0.0,0.0,0.0,0.0,0.0,0.0,0.0,0.0,0.0,0.0,0.0,0.0,0.0,0.0,0.0,0.0,0.0,0.0,0.0,0.0,0.0,0.0,0.0,0.0,0.0,0.0,0.0,0.0,0.0,0.0,0.0,0.0,-4.0867,0.0,0.0,0.0,0.0,0.0,0.0,0.0,0.0,0.0,0.0,0.0,0.0,0.0,0.0,0.0,0.0,0.0,0.0,0.0,0.0,0.0,0.0,0.0,0.0,0.0,0.0,0.0,0.0,0.0,0.0,0.0,0.0,0.0,0.0,0.0,0.0,0.0,0.0,0.0,0.0,0.0,0.0,0.0,0.0,0.0,0.0,0.0,0.0,0.0,0.0,0.0,0.0,0.0,0.0,0.0,0.0,0.0,0.0,0.0,0.0,0.0,0.0,0.0,0.0,0.0,0.0,0.0,0.0,0.0,0.0,0.0,0.0,0.0,0.0,0.0,0.0,0.0,0.0,0.0,0.0,0.0,0.0,0.0,0.0,0.0,0.0,0.0,0.0,0.0,0.0,0.0,0.0,0.0,0.0,0.0,0.0,0.0,0.0,0.0,0.0,0.0,0.0,0.0,0.0,0.0,0.0,0.0,0.0,0.0,0.0,-4.0965,-4.0963,-4.0954,-4.0945,-4.0945,0.0,0.0,0.0,0.0,0.0,0.0,0.0,0.0,0.0,0.0,0.0,0.0,0.0,0.0,0.0,0.0,0.0,0.0,0.0,0.0,0.0,0.0,0.0,0.0,0.0,0.0,0.0,0.0,0.0,0.0,0.0,0.0,0.0,0.0,0.0,0.0,0.0,0.0,0.0,0.0,0.0,0.0,0.0,0.0,0.0,0.0,0.0,0.0,0.0,0.0,0.0,0.0,0.0,0.0,0.0,0.0,0.0,0.0,0.0,0.0,0.0,0.0,0.0,0.0,0.0,0.0,0.0,0.0,0.0,0.0,0.0,0.0,0.0,0.0,0.0,0.0,0.0,0.0,0.0,0.0,0.0,0.0,0.0,0.0,0.0,0.0,0.0,0.0,0.0,0.0,0.0,0.0,0.0,0.0,0.0,0.0,0.0,0.0,0.0,0.0,0.0,0.0,0.0,0.0,0.0,0.0,0.0,0.0,0.0,0.0,0.0,0.0,-4.1011,-4.1011,-4.0996,0.0,0.0,0.0,0.0,0.0,0.0,0.0,0.0,0.0,0.0,0.0,0.0,0.0,0.0,0.0,0.0,0.0,0.0,0.0,0.0,0.0,0.0,0.0,0.0,0.0,0.0,0.0,0.0,0.0,0.0,0.0,0.0,0.0,0.0,0.0,0.0,0.0,0.0,0.0,0.0,0.0,0.0,0.0,0.0,0.0,0.0,0.0,0.0,0.0,0.0,0.0,0.0,0.0,0.0,0.0,0.0,0.0,0.0,0.0,0.0,0.0,0.0,0.0,0.0,0.0,0.0,0.0,0.0,0.0,0.0,0.0,0.0,0.0,0.0,0.0,0.0,0.0,0.0,0.0,0.0,0.0,0.0,0.0,0.0,0.0,0.0,0.0,0.0,0.0,0.0,0.0,0.0,0.0,0.0,0.0,0.0,0.0,0.0,0.0,0.0,0.0,0.0,0.0,0.0,0.0,0.0,0.0,0.0,0.0,0.0,-4.0991,-4.0987,-4.1064,0.0,-4.1015,0.0,0.0,0.0,0.0,0.0,0.0,0.0,0.0,0.0,0.0,0.0,0.0,0.0,0.0,0.0,0.0,0.0,0.0,0.0,0.0,0.0,0.0,0.0,0.0,0.0,0.0,0.0,0.0,0.0,0.0,0.0,0.0,0.0,0.0,0.0,0.0,0.0,0.0,0.0,0.0,0.0,0.0,0.0,0.0,0.0,0.0,0.0,0.0,0.0,0.0,0.0,0.0,0.0,0.0,0.0,0.0,0.0,0.0,0.0,0.0,0.0,0.0,0.0,0.0,0.0,0.0,0.0,0.0,0.0,0.0,0.0,0.0,0.0,0.0,0.0,0.0,0.0,0.0,0.0,0.0,0.0,0.0,0.0,0.0,0.0,0.0,0.0,0.0,0.0,0.0,0.0,0.0,0.0,0.0,0.0,0.0,0.0,0.0,0.0,0.0,0.0,0.0,0.0,0.0,0.0,0.0,0.0,0.0,0.0,0.0,-4.1779,-4.1822,-4.1861,-4.1603,0.0,0.0,0.0,0.0,0.0,0.0,0.0,0.0,0.0,0.0,0.0,0.0,0.0,0.0,0.0,0.0,0.0,0.0,0.0,0.0,0.0,0.0,0.0,0.0,0.0,0.0,0.0,0.0,0.0,0.0,0.0,0.0,0.0,0.0,0.0,0.0,0.0,0.0,0.0,0.0,0.0,0.0,0.0,0.0,0.0,0.0,0.0,0.0,0.0,0.0,0.0,0.0,0.0,0.0,0.0,0.0,0.0,0.0,0.0,0.0,0.0,0.0,0.0,0.0,0.0,0.0,0.0,0.0,0.0,0.0,0.0,0.0,0.0,0.0,0.0,0.0,0.0,0.0,0.0,0.0,0.0,0.0,0.0,0.0,0.0,0.0,0.0,0.0,0.0,0.0,0.0,0.0,0.0,0.0,0.0,0.0,0.0,0.0,0.0,0.0,0.0,0.0,0.0,0.0,0.0,0.0,0.0,0.0,0.0,0.0,-4.1949,-4.2442,-4.272,-4.2522,-4.2069,-4.1368,0.0,0.0,0.0,0.0,0.0,0.0,0.0,0.0,0.0,0.0,0.0,0.0,0.0,0.0,0.0,0.0,0.0,0.0,0.0,0.0,0.0,0.0,0.0,0.0,0.0,0.0,0.0,0.0,0.0,0.0,0.0,0.0,0.0,0.0,0.0,0.0,0.0,0.0,0.0,0.0,0.0,0.0,0.0,0.0,0.0,0.0,0.0,0.0,0.0,0.0,0.0,0.0,0.0,0.0,0.0,0.0,0.0,0.0,0.0,0.0,0.0,0.0,0.0,0.0,0.0,0.0,0.0,0.0,0.0,0.0,0.0,0.0,0.0,0.0,0.0,0.0,0.0,0.0,0.0,0.0,0.0,0.0,0.0,0.0,0.0,0.0,0.0,0.0,0.0,0.0,0.0,0.0,0.0,0.0,0.0,0.0,0.0,0.0,0.0,0.0,0.0,0.0,0.0,0.0,0.0,0.0,0.0,0.0,-4.2091,-4.2252,-4.2734,-4.3611,-4.285,-4.2353,0.0,0.0,0.0,0.0,0.0,0.0,0.0,0.0,0.0,0.0,0.0,0.0,0.0,0.0,0.0,0.0,0.0,0.0,0.0,0.0,0.0,0.0,0.0,0.0,0.0,0.0,0.0,0.0,0.0,0.0,0.0,0.0,0.0,0.0,0.0,0.0,0.0,0.0,0.0,0.0,0.0,0.0,0.0,0.0,0.0,0.0,0.0,0.0,0.0,0.0,0.0,0.0,0.0,0.0,0.0,0.0,0.0,0.0,0.0,0.0,0.0,0.0,0.0,0.0,0.0,0.0,0.0,0.0,0.0,0.0,0.0,0.0,0.0,0.0,0.0,0.0,0.0,0.0,0.0,0.0,0.0,0.0,0.0,0.0,0.0,0.0,0.0,0.0,0.0,0.0,0.0,0.0,0.0,0.0,0.0,0.0,0.0,0.0,0.0,0.0,0.0,0.0,0.0,0.0,0.0,0.0,0.0,0.0,0.0,-4.2207,-4.3342,-4.4153,-4.4497,-4.4227,-4.3552,0.0,0.0,0.0,0.0,0.0,0.0,0.0,0.0,0.0,0.0,0.0,0.0,0.0,0.0,0.0,0.0,0.0,0.0,0.0,0.0,0.0,0.0,0.0,0.0,0.0,0.0,0.0,0.0,0.0,0.0,0.0,0.0,0.0,0.0,0.0,0.0,0.0,0.0,0.0,0.0,0.0,0.0,0.0,0.0,0.0,0.0,0.0,0.0,0.0,0.0,0.0,0.0,0.0,0.0,0.0,0.0,0.0,0.0,0.0,0.0,0.0,0.0,0.0,0.0,0.0,0.0,0.0,0.0,0.0,0.0,0.0,0.0,0.0,0.0,0.0,0.0,0.0,0.0,0.0,0.0,0.0,0.0,0.0,0.0,0.0,0.0,0.0,0.0,0.0,0.0,0.0,0.0,0.0,0.0,0.0,0.0,0.0,0.0,0.0,0.0,0.0,0.0,0.0,0.0,0.0,0.0,0.0,0.0,0.0,-4.3033,0.0,-4.5312,-4.5377,-4.5109,-4.4285,0.0,0.0,0.0,0.0,0.0,0.0,0.0,0.0,0.0,0.0,0.0,0.0,0.0,0.0,0.0,0.0,0.0,0.0,0.0,0.0,0.0,0.0,0.0,0.0,0.0,0.0,0.0,0.0,0.0,0.0,0.0,0.0,0.0,0.0,0.0,0.0,0.0,0.0,0.0,0.0,0.0,0.0,0.0,0.0,0.0,0.0,0.0,0.0,0.0,0.0,0.0,0.0,0.0,0.0,0.0,0.0,0.0,0.0,0.0,0.0,0.0,0.0,0.0,0.0,0.0,0.0,0.0,0.0,0.0,0.0,0.0,0.0,0.0,0.0,0.0,0.0,0.0,0.0,0.0,0.0,0.0,0.0,0.0,0.0,0.0,0.0,0.0,0.0,0.0,0.0,0.0,0.0,0.0,0.0,0.0,0.0,0.0,0.0,0.0,0.0,0.0,0.0,0.0,0.0,0.0,0.0,0.0,0.0,-4.2905,-4.4724,-4.5628,-4.608,-4.6196,-4.541,-4.4514,0.0,0.0,0.0,0.0,0.0,0.0,0.0,0.0,0.0,0.0,0.0,0.0,0.0,0.0,0.0,0.0,0.0,0.0,0.0,0.0,0.0,0.0,0.0,0.0,0.0,0.0,0.0,0.0,0.0,0.0,0.0,0.0,0.0,0.0,0.0,0.0,0.0,0.0,0.0,0.0,0.0,0.0,0.0,0.0,0.0,0.0,0.0,0.0,0.0,0.0,0.0,0.0,0.0,0.0,0.0,0.0,0.0,0.0,0.0,0.0,0.0,0.0,0.0,0.0,0.0,0.0,0.0,0.0,0.0,0.0,0.0,0.0,0.0,0.0,0.0,0.0,0.0,0.0,0.0,0.0,0.0,0.0,0.0,0.0,0.0,0.0,0.0,0.0,0.0,0.0,0.0,0.0,0.0,0.0,0.0,0.0,0.0,0.0,0.0,0.0,0.0,0.0,0.0,0.0,0.0,0.0,0.0,0.0,0.0,-4.5498,-4.591,-4.6396,-4.6967,-4.6177,-4.5029,0.0,0.0,0.0,0.0,0.0,0.0,0.0,0.0,0.0,0.0,0.0,0.0,0.0,0.0,0.0,0.0,0.0,0.0,0.0,0.0,0.0,0.0,0.0,0.0,0.0,0.0,0.0,0.0,0.0,0.0,0.0,0.0,0.0,0.0,0.0,0.0,0.0,0.0,0.0,0.0,0.0,0.0,0.0,0.0,0.0,0.0,0.0,0.0,0.0,0.0,0.0,0.0,0.0,0.0,0.0,0.0,0.0,0.0,0.0,0.0,0.0,0.0,0.0,0.0,0.0,0.0,0.0,0.0,0.0,0.0,0.0,0.0,0.0,0.0,0.0,0.0,0.0,0.0,0.0,0.0,0.0,0.0,0.0,0.0,0.0,0.0,0.0,0.0,0.0,0.0,0.0,0.0,0.0,0.0,0.0,0.0,0.0,0.0,0.0,0.0,0.0,0.0,0.0,0.0,0.0,0.0,0.0,0.0,0.0,-4.6557,-4.6564,-4.6743,-4.7328,-4.6824,-4.5561,-4.3569,0.0,0.0,0.0,0.0,0.0,0.0,0.0,0.0,0.0,0.0,0.0,0.0,0.0,0.0,0.0,0.0,0.0,0.0,0.0,0.0,0.0,0.0,0.0,0.0,0.0,0.0,0.0,0.0,0.0,0.0,0.0,0.0,0.0,0.0,0.0,0.0,0.0,0.0,0.0,0.0,0.0,0.0,0.0,0.0,0.0,0.0,0.0,0.0,0.0,0.0,0.0,0.0,0.0,0.0,0.0,0.0,0.0,0.0,0.0,0.0,0.0,0.0,0.0,0.0,0.0,0.0,0.0,0.0,0.0,0.0,0.0,0.0,0.0,0.0,0.0,0.0,0.0,0.0,0.0,0.0,0.0,0.0,0.0,0.0,0.0,0.0,0.0,0.0,0.0,0.0,0.0,0.0,0.0,0.0,0.0,0.0,0.0,0.0,0.0,0.0,0.0,0.0,0.0,0.0,0.0,0.0,0.0,0.0,-4.7933,-4.743,-4.7177,-4.7256,-4.7255,-4.6077,0.0,0.0,0.0,0.0,0.0,0.0,0.0,0.0,0.0,0.0,0.0,0.0,0.0,0.0,0.0,0.0,0.0,0.0,0.0,0.0,0.0,0.0,0.0,0.0,0.0,0.0,0.0,0.0,0.0,0.0,0.0,0.0,0.0,0.0,0.0,0.0,0.0,0.0,0.0,0.0,0.0,0.0,0.0,0.0,0.0,0.0,0.0,0.0,0.0,0.0,0.0,0.0,0.0,0.0,0.0,0.0,0.0,0.0,0.0,0.0,0.0,0.0,0.0,0.0,0.0,0.0,0.0,0.0,0.0,0.0,0.0,0.0,0.0,0.0,0.0,0.0,0.0,0.0,0.0,0.0,0.0,0.0,0.0,0.0,0.0,0.0,0.0,0.0,0.0,0.0,0.0,0.0,0.0,0.0,0.0,0.0,0.0,0.0,0.0,0.0,0.0,0.0,0.0,0.0,0.0,0.0,0.0,0.0,0.0,-4.7611,-4.7662,-4.772,-4.7909,-4.7376,-4.6187,0.0,0.0,0.0,0.0,0.0,0.0,0.0,0.0,0.0,0.0,0.0,0.0,0.0,0.0,0.0,0.0,0.0,0.0,0.0,0.0,0.0,0.0,0.0,0.0,0.0,0.0,0.0,0.0,0.0,0.0,0.0,0.0,0.0,0.0,0.0,0.0,0.0,0.0,0.0,0.0,0.0,0.0,0.0,0.0,0.0,0.0,0.0,0.0,0.0,0.0,0.0,0.0,0.0,0.0,0.0,0.0,0.0,0.0,0.0,0.0,0.0,0.0,0.0,0.0,0.0,0.0,0.0,0.0,0.0,0.0,0.0,0.0,0.0,0.0,0.0,0.0,0.0,0.0,0.0,0.0,0.0,0.0,0.0,0.0,0.0,0.0,0.0,0.0,0.0,0.0,0.0,0.0,0.0,0.0,0.0,0.0,0.0,0.0,0.0,0.0,0.0,0.0,0.0,0.0,0.0,0.0,0.0,0.0,-4.4047,-4.7452,-4.7605,-4.7895,-4.8451,-4.7797,-4.6497,0.0,0.0,0.0,0.0,0.0,0.0,0.0,0.0,0.0,0.0,0.0,0.0,0.0,0.0,0.0,0.0,0.0,0.0,0.0,0.0,0.0,0.0,0.0,0.0,0.0,0.0,0.0,0.0,0.0,0.0,0.0,0.0,0.0,0.0,0.0,0.0,0.0,0.0,0.0,0.0,0.0,0.0,0.0,0.0,0.0,0.0,0.0,0.0,0.0,0.0,0.0,0.0,0.0,0.0,0.0,0.0,0.0,0.0,0.0,0.0,0.0,0.0,0.0,0.0,0.0,0.0,0.0,0.0,0.0,0.0,0.0,0.0,0.0,0.0,0.0,0.0,0.0,0.0,0.0,0.0,0.0,0.0,0.0,0.0,0.0,0.0,0.0,0.0,0.0,0.0,0.0,0.0,0.0,0.0,0.0,0.0,0.0,0.0,0.0,0.0,0.0,0.0,0.0,0.0,0.0,0.0,0.0,0.0,-4.363,-4.7097,-4.7273,-4.7757,-4.8663,-4.8247,-4.6916,0.0,0.0,0.0,0.0,0.0,0.0,0.0,0.0,0.0,0.0,0.0,0.0,0.0,0.0,0.0,0.0,0.0,0.0,0.0,0.0,0.0,0.0,0.0,0.0,0.0,0.0,0.0,0.0,0.0,0.0,0.0,0.0,0.0,0.0,0.0,0.0,0.0,0.0,0.0,0.0,0.0,0.0,0.0,0.0,0.0,0.0,0.0,0.0,0.0,0.0,0.0,0.0,0.0,0.0,0.0,0.0,0.0,0.0,0.0,0.0,0.0,0.0,0.0,0.0,0.0,0.0,0.0,0.0,0.0,0.0,0.0,0.0,0.0,0.0,0.0,0.0,0.0,0.0,0.0,0.0,0.0,0.0,0.0,0.0,0.0,0.0,0.0,0.0,0.0,0.0,0.0,0.0,0.0,0.0,0.0,0.0,0.0,0.0,0.0,0.0,0.0,0.0,0.0,0.0,0.0,0.0,0.0,0.0,-4.3167,-4.6495,-4.6791,-4.7352,-4.8219,-4.7946,-4.7269,0.0,0.0,0.0,0.0,0.0,0.0,0.0,0.0,0.0,0.0,0.0,0.0,0.0,0.0,0.0,0.0,0.0,0.0,0.0,0.0,0.0,0.0,0.0,0.0,0.0,0.0,0.0,0.0,0.0,0.0,0.0,0.0,0.0,0.0,0.0,0.0,0.0,0.0,0.0,0.0,0.0,0.0,0.0,0.0,0.0,0.0,0.0,0.0,-2.402,0.0,0.0,0.0,0.0,0.0,0.0,0.0,0.0,0.0,0.0,0.0,0.0,0.0,0.0,0.0,0.0,0.0,0.0,0.0,0.0,0.0,0.0,0.0,0.0,0.0,0.0,0.0,0.0,0.0,0.0,0.0,0.0,0.0,0.0,0.0,0.0,0.0,0.0,0.0,0.0,0.0,0.0,0.0,0.0,0.0,0.0,0.0,0.0,0.0,0.0,0.0,0.0,0.0,0.0,0.0,0.0,0.0,0.0,0.0,-4.2595,-4.5823,-4.6231,-4.6838,-4.7764,-4.7371,-4.6871,0.0,0.0,0.0,0.0,0.0,0.0,0.0,0.0,0.0,0.0,0.0,0.0,0.0,0.0,0.0,0.0,0.0,0.0,0.0,0.0,0.0,0.0,0.0,0.0,0.0,0.0,0.0,0.0,0.0,0.0,0.0,0.0,0.0,0.0,0.0,0.0,0.0,0.0,0.0,0.0,0.0,0.0,0.0,0.0,0.0,0.0,0.0,0.0,0.0,0.0,0.0,0.0,0.0,0.0,0.0,0.0,0.0,0.0,0.0,0.0,0.0,0.0,0.0,0.0,0.0,0.0,0.0,0.0,0.0,0.0,0.0,0.0,0.0,0.0,0.0,0.0,0.0,0.0,0.0,0.0,0.0,0.0,0.0,0.0,0.0,0.0,0.0,0.0,0.0,0.0,0.0,0.0,0.0,0.0,0.0,0.0,0.0,0.0,0.0,0.0,0.0,0.0,0.0,0.0,0.0,0.0,0.0,-4.0293,-4.1922,-4.5033,-4.5443,-4.6067,-4.711,-4.6557,-4.6085,-4.5854,0.0,0.0,0.0,0.0,0.0,0.0,0.0,0.0,0.0,0.0,0.0,0.0,0.0,0.0,0.0,0.0,0.0,0.0,0.0,0.0,0.0,0.0,0.0,0.0,0.0,0.0,0.0,0.0,0.0,0.0,0.0,0.0,0.0,0.0,0.0,0.0,0.0,0.0,-2.6801,-2.6612,0.0,0.0,0.0,0.0,0.0,0.0,0.0,0.0,-2.2482,0.0,0.0,0.0,0.0,0.0,0.0,0.0,0.0,0.0,0.0,0.0,0.0,0.0,0.0,0.0,0.0,0.0,0.0,0.0,0.0,0.0,0.0,0.0,0.0,0.0,0.0,0.0,0.0,0.0,0.0,0.0,0.0,0.0,0.0,0.0,0.0,0.0,0.0,0.0,0.0,0.0,0.0,0.0,0.0,0.0,0.0,0.0,0.0,0.0,0.0,0.0,0.0,0.0,0.0,0.0,0.0,-3.9509,-3.9665,-4.1074,-4.3655,-4.3931,-4.4566,-4.556,-4.5114,-4.4869,-4.4872,0.0,0.0,0.0,0.0,0.0,0.0,0.0,0.0,0.0,0.0,0.0,0.0,0.0,0.0,0.0,0.0,0.0,0.0,0.0,0.0,0.0,0.0,0.0,0.0,0.0,0.0,0.0,0.0,0.0,0.0,0.0,0.0,0.0,0.0,0.0,0.0,0.0,0.0,0.0,-2.5238,-2.5015,0.0,0.0,0.0,0.0,0.0,0.0,0.0,0.0,-2.1349,0.0,0.0,0.0,0.0,0.0,0.0,0.0,0.0,0.0,0.0,0.0,0.0,0.0,0.0,0.0,0.0,0.0,0.0,0.0,0.0,0.0,0.0,0.0,0.0,0.0,0.0,0.0,0.0,0.0,0.0,0.0,0.0,0.0,0.0,0.0,0.0,0.0,0.0,0.0,0.0,0.0,0.0,0.0,0.0,0.0,0.0,0.0,0.0,0.0,0.0,0.0,0.0,0.0,0.0,0.0,-3.859,-3.8998,-4.0272,-4.266,-4.304,-4.3536,-4.4217,-4.4122,-4.3757,0.0,0.0,0.0,0.0,0.0,0.0,0.0,0.0,0.0,0.0,0.0,0.0,0.0,0.0,0.0,0.0,0.0,0.0,0.0,0.0,0.0,0.0,0.0,0.0,0.0,0.0,0.0,0.0,0.0,0.0,0.0,0.0,0.0,0.0,0.0,0.0,0.0,0.0,0.0,0.0,-2.4432,-2.4477,-2.3742,0.0,0.0,0.0,0.0,0.0,0.0,-2.1328,-2.0899,0.0,0.0,0.0,0.0,0.0,0.0,0.0,0.0,0.0,0.0,0.0,0.0,0.0,0.0,0.0,0.0,0.0,0.0,0.0,0.0,0.0,0.0,0.0,0.0,0.0,0.0,0.0,0.0,0.0,0.0,0.0,0.0,0.0,0.0,0.0,0.0,0.0,0.0,0.0,0.0,0.0,0.0,0.0,0.0,0.0,0.0,0.0,0.0,0.0,0.0,0.0,0.0,0.0,0.0,0.0,-3.7938,-3.8242,-3.9456,-4.166,-4.2015,-4.2339,-4.2767,-4.301,-4.2583,0.0,0.0,0.0,0.0,0.0,0.0,0.0,0.0,0.0,0.0,0.0,0.0,0.0,0.0,0.0,0.0,0.0,0.0,0.0,0.0,0.0,0.0,0.0,0.0,0.0,0.0,0.0,0.0,0.0,0.0,0.0,0.0,0.0,0.0,0.0,0.0,0.0,0.0,0.0,0.0,0.0,-2.3704,-2.2911,-2.2658,0.0,0.0,0.0,0.0,-2.153,-2.1172,0.0,0.0,0.0,0.0,0.0,0.0,0.0,0.0,0.0,0.0,0.0,0.0,0.0,0.0,0.0,0.0,0.0,0.0,0.0,0.0,0.0,0.0,0.0,0.0,0.0,0.0,0.0,0.0,0.0,0.0,0.0,0.0,0.0,0.0,0.0,0.0,0.0,0.0,0.0,0.0,0.0,0.0,0.0,0.0,0.0,0.0,0.0,0.0,0.0,0.0,0.0,0.0,0.0,0.0,0.0,0.0,-3.7381,-3.7515,-3.8402,-4.0137,-4.0272,-4.0551,-4.1081,-4.1313,-4.12,0.0,0.0,0.0,0.0,0.0,0.0,0.0,0.0,0.0,0.0,0.0,0.0,0.0,0.0,0.0,0.0,0.0,0.0,0.0,0.0,0.0,0.0,0.0,0.0,0.0,0.0,0.0,0.0,0.0,0.0,0.0,0.0,0.0,0.0,0.0,0.0,0.0,0.0,0.0,0.0,0.0,-2.2208,-2.1872,-2.1338,-2.0907,0.0,0.0,0.0,-2.0508,-2.0571,0.0,0.0,0.0,0.0,0.0,0.0,0.0,0.0,0.0,0.0,0.0,0.0,0.0,0.0,0.0,0.0,0.0,0.0,0.0,0.0,0.0,0.0,0.0,0.0,0.0,0.0,0.0,0.0,0.0,0.0,0.0,0.0,0.0,0.0,0.0,0.0,0.0,0.0,0.0,0.0,0.0,0.0,0.0,0.0,0.0,0.0,0.0,0.0,0.0,0.0,0.0,0.0,0.0,0.0,0.0,-3.4011,-3.6735,-3.6816,-3.7663,-3.9387,-3.9506,-3.9749,-4.0203,-4.0038,-3.9645,0.0,0.0,0.0,0.0,0.0,0.0,0.0,0.0,0.0,0.0,0.0,0.0,0.0,0.0,0.0,0.0,0.0,0.0,0.0,0.0,0.0,0.0,0.0,0.0,0.0,0.0,0.0,0.0,0.0,0.0,0.0,0.0,0.0,0.0,0.0,0.0,0.0,0.0,0.0,0.0,0.0,0.0,-2.106,-2.0627,0.0,0.0,0.0,-2.0002,-2.0078,0.0,0.0,0.0,0.0,0.0,0.0,0.0,0.0,0.0,0.0,0.0,0.0,0.0,0.0,0.0,0.0,0.0,0.0,0.0,0.0,0.0,0.0,0.0,0.0,0.0,0.0,0.0,0.0,0.0,0.0,0.0,0.0,0.0,0.0,0.0,0.0,0.0,0.0,0.0,0.0,0.0,0.0,0.0,0.0,0.0,0.0,0.0,0.0,0.0,0.0,0.0,0.0,0.0,0.0,0.0,0.0,0.0,-3.6125,-3.6152,-3.6994,-3.8635,-3.881,-3.9082,-3.9437,-3.8925,0.0,0.0,0.0,0.0,0.0,0.0,0.0,0.0,0.0,0.0,0.0,0.0,0.0,0.0,0.0,0.0,0.0,0.0,0.0,0.0,0.0,0.0,0.0,0.0,0.0,0.0,0.0,-2.5861,0.0,0.0,0.0,0.0,0.0,0.0,0.0,0.0,0.0,0.0,0.0,0.0,0.0,0.0,-2.0206,-2.0208,-1.986,-1.9482,0.0,0.0,-1.9805,-1.992,-2.0202,-2.0633,0.0,0.0,0.0,0.0,0.0,0.0,0.0,0.0,0.0,0.0,0.0,0.0,0.0,0.0,0.0,0.0,0.0,0.0,0.0,0.0,0.0,0.0,0.0,0.0,0.0,0.0,0.0,0.0,0.0,0.0,0.0,0.0,0.0,0.0,0.0,0.0,0.0,0.0,0.0,0.0,0.0,0.0,0.0,0.0,0.0,0.0,0.0,0.0,0.0,0.0,0.0,0.0,0.0,0.0,0.0,-3.5545,-3.5546,-3.6269,-3.7863,-3.8001,-3.823,-3.8678,-3.8229,-3.7696,0.0,0.0,0.0,0.0,0.0,0.0,0.0,0.0,0.0,0.0,0.0,0.0,0.0,0.0,0.0,0.0,0.0,0.0,0.0,0.0,0.0,0.0,0.0,0.0,0.0,0.0,0.0,0.0,0.0,0.0,0.0,0.0,0.0,0.0,0.0,0.0,0.0,0.0,0.0,0.0,0.0,-1.8793,-1.904,-1.8678,-1.8383,0.0,0.0,-1.9225,-1.9854,-2.0388,-2.0766,-2.1122,0.0,0.0,0.0,0.0,0.0,0.0,0.0,0.0,0.0,0.0,0.0,0.0,0.0,0.0,0.0,0.0,0.0,0.0,0.0,0.0,0.0,0.0,0.0,0.0,0.0,0.0,0.0,0.0,0.0,0.0,0.0,0.0,0.0,0.0,0.0,0.0,0.0,0.0,0.0,0.0,0.0,0.0,0.0,0.0,0.0,0.0,0.0,0.0,0.0,0.0,0.0,0.0,0.0,-3.2478,-3.5147,-3.4893,-3.5607,-3.7188,-3.7266,-3.746,-3.7886,-3.7351,-3.6825,0.0,0.0,0.0,0.0,0.0,0.0,0.0,0.0,0.0,0.0,0.0,0.0,0.0,0.0,0.0,0.0,0.0,0.0,0.0,0.0,0.0,0.0,0.0,0.0,0.0,0.0,0.0,0.0,-2.3001,-2.2252,-2.1415,0.0,0.0,0.0,0.0,0.0,0.0,0.0,0.0,0.0,0.0,-1.8718,-1.8833,-1.8578,0.0,0.0,-1.8632,-1.8916,-1.947,-2.0071,-2.0602,-2.1184,-2.1571,0.0,0.0,0.0,0.0,0.0,0.0,0.0,0.0,0.0,0.0,0.0,0.0,0.0,0.0,0.0,0.0,0.0,0.0,0.0,0.0,0.0,0.0,0.0,0.0,0.0,0.0,0.0,0.0,0.0,0.0,0.0,0.0,0.0,0.0,0.0,0.0,0.0,0.0,0.0,0.0,0.0,0.0,0.0,0.0,0.0,0.0,0.0,0.0,0.0,0.0,0.0,0.0,-3.2206,-3.4647,-3.4429,-3.506,-3.6646,-3.6662,-3.686,-3.7103,-3.6652,-3.6242,0.0,0.0,0.0,0.0,0.0,0.0,0.0,0.0,0.0,0.0,0.0,0.0,0.0,0.0,0.0,0.0,0.0,0.0,0.0,0.0,0.0,0.0,0.0,0.0,0.0,0.0,0.0,0.0,-2.2176,-2.1328,-2.0489,0.0,0.0,0.0,0.0,0.0,0.0,0.0,0.0,0.0,0.0,-1.838,-1.8582,-1.8318,-1.8241,-1.8348,-1.8376,-1.8626,-1.9255,-1.9767,-2.0292,-2.1024,0.0,0.0,0.0,0.0,0.0,0.0,0.0,0.0,0.0,0.0,0.0,0.0,0.0,0.0,0.0,0.0,0.0,0.0,0.0,0.0,0.0,0.0,0.0,0.0,0.0,0.0,0.0,0.0,0.0,0.0,0.0,0.0,0.0,0.0,0.0,0.0,0.0,0.0,0.0,0.0,0.0,0.0,0.0,0.0,0.0,0.0,0.0,0.0,0.0,0.0,0.0,0.0,0.0,0.0,-3.4147,-3.412,-3.476,-3.615,-3.6196,-3.6336,-3.6538,-3.6117,-3.5907,-3.5876,0.0,0.0,0.0,0.0,0.0,0.0,0.0,0.0,0.0,0.0,0.0,0.0,0.0,0.0,0.0,0.0,0.0,0.0,0.0,0.0,0.0,0.0,0.0,0.0,0.0,0.0,-2.2197,-2.1262,-2.0498,0.0,0.0,0.0,0.0,0.0,0.0,0.0,0.0,0.0,0.0,-1.7872,-1.7674,-1.7969,-1.7799,-1.7779,-1.8297,-1.8101,-1.8192,-1.9244,-1.9539,-1.9828,0.0,0.0,0.0,0.0,0.0,0.0,0.0,0.0,0.0,0.0,0.0,0.0,0.0,0.0,0.0,0.0,0.0,0.0,0.0,0.0,0.0,0.0,0.0,0.0,0.0,0.0,0.0,0.0,0.0,0.0,0.0,0.0,0.0,0.0,0.0,0.0,0.0,0.0,0.0,0.0,-3.5529,-3.5181,0.0,0.0,0.0,0.0,0.0,0.0,0.0,0.0,0.0,0.0,0.0,0.0,-3.2463,-3.3834,-3.4165,-3.4813,-3.5864,-3.5879,-3.5958,-3.6163,-3.6075,-3.5799,-3.5415,0.0,0.0,0.0,0.0,0.0,0.0,0.0,0.0,0.0,0.0,0.0,0.0,0.0,0.0,0.0,0.0,0.0,0.0,0.0,0.0,0.0,0.0,0.0,0.0,0.0,-2.2799,0.0,0.0,0.0,0.0,0.0,0.0,0.0,0.0,0.0,0.0,0.0,-1.818,-1.8095,-1.797,-1.7796,-1.7786,-1.7687,-1.762,0.0,0.0,0.0,0.0,0.0,0.0,0.0,0.0,0.0,0.0,0.0,0.0,0.0,0.0,-2.2539,-2.1992,-2.1617,-2.1256,-2.1099,0.0,0.0,0.0,0.0,0.0,0.0,0.0,0.0,0.0,0.0,0.0,0.0,0.0,0.0,0.0,0.0,-3.3525,0.0,0.0,0.0,0.0,0.0,0.0,0.0,0.0,-3.512,-3.5787,-3.6702,-3.6314,-3.619,0.0,-3.5918,-3.4846,0.0,0.0,0.0,0.0,0.0,0.0,0.0,0.0,-3.2792,-3.3953,-3.431,-3.485,-3.5608,-3.5638,-3.5718,-3.5797,-3.591,-3.5655,-3.514,-3.4361,-3.3833,0.0,0.0,0.0,0.0,0.0,0.0,0.0,0.0,0.0,0.0,0.0,0.0,0.0,0.0,0.0,0.0,0.0,0.0,0.0,0.0,0.0,0.0,0.0,-2.2473,0.0,0.0,0.0,0.0,0.0,0.0,0.0,0.0,0.0,-1.8302,-1.8094,-1.7931,-1.783,-1.7905,-1.7799,-1.7582,0.0,0.0,0.0,0.0,0.0,0.0,0.0,-1.9096,-1.9554,-2.0456,-2.1266,-2.1731,-2.2353,-2.2794,-2.2969,0.0,0.0,-2.2422,-2.2051,-2.1787,-2.1618,-2.1114,-2.0434,-1.9826,-1.9212,-1.8659,0.0,0.0,0.0,0.0,0.0,0.0,0.0,0.0,-3.4928,-3.4641,0.0,-3.3947,0.0,0.0,0.0,0.0,0.0,0.0,0.0,0.0,-3.6171,-3.6943,-3.7258,-3.6496,-3.6238,-3.6562,-3.5911,-3.5338,-3.4867,-3.5153,0.0,0.0,0.0,0.0,0.0,0.0,-3.3367,-3.449,-3.4502,-3.4846,-3.5474,-3.5489,-3.5489,-3.5489,-3.5653,-3.5465,-3.5063,-3.4971,-3.4425,-3.3322,-3.2448,0.0,0.0,0.0,0.0,0.0,0.0,0.0,0.0,0.0,0.0,0.0,0.0,0.0,0.0,0.0,0.0,0.0,0.0,0.0,0.0,-2.2717,0.0,0.0,0.0,0.0,0.0,0.0,0.0,0.0,0.0,0.0,-1.7711,-1.7584,-1.7514,-1.7586,0.0,0.0,0.0,0.0,-1.7566,-1.7579,-1.7486,-1.7577,-1.7749,-1.8097,-1.8627,-1.9096,0.0,0.0,-2.1919,-2.2451,-2.2794,-2.2794,-2.2969,-2.3057,-2.3028,-2.2999,-2.2833,-2.2492,-2.2129,-2.1722,-2.0907,-2.0051,-1.9438,-3.9944,0.0,0.0,0.0,0.0,-3.7339,-3.7246,-3.7246,-3.7009,-3.6941,-3.6907,-3.6721,0.0,0.0,0.0,0.0,0.0,0.0,-3.667,-3.7047,-3.7249,-3.7481,-3.7867,-3.7504,-3.7249,-3.6999,-3.681,-3.6479,-3.6029,-3.6135,-3.5486,-3.414,0.0,0.0,0.0,0.0,-3.4237,-3.4472,-3.4966,-3.531,-3.5489,-3.5489,-3.5489,-3.5489,-3.5554,-3.5529,-3.5349,-3.4931,-3.4557,-3.4288,-3.3125,0.0,0.0,0.0,0.0,0.0,0.0,0.0,0.0,0.0,0.0,0.0,0.0,0.0,0.0,0.0,0.0,0.0,0.0,0.0,-2.3513,-2.3117,-2.2485,0.0,0.0,0.0,0.0,0.0,0.0,0.0,0.0,0.0,-1.7044,-1.6995,-1.7018,0.0,0.0,-1.7275,-1.7275,-1.7378,-1.7203,-1.6699,0.0,0.0,0.0,-1.7203,-1.7792,-1.8064,-1.9271,-2.0464,-2.1454,-2.182,-2.2176,-2.2715,-2.2891,-2.2882,-2.2882,-2.2891,-2.2794,-2.2441,-2.2008,-2.1392,-2.0564,-1.9745,-1.892,-4.1612,-3.9795,-3.9729,-3.9679,-3.9696,-3.9681,-3.9648,-3.9614,-3.9343,-3.9073,-3.8768,-3.8481,-3.7922,-3.7229,-3.6975,0.0,0.0,0.0,-3.7626,-3.8002,-3.8019,-3.8105,-3.8173,-3.7976,-3.7685,-3.7194,-3.715,-3.6846,-3.6289,-3.6289,-3.5782,-3.4743,0.0,0.0,-3.4135,-3.448,-3.4685,-3.4891,-3.5295,-3.5489,-3.5489,-3.5489,-3.5489,-3.5489,-3.5489,-3.5489,-3.5489,-3.5115,-3.482,-3.4628,-3.3847,-3.3276,0.0,0.0,0.0,0.0,0.0,0.0,0.0,0.0,0.0,0.0,0.0,-2.6505,0.0,0.0,0.0,0.0,-2.4273,-2.372,-2.3387,-2.3222,0.0,0.0,0.0,0.0,0.0,0.0,0.0,-1.7682,-1.7309,-1.6935,-1.6567,-1.6402,-1.6515,-1.6901,-1.6974,-1.6974,-1.6974,0.0,-1.6807,-1.6339,-1.6579,-1.6573,-1.6272,-1.6784,-1.7333,-1.7792,-1.8812,-1.9828,-2.0645,-2.1096,-2.1633,-2.2176,-2.2451,-2.2539,-2.2539,-2.2539,-2.2451,-2.2176,-2.1741,-2.1105,-2.0292,-1.9563,-1.8727,-4.3115,-4.2472,-4.2472,-4.2388,-4.2286,-4.2286,-4.2286,-4.2236,-4.1576,-4.0899,-4.0257,-3.9563,-3.8886,-3.8212,-3.7951,0.0,0.0,-3.8179,-3.8441,-3.8266,-3.8799,-3.8786,-3.8472,-3.8203,-3.7732,-3.7178,-3.7121,-3.6677,-3.6022,-3.6037,-3.5861,-3.5489,-3.4988,-3.4798,-3.4766,-3.4625,-3.4876,-3.5489,-3.5489,-3.5489,-3.5489,-3.5489,-3.5489,-3.5489,-3.5489,-3.5489,-3.5489,-3.5489,-3.522,-3.4607,-3.4502,-3.4203,-3.3604,0.0,0.0,0.0,0.0,0.0,0.0,0.0,0.0,0.0,0.0,0.0,0.0,0.0,0.0,0.0,-2.4176,0.0,-2.3144,-2.3144,0.0,0.0,0.0,-2.1374,-2.0473,-1.9463,-1.855,-1.7815,0.0,0.0,0.0,0.0,-1.6025,-1.6567,-1.666,-1.6673,-1.6667,-1.6673,-1.6567,-1.6259,-1.6434,-1.6532,-1.6177,-1.6602,-1.716,-1.78,-1.8643,-1.918,-1.9745,-2.0374,-2.1006,-2.1544,-2.182,-2.2008,-2.2008,-2.2017,-2.1919,-2.1651,-2.1454,-2.1006,-2.0019,-1.9371,-1.8719,-4.4198,-4.4028,-4.4028,-4.3369,-4.2303,-4.2303,-4.2303,-4.2269,-4.21,-4.1931,-4.1762,-4.1576,-4.1319,-4.0973,-4.0866,-4.0688,-4.0398,-4.058,-4.0608,-4.0608,-4.0588,-4.0205,-3.9373,-3.9201,-3.8504,-3.7389,-3.7194,-3.6907,-3.6367,-3.61,-3.5894,-3.5638,-3.5439,-3.5329,-3.5329,-3.5265,-3.534,-3.5489,-3.5489,-3.5489,-3.5489,-3.5489,-3.5489,-3.5489,-3.5489,-3.5489,-3.5489,-3.5489,-3.5429,-3.5265,-3.4756,-3.4412,-3.4247,-3.352,0.0,0.0,0.0,0.0,0.0,0.0,0.0,0.0,0.0,-2.721,-2.6563,0.0,-2.5587,0.0,-2.409,-2.3406,-2.3135,-2.3144,0.0,0.0,-2.2176,-2.1642,-2.0744,-1.992,-1.9004,-1.8087,-1.734,-1.669,-1.6224,-1.5933,-1.5879,-1.6025,-1.6233,-1.6373,-1.6373,-1.638,-1.6273,-1.6005,-1.5945,-1.6007,-1.5953,-1.6123,-1.669,-1.7333,-1.7785,-1.8342,-1.9188,-1.9637,-2.0175,-2.0997,-2.1177,-2.1374,-2.1482,-2.1374,-2.1096,-2.0744,-2.0564,-2.0283,-1.9554,-1.8719,-1.7878,-4.457,-4.457,-4.457,-4.4079,-4.3318,-4.3318,-4.3318,-4.3301,-4.3301,-4.3115,-4.2777,-4.2439,-4.2196,-4.2013,-4.2013,-4.1832,-4.1649,-4.1649,-4.1633,-4.1577,-4.1442,-4.104,-4.0508,-4.0105,-3.9468,-3.8711,-3.8426,-3.8074,-3.7638,-3.732,-3.7033,-3.6854,-3.6305,-3.6039,-3.6024,-3.5704,-3.5489,-3.5489,-3.5489,-3.5489,-3.5489,-3.5489,-3.5489,-3.5489,-3.5489,-3.5489,-3.5489,-3.5489,-3.5489,-3.5489,-3.513,-3.4936,-3.4921,-3.4258,-3.3598,0.0,0.0,0.0,0.0,0.0,0.0,0.0,0.0,0.0,0.0,0.0,-2.5475,0.0,-2.3831,0.0,-2.3144,-2.3144,-2.296,-2.2618,-2.2274,-2.1741,-2.0916,-2.0093,-1.9271,-1.835,-1.7613,-1.6965,-1.6602,-1.6312,-1.6116,-1.6021,-1.617,-1.6175,-1.6079,-1.6079,-1.6012,-1.5858,-1.5825,-1.5825,-1.5825,-1.6028,-1.6319,-1.6777,-1.7232,-1.7792,-1.8434,-1.8904,-1.9463,-2.0184,-2.0456,-2.0555,-2.0663,-2.0555,-2.0192,-1.9737,-1.9363,-1.9088,-1.8904,-1.8156,-1.7419,-4.457,-4.457,-4.457,-4.457,-4.457,-4.457,-4.457,-4.457,-4.457,-4.4198,-4.3521,-4.2861,-4.2537,-4.2391,-4.2375,-4.232,-4.221,-4.2155,-4.221,-4.2155,-4.1982,-4.1763,-4.1607,-4.104,-4.0653,-4.0393,-3.9923,-3.9534,-3.9203,-3.8803,-3.8477,-3.8295,-3.737,-3.6884,-3.6773,-3.6054,-3.5579,-3.5504,-3.5489,-3.5489,-3.5489,-3.5489,-3.5489,-3.5489,-3.5489,-3.5489,-3.5489,-3.5489,-3.5489,-3.5489,-3.5489,-3.5489,-3.5504,-3.5148,-3.4552,0.0,-3.2958,0.0,0.0,0.0,0.0,0.0,0.0,0.0,0.0,-2.6501,-2.5295,-2.4013,-2.3667,-2.3406,-2.3144,-2.3135,-2.3057,-2.2803,-2.2362,-2.182,-2.1177,-2.0275,-1.9455,-1.8619,-1.7878,-1.7333,-1.7073,-1.6871,-1.6588,-1.6414,-1.6333,-1.6245,-1.6028,-1.5852,-1.5845,-1.5825,-1.5825,-1.5825,-1.5832,-1.6021,-1.613,-1.6218,-1.6683,-1.7232,-1.7598,-1.8164,-1.8819,-1.9271,-1.9554,-1.9737,-1.9745,-1.9554,-1.9279,-1.8827,-1.8172,-1.7885,-1.8164,-1.7707,-1.7052,-4.457,-4.457,-4.457,-4.457,-4.457,-4.457,-4.457,-4.457,-4.457,-4.4502,-4.435,-4.4215,-4.4074,-4.3889,-4.3889,-4.3849,-4.3679,-4.3679,-4.3695,-4.3662,-4.3621,-4.3115,-4.2319,-4.2154,-4.1625,-4.0723,-4.0317,-4.0075,-3.9891,-3.9266,-3.8898,-3.8688,-3.8253,-3.7846,0.0,0.0,0.0,0.0,-3.5489,-3.5489,-3.5489,-3.5489,-3.5489,-3.5489,-3.5489,0.0,-3.5489,-3.5489,-3.5489,-3.5489,-3.5489,0.0,0.0,0.0,0.0,0.0,0.0,0.0,0.0,0.0,0.0,0.0,-2.9422,-2.8457,-2.7534,-2.6207,-2.5041,-2.4444,-2.3851,-2.3503,-2.3416,-2.3222,-2.3057,-2.2794,-2.2539,-2.2176,-2.1642,-2.0916,-2.0192,-1.9455,-1.8711,-1.8071,-1.7621,-1.7333,-1.7059,-1.6878,-1.6885,-1.6784,-1.6494,-1.6109,-1.5825,-1.5825,-1.5825,-1.5825,-1.5825,-1.5832,-1.5933,-1.6123,-1.6319,-1.6595,-1.7066,-1.7426,-1.78,-1.8365,-1.8542,-1.8827,-1.892,-1.8643,-1.8357,-1.8272,-1.7628,-1.7254,-1.7426,-1.6965,-1.6414,-4.5466,0.0,-4.5145,-4.4925,0.0,-4.457,-4.457,-4.457,-4.457,-4.457,-4.457,-4.457,-4.457,-4.444,-4.4457,-4.4384,-4.4344,-4.4344,-4.4344,-4.4327,-4.427,-4.3879,-4.3265,-4.3107,-4.2673,-4.2048,-4.1748,-4.1504,-4.1287,-4.0785,-4.0465,-4.0141,-3.9435,-3.8867,-3.8552,-3.7298,-3.63,-3.5504,-3.5489,-3.5489,-3.5489,-3.5489,-3.5489,-3.5489,0.0,0.0,0.0,0.0,0.0,0.0,0.0,0.0,0.0,0.0,0.0,-3.4698,-3.4128,-3.3479,-3.2775,-3.1982,-3.1259,-3.0596,-2.9586,-2.8486,-2.729,-2.629,-2.5454,-2.4786,-2.4282,-2.3851,-2.3503,-2.3406,-2.3232,-2.2969,-2.2706,-2.2441,-2.1919,-2.1365,-2.0727,-2.0011,-1.9363,-1.8812,-1.845,-1.8172,-1.7893,-1.7621,-1.7535,-1.7434,-1.6958,-1.6487,-1.6211,-1.6021,-1.5832,-1.5825,-1.5825,-1.5825,-1.5927,-1.613,-1.6319,-1.6595,-1.6979,-1.7246,-1.7621,-1.7908,-1.8087,-1.8357,-1.8272,-1.7994,-1.7714,-1.7527,-1.7066,-1.669,-1.6683,-1.6407,-1.6224,-4.6447,-4.5889,-4.5889,-4.5551,-4.4959,-4.484,-4.4705,-4.457,0.0,0.0,0.0,-4.457,-4.457,-4.457,-4.457,-4.457,-4.457,-4.457,-4.457,-4.457,-4.444,-4.427,-4.4097,-4.3848,-4.3687,-4.3492,-4.3207,-4.2961,-4.2743,-4.2429,-4.2109,-4.1672,-4.0692,-3.9951,-3.94,-3.7855,-3.6601,-3.5764,-3.5549,-3.5489,-3.5489,-3.5489,-3.5489,-3.5489,-3.5489,-3.5489,-3.5489,-3.5489,-3.5489,-3.5489,-3.5489,-3.5489,-3.5504,-3.5359,-3.5082,-3.4765,-3.4249,-3.3632,-3.2917,-3.22,-3.1482,-3.0773,-2.9677,-2.8486,-2.7219,-2.6715,-2.6052,-2.52,-2.4775,-2.4368,-2.3754,-2.3677,-2.3493,-2.3232,-2.2969,-2.2706,-2.2274,-2.182,-2.1266,-2.0555,-2.0093,-1.9729,-1.9463,-1.9188,-1.892,-1.845,-1.8365,-1.8172,-1.7613,-1.7052,-1.6588,-1.6414,-1.6218,-1.5927,-1.592,-1.6015,-1.6021,-1.6319,-1.6595,-1.6777,-1.7066,-1.7448,-1.7628,-1.7621,-1.7807,-1.79,-1.7714,-1.7434,-1.7145,-1.6979,-1.6501,-1.613,-1.613,-1.613,-1.6123,-4.6735,-4.665,-4.665,-4.6583,-4.643,-4.5805,-4.5179,-4.4587,-4.457,-4.457,-4.457,-4.457,-4.457,-4.457,-4.457,-4.457,-4.457,-4.457,-4.457,0.0,-4.457,-4.444,-4.4236,-4.4179,-4.4138,-4.3981,-4.3772,-4.3595,-4.3432,-4.3113,-4.2743,-4.2302,-4.1836,-4.0884,-3.9575,-3.8766,-3.7797,-3.6562,-3.5839,-3.5489,-3.5489,-3.5489,-3.5489,-3.5489,-3.5489,-3.5489,-3.5489,-3.5489,-3.5489,-3.5489,-3.5489,-3.5489,-3.5504,-3.5439,-3.5294,-3.4868,-3.4683,-3.4278,-3.3521,-3.2931,-3.1982,-3.0836,-3.0088,-2.9221,-2.8099,-2.729,-2.6633,-2.603,-2.5443,-2.4871,-2.4454,-2.4206,-2.4024,-2.3754,-2.3309,-2.3047,-2.2969,-2.2441,-2.182,-2.1365,-2.0997,-2.0637,-2.0283,-2.0102,-1.9928,-1.9554,-1.9371,-1.918,-1.8542,-1.7628,-1.6979,-1.6885,-1.669,-1.6487,-1.6487,-1.6487,-1.6588,-1.6878,-1.6979,-1.7066,-1.7333,-1.7621,-1.7721,-1.7426,-1.7714,-1.7714,-1.7426,-1.6965,-1.6777,-1.669,-1.6305,-1.5927,-1.5927,-1.592,-1.5933,-4.7767,-4.7428,-4.7411,-4.7158,-4.6752,-4.643,-4.6092,-4.5788,-4.5771,-4.5314,-4.4587,-4.457,-4.457,-4.457,-4.457,-4.457,-4.457,-4.457,-4.457,-4.457,-4.457,-4.4514,-4.431,-4.431,-4.4196,-4.4114,-4.4039,-4.3848,-4.3713,-4.3476,-4.319,-4.2759,-4.219,-4.1396,-4.0386,-3.9542,-3.853,-3.7373,-3.649,-3.5863,-3.5504,-3.5489,-3.5489,-3.5489,-3.5489,-3.5489,-3.5489,-3.5489,-3.5489,-3.5489,-3.5489,-3.5489,-3.5489,-3.5489,-3.5359,-3.5082,-3.4831,-3.4496,-3.3937,-3.3072,-3.2128,-3.1136,-3.0546,-2.9921,-2.9143,-2.8179,-2.7278,-2.6622,-2.6207,-2.5611,-2.4956,-2.4786,-2.4615,-2.4166,-2.3917,-2.3667,-2.3493,-2.3154,-2.2618,-2.2078,-2.1811,-2.1633,-2.1096,-2.1096,-2.0925,-2.0456,-2.0184,-1.9828,-1.9654,-1.8904,-1.8172,-1.7721,-1.7246,-1.7044,-1.6951,-1.6958,-1.7145,-1.7527,-1.7621,-1.7714,-1.7986,-1.8265,-1.8172,-1.7978,-1.8079,-1.7893,-1.7426,-1.7138,-1.6958,-1.6588,-1.6305,-1.6028,-1.6028,-1.5927,-1.5825,-4.868,-4.8173,-4.8173,-4.775,-4.7039,-4.7039,-4.6955,-4.6786,-4.6769,-4.6143,-4.5145,-4.4908,-4.4739,-4.457,-4.457,-4.457,-4.457,-4.457,-4.457,-4.457,-4.457,-4.4497,-4.4367,-4.4367,-4.431,-4.4229,-4.4229,-4.408,-4.3889,-4.3789,-4.3552,-4.3113,-4.2445,-4.1817,-4.1256,-4.0324,-3.9308,-3.8126,-3.7277,-3.6379,-3.5549,-3.5489,-3.5489,-3.5489,-3.5489,-3.5489,-3.5489,-3.5489,-3.5489,-3.5489,-3.5489,-3.5489,-3.5489,-3.5489,-3.5439,-3.5213,-3.4949,-3.4616,-3.4059,-3.3129,-3.2273,-3.1556,-3.1123,-3.0622,-3.0023,-2.9209,-2.8247,-2.7371,-2.694,-2.6434,-2.5695,-2.5527,-2.5274,-2.485,-2.4605,-2.4368,-2.41,-2.3927,-2.3493,-2.2872,-2.2706,-2.252,-2.2087,-2.1909,-2.1731,-2.1275,-2.0916,-2.0654,-2.0564,-2.0192,-1.9546,-1.8904,-1.8164,-1.7699,-1.7606,-1.7707,-1.7893,-1.8357,-1.845,-1.8635,-1.9004,-1.9104,-1.9004,-1.8819,-1.8719,-1.8442,-1.7792,-1.752,-1.7333,-1.6965,-1.669,-1.6414,-1.6312,-1.6116,-1.5825,-4.8968,-4.8917,-4.8866,-4.8494,-4.7834,-4.78,-4.7445,-4.6887,-4.6802,-4.6735,-4.6498,-4.5906,-4.5246,-4.4621,-4.4604,-4.4604,-4.4604,-4.457,-4.457,-4.457,-4.457,-4.457,-4.4587,-4.457,-4.457,-4.4514,-4.4514,-4.4457,-4.4253,-4.4253,-4.3948,-4.3372,-4.2805,-4.2302,-4.1817,-4.126,-4.0106,-3.8492,-3.8035,-3.7065,-3.5579,-3.5489,-3.5489,-3.5489,-3.5489,-3.5489,-3.5489,-3.5489,-3.5489,-3.5489,-3.5489,-3.5489,-3.5489,-3.5489,-3.5439,-3.5228,-3.5148,-3.4868,-3.4128,-3.3339,-3.2775,-3.2345,-3.1776,-3.1259,-3.0685,-3.0368,-2.9586,-2.8407,-2.7822,-2.7325,-2.6517,-2.6362,-2.6196,-2.5801,-2.5369,-2.5115,-2.5031,-2.468,-2.4251,-2.3744,-2.3657,-2.3396,-2.2882,-2.2706,-2.253,-2.2097,-2.182,-2.1553,-2.1463,-2.1177,-2.0817,-2.0447,-1.9637,-1.8819,-1.8727,-1.8643,-1.8912,-1.9363,-1.9455,-1.9646,-2.0019,-2.011,-2.0019,-1.9637,-1.9546,-1.9271,-1.8627,-1.8172,-1.7994,-1.7621,-1.7254,-1.6878,-1.6595,-1.64,-1.6116,-4.9018,-4.9018,-4.9018,-4.8832,-4.8578,-4.8562,-4.8376,-4.8105,-4.8088,-4.7868,-4.7445,-4.7141,-4.6599,-4.5855,-4.5432,-4.5246,-4.5213,-4.479,-4.457,-4.457,-4.457,-4.457,-4.457,-4.457,-4.457,-4.457,-4.457,-4.457,-4.444,-4.4367,-4.408,-4.3654,-4.3218,-4.2883,-4.2461,-4.1882,-4.0664,-3.8914,-3.8477,-3.744,-3.5819,-3.5554,-3.5489,-3.5489,-3.5489,-3.5489,-3.5489,-3.5489,-3.5489,-3.5489,-3.5489,-3.5489,-3.5489,-3.5489,-3.5439,-3.5374,-3.5279,-3.4949,-3.4332,-3.3908,-3.3409,-3.2775,-3.2489,-3.1982,-3.1272,-3.1048,-3.0495,-2.9664,-2.8949,-2.8223,-2.7406,-2.7244,-2.7092,-2.6693,-2.629,-2.5946,-2.5946,-2.5611,-2.5115,-2.469,-2.4605,-2.4348,-2.3754,-2.3416,-2.3154,-2.2891,-2.2706,-2.253,-2.2353,-2.2078,-2.1811,-2.1553,-2.1006,-2.0374,-1.9828,-1.9646,-1.992,-2.0275,-2.0447,-2.0637,-2.1015,-2.1105,-2.1015,-2.0546,-2.0456,-2.0093,-1.9271,-1.9088,-1.8912,-1.8458,-1.7994,-1.7527,-1.7052,-1.6777,-1.6595,-4.9063,-4.9018,-4.9018,-4.9018,-4.9018,-4.9018,-4.9018,-4.9018,-4.9018,-4.8697,-4.824,-4.8223,-4.7919,-4.7327,-4.643,-4.6007,-4.5906,-4.5229,-4.4891,-4.4857,-4.4688,-4.457,-4.457,-4.457,-4.457,-4.457,-4.457,-4.457,-4.457,-4.444,-4.4236,-4.3948,-4.373,-4.3432,-4.3023,-4.2461,-4.1263,-3.9456,-3.8932,-3.78,-3.614,-3.5733,-3.5569,-3.5489,-3.5489,-3.5489,-3.5489,-3.5489,-3.5489,-3.5489,-3.5489,-3.5489,-3.5489,-3.5489,-3.5489,-3.5504,-3.5294,-3.5016,-3.4616,-3.4346,-3.3922,-3.3339,-3.3072,-3.2632,-3.2055,-3.1703,-3.1334,-3.0735,-3.0126,-2.9341,-2.8303,-2.8131,-2.7983,-2.7603,-2.7092,-2.6835,-2.6846,-2.6539,-2.6041,-2.5611,-2.5538,-2.5285,-2.4625,-2.41,-2.3754,-2.3744,-2.357,-2.3319,-2.3154,-2.2882,-2.2608,-2.2451,-2.2176,-2.1642,-2.0835,-2.0654,-2.0916,-2.1096,-2.1266,-2.1454,-2.182,-2.1909,-2.183,-2.1275,-2.1275,-2.0997,-2.0266,-2.0002,-1.9737,-1.9188,-1.8735,-1.8365,-1.7893,-1.7527,-1.7347,-4.9107,-4.9001,-4.9018,-4.9018,-4.9018,-4.9018,-4.9018,-4.9018,-4.9018,-4.8968,-4.89,-4.8917,-4.8917,-4.8731,-4.7394,-4.6769,-4.665,-4.5991,-4.5652,-4.5585,-4.4959,-4.4587,-4.457,-4.457,-4.457,-4.457,-4.457,-4.457,-4.457,-4.4587,-4.4497,-4.4293,-4.408,-4.3805,-4.3372,-4.2958,-4.1781,-3.9973,-3.9393,-3.8309,-3.6661,-3.6163,-3.5797,-3.5569,-3.5489,-3.5489,-3.5489,-3.5489,-3.5489,-3.5489,-3.5489,-3.5489,-3.5489,-3.5489,-3.5489,-3.5489,-3.5294,-3.5228,-3.5082,-3.4683,-3.4278,-3.4059,-3.3716,-3.3297,-3.2704,-3.2417,-3.2055,-3.1556,-3.1246,-3.0495,-2.9353,-2.9118,-2.8895,-2.8419,-2.7983,-2.7799,-2.7718,-2.7348,-2.694,-2.6517,-2.6362,-2.603,-2.5285,-2.4754,-2.4498,-2.4423,-2.4262,-2.411,-2.4024,-2.3754,-2.3406,-2.3144,-2.2882,-2.253,-2.182,-2.1553,-2.1651,-2.1909,-2.1998,-2.2097,-2.2264,-2.2353,-2.2176,-2.2097,-2.1909,-2.1544,-2.1087,-2.0727,-2.0283,-1.992,-1.9737,-1.9271,-1.8812,-1.8365,-1.8179,-4.9124,-4.9018,-4.9018,-4.9018,-4.9018,-4.9018,-4.9018,-4.9018,-4.9018,-4.9018,-4.9018,-4.9018,-4.9018,-4.8968,-4.846,-4.797,-4.7479,-4.6735,-4.6397,-4.6312,-4.5635,-4.5314,-4.5263,-4.4823,-4.457,-4.457,-4.457,-4.457,-4.457,-4.457,-4.4587,-4.4457,-4.4327,-4.408,-4.3706,-4.297,-4.1738,-4.0349,-3.9383,-3.8182,-3.677,-3.6414,-3.61,-3.5638,-3.5569,-3.5489,-3.5489,-3.5489,-3.5489,-3.5489,-3.5489,-3.5489,-3.5489,-3.5489,-3.5489,-3.5489,-3.5439,-3.5359,-3.5213,-3.503,-3.4817,-3.4481,-3.4278,-3.3922,-3.3479,-3.3058,-3.2632,-3.2345,-3.1982,-3.1394,-3.0872,-3.0266,-2.9664,-2.9118,-2.8803,-2.8554,-2.8474,-2.8155,-2.7846,-2.7336,-2.6928,-2.6362,-2.6113,-2.5622,-2.5464,-2.538,-2.5211,-2.5041,-2.4871,-2.4615,-2.4272,-2.3937,-2.3764,-2.359,-2.3135,-2.2441,-2.2264,-2.2441,-2.253,-2.2618,-2.2794,-2.2794,-2.2706,-2.253,-2.2353,-2.2087,-2.1722,-2.1365,-2.1006,-2.0736,-2.0456,-2.0283,-1.9828,-1.9371,-1.9188,-4.9168,-4.9063,-4.9001,-4.9018,-4.9018,-4.9018,-4.9018,-4.9018,-4.9018,-4.9018,-4.9018,-4.9018,-4.9018,-4.9018,-4.9018,-4.8765,-4.8223,-4.7496,-4.7158,-4.709,-4.6397,-4.594,-4.5652,-4.5179,-4.4807,-4.4604,-4.457,-4.457,-4.457,-4.457,-4.457,-4.457,-4.444,-4.4327,-4.4021,-4.3016,-4.1864,-4.0701,-3.9516,-3.8308,-3.7167,-3.6769,-3.6414,-3.5958,-3.5733,-3.5554,-3.5489,-3.5489,-3.5489,-3.5489,-3.5489,-3.5489,-3.5489,-3.5489,-3.5489,-3.5489,-3.5489,-3.5439,-3.5294,-3.5213,-3.5082,-3.4898,-3.4683,-3.4399,-3.4059,-3.3632,-3.3269,-3.3058,-3.2704,-3.2345,-3.1909,-3.1394,-3.0722,-2.9973,-2.9599,-2.9365,-2.9131,-2.8895,-2.8566,-2.8143,-2.7406,-2.701,-2.6846,-2.6528,-2.6385,-2.6313,-2.6041,-2.579,-2.5611,-2.5369,-2.5041,-2.4625,-2.4529,-2.4348,-2.4003,-2.3396,-2.296,-2.3057,-2.2969,-2.3057,-2.3057,-2.3144,-2.3057,-2.2969,-2.2794,-2.2618,-2.2353,-2.2087,-2.1722,-2.1445,-2.1275,-2.1186,-2.0736,-2.0365,-2.0184,-4.9212,-4.9168,-4.9063,-4.9001,-4.9018,-4.9018,-4.9018,-4.9018,-4.9018,-4.9018,-4.9018,-4.9018,-4.9018,-4.9018,-4.9018,-4.8984,-4.8781,-4.8206,-4.7936,-4.7851,-4.7141,-4.6464,-4.5923,-4.5703,-4.5196,-4.4604,-4.457,-4.457,-4.457,-4.457,-4.457,-4.457,-4.457,-4.4457,-4.4293,-4.3253,-4.2235,-4.1165,-3.9952,-3.8776,-3.778,-3.7163,-3.6754,-3.6476,-3.6022,-3.5718,-3.5554,-3.5489,-3.5489,-3.5489,-3.5489,-3.5489,-3.5489,-3.5489,-3.5489,-3.5489,-3.5489,-3.5504,-3.5424,-3.5294,-3.5213,-3.5148,-3.5016,-3.4817,-3.4616,-3.4278,-3.3991,-3.377,-3.3479,-3.3129,-3.2775,-3.2417,-3.1836,-3.0911,-3.0305,-3.0011,-2.9779,-2.9521,-2.9263,-2.8791,-2.8143,-2.7799,-2.773,-2.7418,-2.7185,-2.7103,-2.6846,-2.6528,-2.6517,-2.6207,-2.5706,-2.5369,-2.5285,-2.5105,-2.4775,-2.4358,-2.3927,-2.3667,-2.3493,-2.3406,-2.3232,-2.3222,-2.3144,-2.3057,-2.2969,-2.2794,-2.2706,-2.2441,-2.2353,-2.2078,-2.2087,-2.1909,-2.1553,-2.1186,-2.1087,-4.9513,-4.9229,-4.9168,-4.9063,-4.9001,-4.9018,-4.9018,-4.9018,-4.9018,-4.9018,-4.9018,-4.9018,-4.9018,-4.9018,-4.9018,-4.9018,-4.8984,-4.8748,-4.8663,-4.8511,-4.7885,-4.7445,-4.7056,-4.6177,-4.5314,-4.4688,-4.457,-4.457,-4.457,-4.457,-4.457,-4.457,-4.457,-4.457,-4.4446,-4.306,-4.2016,-4.1455,-3.9923,-3.8723,-3.8017,-3.761,-3.7194,-3.6662,-3.6352,-3.6115,-3.5861,-3.5619,-3.5489,-3.5489,-3.5489,-3.5489,-3.5489,-3.5489,-3.5489,-3.5489,-3.5489,-3.5489,-3.5489,-3.5424,-3.5439,-3.5359,-3.5213,-3.5082,-3.503,-3.4698,-3.4481,-3.4414,-3.4059,-3.3687,-3.3479,-3.3058,-3.2417,-3.1421,-3.0986,-3.0609,-3.0394,-2.9921,-2.9534,-2.9263,-2.8779,-2.8542,-2.8462,-2.8235,-2.8087,-2.8007,-2.7661,-2.7418,-2.7325,-2.701,-2.661,-2.6196,-2.6113,-2.5946,-2.5538,-2.5189,-2.4935,-2.4423,-2.4176,-2.3754,-2.358,-2.3406,-2.3319,-2.3232,-2.3057,-2.2969,-2.2882,-2.2794,-2.2706,-2.2618,-2.253,-2.2353,-2.2176,-2.1998,-2.1811,-4.9691,-4.929,-4.9229,-4.9107,-4.9001,-4.9018,-4.9018,-4.9018,-4.9018,-4.9018,-4.9018,-4.9018,-4.9018,-4.9018,-4.9018,-4.9018,-4.9018,-4.9018,-4.9018,-4.8951,-4.8578,-4.8189,-4.7767,-4.6397,-4.5483,-4.5026,-4.4705,-4.457,-4.457,-4.457,-4.457,-4.457,-4.457,-4.457,-4.4485,-4.3221,-4.2299,-4.1715,-4.0337,-3.9194,-3.852,-3.8075,-3.7626,-3.7134,-3.6769,-3.6538,-3.6163,-3.5925,-3.5668,-3.5604,-3.5569,-3.5504,-3.5489,-3.5489,-3.5489,-3.5489,-3.5489,-3.5489,-3.5489,-3.5489,-3.5489,-3.5489,-3.5359,-3.5294,-3.5228,-3.503,-3.4898,-3.4831,-3.4601,-3.4332,-3.4128,-3.3701,-3.3129,-3.2489,-3.179,-3.1211,-3.0836,-3.0228,-2.9921,-2.9586,-2.9263,-2.9106,-2.8961,-2.8882,-2.8736,-2.8657,-2.8395,-2.8223,-2.8063,-2.7822,-2.7418,-2.7092,-2.6928,-2.6693,-2.6456,-2.6124,-2.5852,-2.5359,-2.485,-2.4358,-2.3937,-2.3851,-2.3764,-2.3493,-2.3406,-2.3329,-2.3232,-2.3057,-2.2969,-2.2969,-2.2882,-2.2794,-2.2618,-2.253,-2.2264,-4.9767,-4.9488,-4.929,-4.9107,-4.9001,-4.9018,-4.9018,-4.9018,-4.9018,-4.9018,-4.9018,-4.9018,-4.9018,-4.9018,-4.9018,-4.9018,-4.9018,-4.9018,-4.9018,-4.9018,-4.8883,-4.8578,-4.7784,-4.6515,-4.5821,-4.5517,-4.4908,-4.4587,-4.457,-4.457,-4.457,-4.457,-4.457,-4.457,-4.4418,-4.3664,-4.2762,-4.1963,-4.0955,-3.9951,-3.9018,-3.8455,-3.8001,-3.7685,-3.7238,-3.6876,-3.66,-3.6289,-3.6006,-3.5752,-3.5539,-3.5489,-3.5489,-3.5489,-3.5489,-3.5489,-3.5489,-3.5489,-3.5489,-3.5489,-3.5489,-3.5489,-3.5489,-3.5489,-3.5424,-3.5294,-3.5228,-3.5148,-3.5016,-3.4817,-3.4698,-3.4346,-3.3991,-3.3632,-3.2588,-3.173,-3.1048,-3.0533,-3.0228,-3.0075,-2.9741,-2.9419,-2.9431,-2.9275,-2.9131,-2.9131,-2.8961,-2.8791,-2.8712,-2.8474,-2.8143,-2.7903,-2.7661,-2.751,-2.7278,-2.6928,-2.667,-2.6423,-2.5841,-2.5189,-2.4444,-2.4282,-2.411,-2.3927,-2.3754,-2.358,-2.3503,-2.3406,-2.3232,-2.3144,-2.3144,-2.3144,-2.2969,-2.2794,-2.2706,-5.0097,-4.9649,-4.9488,-4.9246,-4.9001,-4.9018,-4.9018,-4.9018,-4.9018,-4.9018,-4.9018,-4.9018,-4.9018,-4.9018,-4.9018,-4.9018,-4.9018,-4.9018,-4.9018,-4.9018,-4.9018,-4.8612,-4.7885,-4.6972,-4.6227,-4.5703,-4.5043,-4.457,-4.457,-4.457,-4.457,-4.457,-4.457,-4.457,-4.4451,-4.377,-4.2939,-4.2105,-4.1312,-4.0341,-3.9404,-3.8931,-3.8511,-3.8001,-3.7669,-3.7314,-3.7013,-3.6461,-3.5976,-3.5597,-3.5509,-3.5489,-3.5489,-3.5489,-3.5489,-3.5489,-3.5489,-3.5489,-3.5489,-3.5489,-3.5489,-3.5489,-3.5489,-3.5489,-3.5489,-3.5424,-3.5424,-3.5359,-3.5228,-3.5082,-3.503,-3.475,-3.4332,-3.377,-3.2931,-3.2141,-3.1569,-3.1048,-3.0685,-3.0546,-3.0139,-2.9985,-2.9831,-2.9689,-2.9636,-2.9534,-2.9365,-2.9263,-2.9118,-2.8961,-2.8633,-2.8633,-2.8474,-2.8315,-2.8155,-2.773,-2.7476,-2.7395,-2.6823,-2.6185,-2.5359,-2.469,-2.4519,-2.4337,-2.4176,-2.41,-2.3937,-2.3851,-2.3677,-2.3503,-2.3416,-2.3406,-2.3232,-2.2969,-2.2969,-5.0401,-4.9884,-4.9649,-4.9367,-4.9124,-4.9001,-4.9018,-4.9018,-4.9018,-4.9018,-4.9018,-4.9018,-4.9018,-4.9018,-4.9018,-4.9018,-4.9018,-4.9018,-4.9018,-4.9018,-4.9018,-4.8765,-4.8274,-4.7614,-4.6887,-4.6143,-4.5399,-4.4908,-4.4621,-4.457,-4.457,-4.457,-4.457,-4.457,-4.457,-4.4164,-4.3466,-4.2686,-4.189,-4.099,-4.0091,-3.9458,-3.8969,-3.8528,-3.8205,-3.7844,-3.7254,-3.6646,-3.6054,-3.5612,-3.5494,-3.5489,-3.5489,-3.5489,-3.5489,-3.5489,-3.5489,-3.5489,-3.5489,-3.5489,-3.5489,-3.5489,-3.5489,-3.5489,-3.5489,-3.5489,-3.5489,-3.5489,-3.5374,-3.5359,-3.5294,-3.5096,-3.4683,-3.4196,-3.3563,-3.2846,-3.2128,-3.1556,-3.1272,-3.0973,-3.0685,-3.0394,-3.0305,-3.0088,-2.9934,-2.9856,-2.9689,-2.9599,-2.9521,-2.9365,-2.9197,-2.9118,-2.8961,-2.8803,-2.8645,-2.8383,-2.8063,-2.7983,-2.7649,-2.6928,-2.6268,-2.5443,-2.5189,-2.502,-2.4775,-2.4615,-2.4529,-2.4358,-2.41,-2.3927,-2.3841,-2.3667,-2.3493,-2.3329,-2.3319,-5.0677,-5.0246,-4.9884,-4.953,-4.9212,-4.9107,-4.9063,-4.9001,-4.9018,-4.9018,-4.9018,-4.9018,-4.9018,-4.9018,-4.9018,-4.9018,-4.9018,-4.9018,-4.9018,-4.9018,-4.9018,-4.8934,-4.8815,-4.8122,-4.7394,-4.6667,-4.6024,-4.528,-4.4739,-4.457,-4.457,-4.457,-4.457,-4.457,-4.457,-4.4502,-4.4147,-4.328,-4.2449,-4.16,-4.0807,-3.9993,-3.9379,-3.904,-3.8639,-3.8116,-3.7417,-3.6831,-3.6321,-3.5646,-3.5574,-3.5554,-3.5489,-3.5489,-3.5489,-3.5489,-3.5489,-3.5489,-3.5489,-3.5489,-3.5489,-3.5489,-3.5489,-3.5489,-3.5489,-3.5489,-3.5489,-3.5489,-3.5489,-3.5504,-3.5439,-3.5294,-3.503,-3.4683,-3.4332,-3.377,-3.2988,-3.22,-3.1703,-3.1629,-3.1185,-3.0836,-3.0685,-3.0457,-3.0152,-3.0011,-2.9856,-2.9779,-2.9689,-2.9534,-2.9443,-2.9431,-2.9275,-2.9209,-2.9118,-2.8961,-2.8724,-2.8566,-2.8155,-2.7592,-2.7185,-2.661,-2.6207,-2.5884,-2.5706,-2.5454,-2.5369,-2.5115,-2.469,-2.4433,-2.4358,-2.4186,-2.3917,-2.3764,-2.3677,-5.091,-5.0492,-5.004,-4.975,-4.959,-4.929,-4.9168,-4.9168,-4.9063,-4.9001,-4.9018,-4.9018,-4.9018,-4.9018,-4.9018,-4.9018,-4.9018,-4.9018,-4.9018,-4.9018,-4.9018,-4.9018,-4.8866,-4.8308,-4.7564,-4.6836,-4.6075,-4.5331,-4.4773,-4.4621,-4.457,-4.457,-4.457,-4.457,-4.457,-4.4553,-4.4198,-4.342,-4.2638,-4.1859,-4.1098,-4.0253,-3.9642,-3.9362,-3.886,-3.8303,-3.7685,-3.727,-3.6831,-3.6321,-3.5958,-3.5653,-3.5554,-3.5489,-3.5489,-3.5504,-3.5504,-3.5504,-3.5489,-3.5489,-3.5489,-3.5489,-3.5489,-3.5489,-3.5489,-3.5489,-3.5489,-3.5489,-3.5489,-3.5489,-3.5504,-3.5294,-3.5162,-3.503,-3.4765,-3.4481,-3.4128,-3.3199,-3.2561,-3.2345,-3.185,-3.1347,-3.1198,-3.0836,-3.0533,-3.0241,-3.0011,-2.9946,-2.9856,-2.9702,-2.9689,-2.9599,-2.9599,-2.9456,-2.9378,-2.9287,-2.904,-2.8895,-2.8566,-2.8327,-2.7914,-2.7592,-2.7115,-2.6787,-2.6528,-2.6362,-2.6196,-2.5874,-2.5538,-2.5285,-2.4946,-2.4775,-2.4605,-2.4358,-2.412,-5.1331,-5.0982,-5.0474,-5.0097,-4.9884,-4.9573,-4.935,-4.9229,-4.9107,-4.9063,-4.9001,-4.9018,-4.9018,-4.9018,-4.9018,-4.9018,-4.9018,-4.9018,-4.9018,-4.9018,-4.9018,-4.9018,-4.8968,-4.8612,-4.8037,-4.7293,-4.6583,-4.5821,-4.5229,-4.4756,-4.457,-4.457,-4.457,-4.457,-4.457,-4.457,-4.4384,-4.3842,-4.2844,-4.2083,-4.1538,-4.0543,-3.9849,-3.9484,-3.904,-3.8528,-3.796,-3.7642,-3.7194,-3.6754,-3.6321,-3.6022,-3.5797,-3.5733,-3.5668,-3.5604,-3.5604,-3.5554,-3.5489,-3.5489,-3.5489,-3.5489,-3.5489,-3.5489,-3.5489,-3.5489,-3.5489,-3.5489,-3.5489,-3.5489,-3.5504,-3.5424,-3.5359,-3.5294,-3.5096,-3.4964,-3.475,-3.3908,-3.3199,-3.3058,-3.2561,-3.2128,-3.1776,-3.1347,-3.0911,-3.0685,-3.0152,-3.0088,-2.9934,-2.9856,-2.9779,-2.9779,-2.9779,-2.9702,-2.9702,-2.9534,-2.9341,-2.9197,-2.8961,-2.8803,-2.8633,-2.8315,-2.7995,-2.7672,-2.7348,-2.7092,-2.6928,-2.6622,-2.6385,-2.603,-2.5779,-2.5516,-2.5274,-2.5031,-2.4786,-5.179,-5.1521,-5.091,-5.0492,-5.0228,-4.9884,-4.959,-4.9273,-4.9212,-4.9124,-4.9001,-4.9018,-4.9018,-4.9018,-4.9018,-4.9018,-4.9018,-4.9018,-4.9018,-4.9018,-4.9018,-4.9018,-4.8984,-4.8866,-4.8629,-4.802,-4.7107,-4.6346,-4.5602,-4.501,-4.4587,-4.457,-4.457,-4.457,-4.457,-4.457,-4.4519,-4.4265,-4.3014,-4.2269,-4.1965,-4.0849,-3.9934,-3.9573,-3.9272,-3.8805,-3.8303,-3.796,-3.7551,-3.7087,-3.6952,-3.6662,-3.6352,-3.61,-3.5958,-3.5831,-3.5816,-3.5767,-3.5604,-3.5554,-3.5554,-3.5489,-3.5489,-3.5489,-3.5489,-3.5489,-3.5489,-3.5489,-3.5489,-3.5489,-3.5489,-3.5489,-3.5489,-3.5424,-3.5359,-3.5294,-3.5082,-3.4452,-3.4113,-3.3839,-3.3339,-3.2846,-3.2417,-3.1982,-3.1556,-3.1048,-3.0609,-3.0228,-3.0088,-3.0011,-2.9934,-2.9779,-2.9779,-2.9779,-2.9792,-2.9702,-2.9521,-2.9431,-2.9287,-2.9287,-2.9209,-2.9052,-2.8724,-2.8407,-2.8075,-2.7914,-2.7753,-2.7522,-2.7185,-2.6846,-2.6599,-2.6505,-2.6102,-2.5706,-2.5538,-5.203,-5.1772,-5.1158,-5.0857,-5.064,-5.0097,-4.975,-4.959,-4.9333,-4.9107,-4.9001,-4.9018,-4.9018,-4.9018,-4.9018,-4.9018,-4.9018,-4.9018,-4.9018,-4.9018,-4.9018,-4.9018,-4.9018,-4.9001,-4.89,-4.8511,-4.7513,-4.643,-4.5754,-4.4993,-4.4604,-4.457,-4.457,-4.457,-4.457,-4.457,-4.457,-4.4367,-4.3098,-4.2337,-4.1965,-4.0916,-3.9969,-3.9677,-3.9484,-3.9148,-3.875,-3.8415,-3.8091,-3.777,-3.7626,-3.7389,-3.7134,-3.6708,-3.6399,-3.6196,-3.6133,-3.6006,-3.591,-3.5718,-3.5703,-3.5638,-3.5539,-3.5489,-3.5489,-3.5489,-3.5489,-3.5489,-3.5489,-3.5489,-3.5489,-3.5489,-3.5489,-3.5489,-3.5424,-3.5424,-3.5359,-3.5096,-3.475,-3.4549,-3.3977,-3.3479,-3.3058,-3.2632,-3.2128,-3.1629,-3.1123,-3.0672,-3.0444,-3.0228,-3.0011,-2.9934,-2.9779,-2.9779,-2.9779,-2.9779,-2.9689,-2.9689,-2.9611,-2.9611,-2.9611,-2.9624,-2.9456,-2.9052,-2.8724,-2.8554,-2.8407,-2.8327,-2.8075,-2.7661,-2.7487,-2.7406,-2.701,-2.661,-2.6351,-5.2333,-5.2162,-5.1654,-5.128,-5.0946,-5.0474,-5.004,-4.9691,-4.9471,-4.9229,-4.9063,-4.9018,-4.9018,-4.9018,-4.9018,-4.9018,-4.9018,-4.9018,-4.9018,-4.9018,-4.9018,-4.9018,-4.9018,-4.9018,-4.9018,-4.8595,-4.7547,-4.665,-4.6177,-4.5111,-4.4637,-4.457,-4.457,-4.457,-4.457,-4.457,-4.457,-4.4248,-4.3149,-4.2286,-4.2134,-4.0832,-4.007,-3.9833,-3.9746,-3.9484,-3.911,-3.8821,-3.86,-3.8303,-3.8148,-3.8033,-3.7844,-3.7535,-3.7118,-3.6677,-3.6507,-3.6321,-3.607,-3.5879,-3.5688,-3.5703,-3.5604,-3.5489,-3.5489,-3.5489,-3.5489,-3.5489,-3.5489,-3.5489,-3.5489,-3.5489,-3.5489,-3.5489,-3.5489,-3.5489,-3.5489,-3.5424,-3.5228,-3.5045,-3.4616,-3.4128,-3.3701,-3.3199,-3.2704,-3.22,-3.1703,-3.1259,-3.0885,-3.0596,-3.0305,-3.0011,-2.9856,-2.9792,-2.9792,-2.9779,-2.9779,-2.9779,-2.9779,-2.9779,-2.9779,-2.9779,-2.9702,-2.9546,-2.9287,-2.9118,-2.8973,-2.8736,-2.8566,-2.8395,-2.8303,-2.8143,-2.7834,-2.7592,-2.7255,-5.2627,-5.2526,-5.2114,-5.1705,-5.1314,-5.0839,-5.0363,-4.9884,-4.9649,-4.9411,-4.9124,-4.9063,-4.9063,-4.9063,-4.9001,-4.9018,-4.9018,-4.9018,-4.9018,-4.9018,-4.9018,-4.9018,-4.9018,-4.8984,-4.89,-4.846,-4.7479,-4.6786,-4.643,-4.528,-4.4671,-4.457,-4.457,-4.457,-4.457,-4.457,-4.457,-4.4113,-4.3115,-4.2286,-4.1593,-4.0747,-4.0037,-3.9901,-3.9884,-3.9746,-3.9432,-3.9202,-3.9023,-3.8805,-3.8639,-3.8544,-3.8544,-3.8359,-3.7985,-3.737,-3.7058,-3.6708,-3.6399,-3.6006,-3.5816,-3.5831,-3.5604,-3.5489,-3.5489,-3.5489,-3.5489,-3.5489,-3.5489,-3.5489,-3.5489,-3.5489,-3.5489,-3.5489,-3.5489,-3.5489,-3.5489,-3.5489,-3.5489,-3.5228,-3.503,-3.4683,-3.4196,-3.377,-3.3269,-3.2789,-3.2286,-3.1776,-3.1408,-3.0973,-3.0685,-3.0228,-2.9934,-2.9869,-2.9792,-2.9779,-2.9779,-2.9779,-2.9779,-2.9779,-2.9779,-2.9779,-2.9702,-2.9702,-2.9624,-2.9378,-2.93,-2.9221,-2.9052,-2.8961,-2.8949,-2.8791,-2.8474,-2.8235,-2.7983,-5.2912,-5.2717,-5.2315,-5.203,-5.1754,-5.1228,-5.0694,-5.0285,-4.9982,-4.9708,-4.9428,-4.929,-4.9168,-4.9168,-4.9063,-4.9001,-4.9018,-4.9018,-4.9018,-4.9018,-4.9018,-4.9018,-4.9018,-4.9018,-4.8629,-4.8173,-4.7259,-4.6836,-4.638,-4.5229,-4.4604,-4.457,-4.457,-4.457,-4.457,-4.457,-4.457,-4.4299,-4.3064,-4.1694,-4.0646,-4.0223,-4.0071,-3.9952,-3.9884,-3.9833,-3.9625,-3.9468,-3.9362,-3.9362,-3.9169,-3.9098,-3.9098,-3.8952,-3.8805,-3.8399,-3.7886,-3.7194,-3.6923,-3.6399,-3.6085,-3.5958,-3.5668,-3.5554,-3.5489,-3.5489,-3.5489,-3.5489,-3.5489,-3.5489,-3.5489,-3.5489,-3.5489,-3.5489,-3.5489,-3.5489,-3.5489,-3.5489,-3.5489,-3.5489,-3.5228,-3.503,-3.4683,-3.4264,-3.377,-3.3368,-3.2874,-3.2359,-3.185,-3.1421,-3.0986,-3.0533,-3.0075,-2.9934,-2.9869,-2.9869,-2.9779,-2.9779,-2.9792,-2.9779,-2.9779,-2.9779,-2.9779,-2.9779,-2.9702,-2.9702,-2.9624,-2.9534,-2.9534,-2.9443,-2.9275,-2.9197,-2.9052,-2.8803,-2.8554,-5.3042,-5.2893,-5.2563,-5.2268,-5.1969,-5.1503,-5.0982,-5.0564,-5.0285,-4.9942,-4.9649,-4.953,-4.9411,-4.9229,-4.9124,-4.9063,-4.9001,-4.9018,-4.9018,-4.9018,-4.9018,-4.9018,-4.9018,-4.8968,-4.8612,-4.7834,-4.7175,-4.6498,-4.5991,-4.5246,-4.457,-4.457,-4.457,-4.457,-4.457,-4.457,-4.457,-4.4147,-4.3064,-4.1559,-4.0476,-4.0087,-4.0087,-3.9986,-4.0037,-3.9935,-3.9833,-3.9746,-3.9694,-3.9625,-3.9504,-3.9487,-3.9451,-3.9362,-3.9202,-3.904,-3.8455,-3.7902,-3.7405,-3.6831,-3.6399,-3.6085,-3.5846,-3.5604,-3.5554,-3.5489,-3.5489,-3.5489,-3.5489,-3.5489,-3.5489,-3.5489,-3.5489,-3.5489,-3.5489,-3.5489,-3.5489,-3.5489,-3.5489,-3.5489,-3.5489,-3.5228,-3.503,-3.475,-3.4332,-3.3922,-3.3507,-3.3058,-3.2417,-3.1703,-3.1272,-3.0761,-3.0381,-3.0088,-2.9934,-2.9869,-2.9779,-2.9779,-2.9792,-2.9792,-2.9779,-2.9779,-2.9779,-2.9779,-2.9779,-2.9779,-2.9779,-2.9779,-2.9702,-2.9611,-2.9611,-2.9534,-2.9378,-2.9263,-2.8949,-5.3164,-5.3042,-5.2743,-5.2472,-5.2162,-5.1822,-5.1367,-5.0874,-5.0657,-5.038,-4.9982,-4.9825,-4.9573,-4.935,-4.9229,-4.9107,-4.9063,-4.9001,-4.9018,-4.9018,-4.9018,-4.9018,-4.9018,-4.8951,-4.8511,-4.7648,-4.7073,-4.6295,-4.5483,-4.4891,-4.457,-4.457,-4.457,-4.457,-4.457,-4.4519,-4.4418,-4.3656,-4.2574,-4.1322,-4.0307,-4.0087,-4.0087,-4.0087,-4.007,-4.002,-3.9986,-3.9935,-3.9884,-3.9833,-3.9816,-3.9764,-3.9781,-3.9694,-3.9537,-3.9379,-3.8914,-3.8528,-3.7918,-3.7314,-3.6769,-3.6336,-3.5943,-3.5638,-3.5489,-3.5489,-3.5489,-3.5489,-3.5489,-3.5489,-3.5489,-3.5489,-3.5489,-3.5489,-3.5489,-3.5489,-3.5489,-3.5489,-3.5489,-3.5489,-3.5489,-3.5439,-3.5228,-3.5162,-3.4883,-3.4481,-3.4128,-3.3701,-3.2988,-3.2128,-3.1629,-3.1198,-3.0761,-3.0381,-3.0241,-3.0088,-3.0011,-2.9856,-2.9869,-2.9792,-2.9792,-2.9779,-2.9779,-2.9779,-2.9779,-2.9779,-2.9779,-2.9779,-2.9779,-2.9779,-2.9702,-2.9779,-2.9689,-2.9509,-2.9341,-5.3206,-5.3164,-5.2912,-5.2717,-5.2499,-5.2209,-5.184,-5.1418,-5.1228,-5.091,-5.0474,-5.008,-4.9825,-4.9649,-4.9411,-4.9229,-4.9168,-4.9063,-4.9001,-4.9018,-4.9018,-4.9018,-4.8984,-4.8765,-4.8257,-4.7141,-4.6667,-4.5906,-4.5026,-4.4739,-4.457,-4.457,-4.457,-4.457,-4.4519,-4.4418,-4.3758,-4.2929,-4.1863,-4.1052,-4.0324,-4.0087,-4.0087,-4.0087,-4.0087,-4.007,-4.007,-4.007,-4.002,-4.0037,-4.0037,-4.0037,-3.9986,-3.9901,-3.9798,-3.959,-3.9379,-3.8931,-3.8415,-3.7711,-3.7074,-3.6585,-3.607,-3.5623,-3.5554,-3.5489,-3.5489,-3.5489,-3.5489,-3.5489,-3.5489,-3.5489,-3.5489,-3.5489,-3.5489,-3.5489,-3.5489,-3.5489,-3.5489,-3.5489,-3.5504,-3.5439,-3.5439,-3.5294,-3.5162,-3.4817,-3.4414,-3.3991,-3.3409,-3.2632,-3.2128,-3.1629,-3.1198,-3.0836,-3.0622,-3.0394,-3.0075,-2.9934,-2.9869,-2.9869,-2.9779,-2.9779,-2.9779,-2.9779,-2.9779,-2.9779,-2.9779,-2.9779,-2.9779,-2.9779,-2.9779,-2.9779,-2.9779,-2.9599,-2.9509,-5.3206,-5.3164,-5.2999,-5.285,-5.2698,-5.2462,-5.2132,-5.1889,-5.169,-5.1331,-5.0839,-5.0457,-5.0154,-4.9825,-4.9649,-4.9411,-4.9229,-4.9046,-4.9001,-4.9018,-4.9018,-4.9018,-4.89,-4.846,-4.7784,-4.6887,-4.6363,-4.5669,-4.4722,-4.457,-4.457,-4.457,-4.457,-4.457,-4.4502,-4.4079,-4.3234,-4.2455,-4.1576,-4.0832,-4.024,-4.0087,-4.0087,-4.0087,-4.0087,-4.0087,-4.007,-4.007,-4.0087,-4.0087,-4.0087,-4.0087,-4.0087,-4.0037,-3.9952,-3.9781,-3.9537,-3.9272,-3.8805,-3.8042,-3.7358,-3.6585,-3.5976,-3.5578,-3.5589,-3.5554,-3.5489,-3.5489,-3.5489,-3.5489,-3.5489,-3.5489,-3.5489,-3.5489,-3.5489,-3.5489,-3.5489,-3.5489,-3.5489,-3.5489,-3.5489,-3.5489,-3.5489,-3.5489,-3.5294,-3.503,-3.4683,-3.4196,-3.3701,-3.3199,-3.2704,-3.2128,-3.1703,-3.1286,-3.0986,-3.0609,-3.0139,-2.9998,-2.9934,-2.9869,-2.9792,-2.9779,-2.9779,-2.9779,-2.9779,-2.9779,-2.9779,-2.9779,-2.9779,-2.9779,-2.9779,-2.9779,-2.9702,-2.9689,-2.9549,-5.3206,-5.3164,-5.3103,-5.2999,-5.285,-5.2645,-5.248,-5.2275,-5.215,-5.1722,-5.1175,-5.0857,-5.0474,-5.0154,-4.9825,-4.959,-4.929,-4.9107,-4.9001,-4.9018,-4.9018,-4.9018,-4.8765,-4.8291,-4.7597,-4.6786,-4.6058,-4.5331,-4.4604,-4.457,-4.457,-4.457,-4.457,-4.457,-4.4333,-4.3572,-4.2794,-4.2236,-4.1322,-4.0713,-4.0104,-4.0087,-4.0087,-4.0087,-4.0087,-4.0087,-4.0087,-4.0087,-4.0087,-4.0087,-4.0087,-4.0087,-4.0087,-4.0087,-4.0037,-3.9884,-3.9694,-3.9484,-3.8969,-3.8214,-3.7417,-3.6646,-3.6054,-3.5785,-3.5672,-3.5604,-3.5489,-3.5489,-3.5489,-3.5489,-3.5489,-3.5489,-3.5489,-3.5489,-3.5489,-3.5489,-3.5489,-3.5489,-3.5489,-3.5489,-3.5489,-3.5489,-3.5489,-3.5489,-3.5359,-3.5228,-3.5016,-3.4616,-3.4264,-3.377,-3.3269,-3.2775,-3.22,-3.1776,-3.136,-3.0898,-3.052,-3.0228,-3.0088,-2.9946,-2.9869,-2.9869,-2.9779,-2.9779,-2.9779,-2.9779,-2.9779,-2.9779,-2.9779,-2.9779,-2.9779,-2.9779,-2.9779,-2.9677,-2.9591,-5.3206,-5.3206,-5.3206,-5.3103,-5.2999,-5.2868,-5.2717,-5.2563,-5.248,-5.215,-5.164,-5.1175,-5.0839,-5.0474,-4.9982,-4.9649,-4.9428,-4.9124,-4.9018,-4.9018,-4.9018,-4.9018,-4.8646,-4.8105,-4.7293,-4.6735,-4.5923,-4.5145,-4.4587,-4.457,-4.457,-4.457,-4.457,-4.457,-4.4434,-4.3081,-4.2354,-4.21,-4.0899,-4.029,-4.0121,-4.0087,-4.0087,-4.0087,-4.0087,-4.0087,-4.0087,-4.0087,-4.0087,-4.0087,-4.0087,-4.0087,-4.0087,-4.0087,-4.0037,-3.9952,-3.9884,-3.9625,-3.9255,-3.81,-3.7358,-3.6785,-3.6258,-3.5943,-3.5767,-3.5604,-3.5489,-3.5489,-3.5489,-3.5489,-3.5489,-3.5489,-3.5489,-3.5489,-3.5489,-3.5489,-3.5489,-3.5489,-3.5489,-3.5489,-3.5489,-3.5489,-3.5489,-3.5489,-3.5359,-3.5279,-3.5213,-3.5016,-3.4683,-3.4278,-3.3839,-3.3339,-3.2775,-3.2273,-3.1776,-3.1272,-3.0898,-3.052,-3.0228,-3.0088,-2.9946,-2.9869,-2.9856,-2.9779,-2.9779,-2.9779,-2.9779,-2.9779,-2.9779,-2.9779,-2.9779,-2.9779,-2.9779,-2.9666,-2.944,-5.3206,-5.3206,-5.3206,-5.3164,-5.3103,-5.2999,-5.2893,-5.2806,-5.2618,-5.2246,-5.1858,-5.1487,-5.1035,-5.0585,-5.008,-4.9708,-4.9488,-4.9185,-4.9018,-4.9018,-4.8968,-4.8646,-4.824,-4.7547,-4.6802,-4.6058,-4.5348,-4.4942,-4.457,-4.457,-4.457,-4.457,-4.457,-4.457,-4.4164,-4.3166,-4.2303,-4.2016,-4.0967,-4.0087,-4.0087,-4.0087,-4.0087,-4.0087,-4.0087,-4.0087,-4.0087,-4.0087,-4.0087,-4.0087,-4.0087,-4.0087,-4.0087,-4.0087,-4.0087,-3.9986,-3.9935,-3.9625,-3.9077,-3.827,-3.7653,-3.7118,-3.6585,-3.6226,-3.5973,-3.5703,-3.5604,-3.5504,-3.5504,-3.5504,-3.5489,-3.5489,-3.5489,-3.5489,-3.5489,-3.5489,-3.5489,-3.5489,-3.5489,-3.5489,-3.5489,-3.5489,-3.5489,-3.5489,-3.5424,-3.5359,-3.5294,-3.5213,-3.5016,-3.4683,-3.4346,-3.3908,-3.3339,-3.2846,-3.2273,-3.1776,-3.1272,-3.0898,-3.0596,-3.0381,-3.0241,-3.0011,-2.9946,-2.9869,-2.9856,-2.9779,-2.9779,-2.9779,-2.9779,-2.9779,-2.9779,-2.9779,-2.9779,-2.9515,-2.9126,-5.3206,-5.3206,-5.3206,-5.3206,-5.3164,-5.3103,-5.3017,-5.2912,-5.269,-5.2387,-5.2005,-5.1658,-5.1211,-5.0712,-5.0211,-4.9825,-4.9488,-4.9246,-4.9001,-4.8968,-4.8697,-4.8359,-4.7784,-4.6921,-4.6278,-4.5568,-4.501,-4.457,-4.457,-4.457,-4.457,-4.457,-4.4553,-4.435,-4.3859,-4.2963,-4.2117,-4.166,-4.0679,-4.0087,-4.0087,-4.0087,-4.0087,-4.0087,-4.0087,-4.0087,-4.0087,-4.0087,-4.0087,-4.0087,-4.0087,-4.0087,-4.0087,-4.0087,-4.0087,-4.007,-3.9884,-3.9625,-3.9185,-3.8639,-3.8059,-3.7535,-3.6892,-3.6476,-3.6163,-3.5894,-3.5703,-3.5604,-3.5569,-3.5504,-3.5489,-3.5489,-3.5489,-3.5489,-3.5489,-3.5489,-3.5489,-3.5489,-3.5489,-3.5489,-3.5489,-3.5489,-3.5489,-3.5489,-3.5489,-3.5439,-3.5374,-3.5359,-3.5279,-3.5016,-3.4765,-3.4332,-3.3908,-3.3339,-3.2761,-3.22,-3.1776,-3.1272,-3.0973,-3.0761,-3.0381,-3.0241,-3.0088,-2.9946,-2.9869,-2.9792,-2.9779,-2.9779,-2.9779,-2.9779,-2.9779,-2.9779,-2.9779,-2.9377,-2.8875,-5.3206,-5.3206,-5.3206,-5.3206,-5.3206,-5.3164,-5.306,-5.2806,-5.2824,-5.2554,-5.2084,-5.179,-5.1367,-5.082,-5.0397,-4.9942,-4.959,-4.929,-4.9084,-4.8792,-4.8386,-4.797,-4.731,-4.643,-4.5821,-4.5432,-4.4993,-4.457,-4.457,-4.457,-4.457,-4.4519,-4.4401,-4.3995,-4.3301,-4.2557,-4.1863,-4.1271,-4.0612,-4.0138,-4.0087,-4.0087,-4.0087,-4.0087,-4.0087,-4.0087,-4.0087,-4.0087,-4.0087,-4.0087,-4.0087,-4.0087,-4.0087,-4.0087,-4.0087,-4.0037,-3.9884,-3.9694,-3.9432,-3.8914,-3.8472,-3.7943,-3.7238,-3.6846,-3.6414,-3.6022,-3.5767,-3.5653,-3.5619,-3.5554,-3.5489,-3.5489,-3.5489,-3.5489,-3.5489,-3.5489,-3.5489,-3.5489,-3.5489,-3.5489,-3.5489,-3.5489,-3.5489,-3.5489,-3.5489,-3.5489,-3.5439,-3.5424,-3.5359,-3.5294,-3.503,-3.4765,-3.4264,-3.3825,-3.3255,-3.2775,-3.2273,-3.185,-3.1421,-3.1123,-3.0836,-3.0457,-3.0318,-3.0088,-2.9946,-2.9869,-2.9792,-2.9779,-2.9779,-2.9767,-2.9691,-2.9541,-2.9465,-2.9076,-2.8599,-5.3206,-5.3206,-5.3206,-5.3206,-5.3206,-5.3206,-5.3078,-5.2806,-5.2806,-5.2536,-5.2102,-5.1907,-5.1538,-5.0981,-5.0526,-5.0171,-4.9825,-4.9462,-4.8924,-4.8481,-4.8031,-4.731,-4.659,-4.5889,-4.5382,-4.501,-4.4705,-4.457,-4.457,-4.457,-4.457,-4.4536,-4.4096,-4.3436,-4.2692,-4.1897,-4.1508,-4.1052,-4.0392,-4.0172,-4.0087,-4.0087,-4.0087,-4.0087,-4.0087,-4.0087,-4.0087,-4.0087,-4.0087,-4.0087,-4.0087,-4.0087,-4.0087,-4.0087,-4.007,-4.007,-3.9935,-3.9798,-3.9573,-3.9309,-3.8876,-3.8399,-3.7812,-3.7178,-3.6646,-3.6226,-3.591,-3.5782,-3.5604,-3.5489,-3.5489,-3.5489,-3.5489,-3.5489,-3.5489,-3.5489,-3.5489,-3.5489,-3.5489,-3.5489,-3.5489,-3.5489,-3.5489,-3.5489,-3.5489,-3.5489,-3.5489,-3.5489,-3.5489,-3.5424,-3.5294,-3.4964,-3.475,-3.4249,-3.3839,-3.3353,-3.2917,-3.2489,-3.2069,-3.1643,-3.1272,-3.0898,-3.0533,-3.0241,-3.0011,-2.9856,-2.9779,-2.9779,-2.9779,-2.9591,-2.949,-2.9302,-2.9076,-2.8624,-2.8235,-5.3206,-5.3206,-5.3206,-5.3206,-5.3206,-5.3206,-5.306,-5.2912,-5.2824,-5.2554,-5.2198,-5.1956,-5.1658,-5.1228,-5.0784,-5.038,-5.008,-4.943,-4.8853,-4.8446,-4.7588,-4.6724,-4.597,-4.5382,-4.501,-4.4671,-4.457,-4.457,-4.457,-4.457,-4.457,-4.4502,-4.3809,-4.3031,-4.2337,-4.1677,-4.1102,-4.0713,-4.0341,-4.0138,-4.0087,-4.0087,-4.0087,-4.0087,-4.0087,-4.0087,-4.0087,-4.0087,-4.0087,-4.0087,-4.0087,-4.0087,-4.0087,-4.0087,-4.0087,-4.007,-3.9986,-3.9849,-3.9746,-3.9432,-3.9148,-3.875,-3.827,-3.7711,-3.7074,-3.6538,-3.6148,-3.5846,-3.5668,-3.5489,-3.5489,-3.5489,-3.5489,-3.5489,-3.5489,-3.5489,-3.5489,-3.5489,-3.5489,-3.5489,-3.5489,-3.5489,-3.5489,-3.5489,-3.5489,-3.5489,-3.5489,-3.5489,-3.5489,-3.5489,-3.5359,-3.5148,-3.4964,-3.475,-3.4346,-3.3922,-3.3563,-3.3058,-3.2646,-3.2214,-3.1776,-3.1272,-3.0823,-3.0381,-2.9998,-2.9934,-2.9856,-2.9767,-2.9729,-2.949,-2.9126,-2.88,-2.8448,-2.7996,-2.7645,-5.3206,-5.3206,-5.3206,-5.3206,-5.3206,-5.3206,-5.3103,-5.2999,-5.285,-5.2645,-5.2311,-5.2071,-5.184,-5.147,-5.1088,-5.0661,-5.0105,-4.9426,-4.8643,-4.8403,-4.6994,-4.6039,-4.5552,-4.5072,-4.4795,-4.4621,-4.457,-4.457,-4.457,-4.4553,-4.4519,-4.4468,-4.3639,-4.2811,-4.2033,-4.1305,-4.073,-4.0341,-4.0189,-4.0087,-4.0087,-4.0087,-4.0087,-4.0087,-4.0087,-4.0087,-4.0087,-4.0087,-4.0087,-4.0087,-4.0087,-4.0087,-4.0087,-4.0087,-4.0087,-4.0087,-3.9986,-3.9952,-3.9849,-3.959,-3.9309,-3.8914,-3.8511,-3.8059,-3.7476,-3.6769,-3.6336,-3.5958,-3.5782,-3.5554,-3.5489,-3.5489,-3.5489,-3.5489,-3.5489,-3.5489,-3.5489,-3.5489,-3.5489,-3.5489,-3.5489,-3.5489,-3.5489,-3.5489,-3.5489,-3.5489,-3.5489,-3.5489,-3.5489,-3.5489,-3.5424,-3.5279,-3.5148,-3.4964,-3.475,-3.4399,-3.4128,-3.3701,-3.3213,-3.2775,-3.2345,-3.1763,-3.1048,-3.0672,-3.0305,-3.0088,-2.9934,-2.9807,-2.9504,-2.9139,-2.875,-2.8273,-2.7846,-2.7444,-2.718,-5.3206,-5.3206,-5.3206,-5.3206,-5.3206,-5.3206,-5.3121,-5.2999,-5.2955,-5.2798,-5.2498,-5.2358,-5.215,-5.179,-5.1381,-5.084,-5.0048,-4.9272,-4.8338,-4.7531,-4.6361,-4.573,-4.5184,-4.4834,-4.4626,-4.457,-4.457,-4.457,-4.4553,-4.4502,-4.4198,-4.369,-4.2963,-4.2219,-4.1593,-4.0849,-4.0307,-4.0087,-4.0087,-4.0087,-4.0087,-4.0087,-4.0087,-4.0087,-4.0087,-4.0087,-4.0087,-4.0087,-4.0087,-4.0087,-4.0087,-4.0087,-4.0087,-4.0087,-4.0087,-4.007,-4.002,-3.9986,-3.9901,-3.9746,-3.9573,-3.9255,-3.886,-3.8455,-3.7886,-3.7058,-3.6523,-3.6211,-3.5894,-3.5718,-3.5539,-3.5554,-3.5489,-3.5489,-3.5489,-3.5489,-3.5489,-3.5489,-3.5489,-3.5489,-3.5489,-3.5489,-3.5489,-3.5489,-3.5489,-3.5489,-3.5489,-3.5489,-3.5489,-3.5489,-3.5489,-3.5359,-3.5294,-3.5096,-3.4949,-3.4817,-3.4534,-3.4264,-3.377,-3.3339,-3.2917,-3.22,-3.1482,-3.1048,-3.0685,-3.0355,-2.9948,-2.9568,-2.9252,-2.8761,-2.8298,-2.7855,-2.7419,-2.703,-2.6816,-5.3206,-5.3206,-5.3206,-5.3206,-5.3206,-5.3206,-5.3146,-5.3085,-5.3103,-5.2974,-5.2708,-5.2599,-5.2397,-5.2036,-5.158,-5.0976,-5.0001,-4.9078,-4.8137,-4.7108,-4.6237,-4.5625,-4.5152,-4.4793,-4.4682,-4.4626,-4.457,-4.4553,-4.4485,-4.4113,-4.369,-4.3217,-4.2439,-4.1627,-4.1085,-4.051,-4.0087,-4.0087,-4.0087,-4.0087,-4.0087,-4.0087,-4.0087,-4.0087,-4.0087,-4.0087,-4.0087,-4.0087,-4.0087,-4.0087,-4.0087,-4.0087,-4.0087,-4.0087,-4.0087,-4.0087,-4.0087,-4.0087,-3.9986,-3.9884,-3.9781,-3.9468,-3.9202,-3.8805,-3.8343,-3.7637,-3.6997,-3.6693,-3.6211,-3.591,-3.5782,-3.5718,-3.5653,-3.5574,-3.5539,-3.5489,-3.5489,-3.5489,-3.5489,-3.5489,-3.5489,-3.5489,-3.5489,-3.5489,-3.5489,-3.5489,-3.5489,-3.5489,-3.5489,-3.5489,-3.5489,-3.5489,-3.5359,-3.5359,-3.5294,-3.5096,-3.4883,-3.4616,-3.4332,-3.377,-3.3129,-3.2561,-3.1982,-3.1462,-3.0887,-3.0394,-2.9977,-2.9446,-2.8778,-2.8227,-2.7801,-2.7422,-2.7037,-2.6728,-2.6615,-5.3206,-5.3206,-5.3206,-5.3206,-5.3206,-5.3206,-5.3206,-5.3188,-5.3078,-5.2962,-5.2724,-5.2441,-5.2425,-5.2082,-5.1347,-5.0854,-5.0062,-4.8786,-4.7802,-4.7011,-4.6185,-4.5684,-4.5299,-4.4978,-4.4831,-4.4682,-4.4626,-4.4473,-4.4265,-4.3842,-4.3386,-4.2963,-4.2117,-4.1153,-4.0882,-4.051,-4.0087,-4.0087,-4.0087,-4.0087,-4.0087,-4.0087,-4.0087,-4.0087,-4.0087,-4.0087,-4.0087,-4.0087,-4.0087,-4.0087,-4.0087,-4.0087,-4.0087,-4.0087,-4.0087,-4.0087,-4.0087,-4.0087,-4.0087,-3.9986,-3.9884,-3.9677,-3.9484,-3.9148,-3.8694,-3.823,-3.7653,-3.7178,-3.6677,-3.6196,-3.607,-3.5894,-3.5816,-3.5688,-3.5589,-3.5489,-3.5489,-3.5489,-3.5489,-3.5489,-3.5489,-3.5489,-3.5489,-3.5489,-3.5489,-3.5489,-3.5489,-3.5489,-3.5489,-3.5489,-3.5489,-3.5489,-3.5424,-3.5439,-3.5439,-3.5374,-3.5162,-3.5016,-3.4668,-3.4045,-3.3367,-3.2779,-3.2258,-3.1658,-3.1135,-3.0546,-2.9869,-2.9269,-2.8505,-2.787,-2.7424,-2.7113,-2.6836,-2.6565,-2.6515,-5.3206,-5.3206,-5.3206,-5.3206,-5.3188,-5.3188,-5.3206,-5.3096,-5.2472,-5.2215,-5.2027,-5.149,-5.1352,-5.1723,-5.0766,-5.0081,-4.937,-4.8343,-4.7518,-4.6689,-4.6242,-4.5871,-4.5477,-4.5177,-4.4978,-4.4831,-4.4652,-4.4309,-4.3948,-4.3504,-4.276,-4.1762,-4.161,-4.0899,-4.0324,-4.0087,-4.0087,-4.0087,-4.0087,-4.0087,-4.0087,-4.0087,-4.0087,-4.0087,-4.0087,-4.0087,-4.0087,-4.0087,-4.0087,-4.0087,-4.0087,-4.0087,-4.0087,-4.0087,-4.0087,-4.0087,-4.0087,-4.0087,-4.0087,-4.0037,-3.9935,-3.9833,-3.959,-3.9432,-3.904,-3.875,-3.823,-3.7812,-3.7326,-3.6677,-3.643,-3.6196,-3.607,-3.5767,-3.5604,-3.5554,-3.5489,-3.5489,-3.5489,-3.5489,-3.5489,-3.5489,-3.5489,-3.5489,-3.5489,-3.5489,-3.5489,-3.5489,-3.5489,-3.5489,-3.5489,-3.5489,-3.5489,-3.5489,-3.5504,-3.5504,-3.5374,-3.5228,-3.4986,-3.4365,-3.3719,-3.305,-3.2457,-3.1791,-3.1072,-3.0429,-2.9787,-2.9075,-2.8438,-2.7773,-2.7138,-2.6746,-2.6533,-2.6521,-2.6521]},{"header":{"parameterUnit":"m.s-1","parameterCategory":1,"la1":31.0,"la2":29.5877,"lo1":-88.7671,"lo2":-86.6584,"dy":0.0162,"dx":0.0185,"nx":115,"ny":88,"refTime":"2023-07-27T06:00:00:Z","depth":0,"parameterNumber":3,"parameterNumberName":"V-component_of_WINDS"},"data":[0.0,0.0,0.0,0.0,0.0,0.0,0.0,0.0,0.0,0.0,0.0,0.0,0.0,0.0,0.0,0.0,0.0,0.0,0.0,0.0,0.0,0.0,0.0,0.0,0.0,0.0,0.0,0.0,0.0,0.0,0.0,0.0,0.0,0.0,0.0,0.0,0.0,0.0,0.0,0.0,0.0,0.0,0.0,0.0,0.0,0.0,0.0,0.0,0.0,0.0,0.0,0.0,0.0,0.0,0.0,0.0,0.0,0.0,0.0,0.0,0.0,0.0,0.0,0.0,0.0,0.0,0.0,0.0,0.0,0.0,0.0,0.0,0.0,0.0,0.0,0.0,0.0,0.0,0.0,0.0,0.0,0.0,0.0,0.0,0.0,0.0,0.0,0.0,0.0,0.0,0.0,0.0,0.0,0.0,0.0,0.0,0.0,0.0,0.0,0.0,0.0,0.0,0.0,0.0,0.0,0.0,0.0,0.0,0.0,0.0,0.0,0.0,0.0,0.0,0.0,0.0,0.0,0.0,0.0,0.0,0.0,0.0,0.0,0.0,0.0,0.0,0.0,0.0,0.0,0.0,0.0,0.0,0.0,0.0,0.0,0.0,0.0,0.0,0.0,0.0,0.0,0.0,0.0,0.0,0.0,0.0,0.0,0.0,0.0,0.0,0.0,0.0,0.0,0.0,0.0,0.0,0.0,0.0,0.0,0.0,0.0,0.0,0.0,0.0,0.0,0.0,0.0,0.0,0.0,0.0,0.0,0.0,0.0,0.0,0.0,0.0,0.0,0.0,0.0,0.0,0.0,0.0,0.0,0.0,0.0,0.0,0.0,0.0,0.0,0.0,0.0,0.0,0.0,0.0,0.0,0.0,0.0,0.0,0.0,0.0,0.0,0.0,0.0,0.0,0.0,0.0,0.0,0.0,0.0,0.0,0.0,0.0,0.0,0.0,0.0,0.0,0.0,0.0,0.0,0.0,0.0,0.0,0.0,0.0,0.0,0.0,0.0,0.0,0.0,0.0,0.0,0.0,0.0,0.0,0.0,0.0,0.0,0.0,0.0,0.0,0.0,0.0,0.0,0.0,0.0,0.0,0.0,0.0,0.0,0.0,0.0,0.0,0.0,0.0,0.0,0.0,0.0,0.0,0.0,0.0,0.0,0.0,0.0,0.0,0.0,0.0,0.0,0.0,0.0,0.0,0.0,0.0,0.0,0.0,0.0,0.0,0.0,0.0,0.0,0.0,0.0,0.0,0.0,0.0,0.0,0.0,0.0,0.0,0.0,0.0,0.0,0.0,0.0,0.0,0.0,0.0,0.0,0.0,0.0,0.0,0.0,0.0,0.0,0.0,0.0,0.0,0.0,0.0,0.0,0.0,0.0,0.0,0.0,0.0,0.0,0.0,0.0,0.0,0.0,0.0,0.0,0.0,0.0,0.0,0.0,0.0,0.0,0.0,0.0,0.0,0.0,0.0,0.0,0.0,0.0,0.0,0.0,0.0,0.0,0.0,0.0,0.0,0.0,0.0,0.0,0.0,0.0,0.0,0.0,0.0,0.0,0.0,0.0,0.0,0.0,0.0,0.0,0.0,0.0,0.0,0.0,0.0,0.0,0.0,0.0,0.0,0.0,0.0,0.0,0.0,0.0,0.0,0.0,0.0,0.0,0.0,0.0,0.0,0.0,0.0,0.0,0.0,0.0,0.0,0.0,0.0,0.0,0.0,0.0,0.0,0.0,0.0,0.0,0.0,0.0,0.0,0.0,0.0,0.0,0.0,0.0,0.0,0.0,0.0,0.0,0.0,0.0,0.0,0.0,0.0,0.0,0.0,0.0,0.0,0.0,0.0,0.0,0.0,0.0,0.0,0.0,0.0,0.0,0.0,0.0,0.0,0.0,0.0,0.0,0.0,0.0,0.0,0.0,0.0,0.0,0.0,0.0,0.0,0.0,0.0,0.0,0.0,0.0,0.0,0.0,0.0,0.0,0.0,0.0,0.0,0.0,0.0,0.0,0.0,0.0,0.0,0.0,0.0,0.0,0.0,0.0,0.0,0.0,0.0,0.0,0.0,0.0,0.0,0.0,0.0,0.0,0.0,0.0,0.0,0.0,0.0,0.0,0.0,0.0,0.0,0.0,0.0,0.0,0.0,0.0,0.0,0.0,0.0,0.0,0.0,0.0,0.0,0.0,0.0,0.0,0.0,0.0,0.0,0.0,0.0,0.0,0.0,0.0,0.0,0.0,0.0,0.0,0.0,0.0,0.0,0.0,0.0,0.0,0.0,0.0,0.0,0.0,0.0,0.0,0.0,0.0,0.0,0.0,0.0,0.0,0.0,0.0,0.0,0.0,0.0,0.0,0.0,0.0,0.0,0.0,0.0,0.0,0.0,0.0,0.0,0.0,0.0,0.0,0.0,0.0,0.0,0.0,0.0,0.0,0.0,0.0,0.0,0.0,0.0,0.0,0.0,0.0,0.0,0.0,0.0,0.0,0.0,0.0,0.0,0.0,0.0,0.0,0.0,0.0,0.0,0.0,0.0,0.0,0.0,0.0,0.0,0.0,0.0,0.0,0.0,0.0,0.0,0.0,0.0,0.0,0.0,0.0,0.0,0.0,0.0,0.0,0.0,0.0,0.0,0.0,0.0,0.0,0.0,0.0,0.0,0.0,0.0,0.0,0.0,0.0,0.0,0.0,0.0,0.0,0.0,0.0,0.0,0.0,0.0,0.0,0.0,0.0,0.0,0.0,0.0,0.0,0.0,0.0,0.0,0.0,0.0,0.0,0.0,0.0,0.0,0.0,0.0,0.0,0.0,0.0,0.0,0.0,0.0,0.0,0.0,0.0,0.0,0.0,0.0,0.0,0.0,0.0,0.0,0.0,0.0,0.0,0.0,0.0,0.0,0.0,0.0,0.0,0.0,0.0,0.0,0.0,0.0,0.0,0.0,0.0,0.0,0.0,0.0,0.0,0.0,0.0,0.0,0.0,0.0,0.0,0.0,0.0,0.0,0.0,0.0,0.0,0.0,0.0,0.0,0.0,0.0,0.0,0.0,0.0,0.0,0.0,0.0,0.0,0.0,0.0,0.0,0.0,0.0,0.0,0.0,0.0,0.0,0.0,0.0,0.0,0.0,0.0,0.0,0.0,0.0,0.0,0.0,0.0,0.0,0.0,0.0,0.0,0.0,0.0,0.0,0.0,0.0,0.0,0.0,0.0,0.0,0.0,0.0,0.0,0.0,0.0,0.0,0.0,0.0,0.0,0.0,0.0,0.0,0.0,0.0,0.0,0.0,0.0,0.0,0.0,0.0,0.0,0.0,0.0,0.0,0.0,0.0,0.0,0.0,0.0,0.0,0.0,0.0,0.0,0.0,0.0,0.0,0.0,0.0,0.0,0.0,0.0,0.0,0.0,0.0,0.0,0.0,0.0,0.0,0.0,0.0,0.0,0.0,0.0,0.0,0.0,0.0,0.0,0.0,0.0,0.0,0.0,0.0,0.0,0.0,0.0,0.0,0.0,0.0,0.0,0.0,0.0,0.0,0.0,0.0,0.0,0.0,0.0,0.0,0.0,0.0,0.0,0.0,0.0,0.0,0.0,0.0,0.0,0.0,0.0,0.0,0.0,0.0,0.0,0.0,0.0,0.0,0.0,0.0,0.0,0.0,0.0,0.0,0.0,0.0,0.0,0.0,0.0,0.0,0.0,0.0,0.0,0.0,0.0,0.0,0.0,0.0,0.0,0.0,0.0,0.0,0.0,0.0,0.0,0.0,0.0,0.0,0.0,0.0,0.0,0.0,0.0,0.0,0.0,0.0,0.0,0.0,0.0,0.0,0.0,0.0,0.0,0.0,0.0,0.0,0.0,0.0,0.0,0.0,0.0,0.0,0.0,0.0,0.0,0.0,0.0,0.0,0.0,0.0,0.0,0.0,0.0,0.0,0.0,0.0,0.0,0.0,0.0,0.0,0.0,0.0,0.0,0.0,0.0,0.0,0.0,0.0,0.0,0.0,0.0,0.0,0.0,0.0,0.0,0.0,0.0,0.0,0.0,0.0,0.0,0.0,0.0,0.0,0.0,0.0,0.0,0.0,0.0,0.0,0.0,0.0,0.0,0.0,0.0,0.0,0.0,0.0,0.0,0.0,0.0,0.0,0.0,0.0,0.0,0.0,0.0,0.0,0.0,0.0,0.0,0.0,0.0,0.0,0.0,0.0,0.0,0.0,0.0,0.0,0.0,0.0,0.0,0.0,0.0,0.0,0.0,0.0,0.0,0.0,0.0,0.0,-0.4837,0.0,0.0,0.0,0.0,0.0,0.0,0.0,0.0,0.0,0.0,0.0,0.0,0.0,0.0,0.0,0.0,0.0,0.0,0.0,0.0,0.0,0.0,0.0,0.0,0.0,0.0,0.0,0.0,0.0,0.0,0.0,0.0,0.0,0.0,0.0,0.0,0.0,0.0,0.0,0.0,0.0,0.0,0.0,0.0,0.0,0.0,0.0,0.0,0.0,0.0,0.0,0.0,0.0,0.0,0.0,0.0,0.0,0.0,0.0,0.0,0.0,0.0,0.0,0.0,0.0,0.0,0.0,0.0,0.0,0.0,0.0,0.0,0.0,0.0,0.0,0.0,0.0,0.0,0.0,0.0,0.0,0.0,0.0,0.0,0.0,0.0,0.0,0.0,0.0,0.0,0.0,0.0,0.0,0.0,0.0,0.0,0.0,0.0,0.0,0.0,0.0,0.0,0.0,0.0,0.0,0.0,0.0,0.0,0.0,0.0,-0.4125,-0.3944,-0.4034,-0.4123,-0.4123,0.0,0.0,0.0,0.0,0.0,0.0,0.0,0.0,0.0,0.0,0.0,0.0,0.0,0.0,0.0,0.0,0.0,0.0,0.0,0.0,0.0,0.0,0.0,0.0,0.0,0.0,0.0,0.0,0.0,0.0,0.0,0.0,0.0,0.0,0.0,0.0,0.0,0.0,0.0,0.0,0.0,0.0,0.0,0.0,0.0,0.0,0.0,0.0,0.0,0.0,0.0,0.0,0.0,0.0,0.0,0.0,0.0,0.0,0.0,0.0,0.0,0.0,0.0,0.0,0.0,0.0,0.0,0.0,0.0,0.0,0.0,0.0,0.0,0.0,0.0,0.0,0.0,0.0,0.0,0.0,0.0,0.0,0.0,0.0,0.0,0.0,0.0,0.0,0.0,0.0,0.0,0.0,0.0,0.0,0.0,0.0,0.0,0.0,0.0,0.0,0.0,0.0,0.0,0.0,0.0,0.0,0.0,0.0,0.0,0.0,0.0,0.0,-0.3408,-0.3408,-0.3587,0.0,0.0,0.0,0.0,0.0,0.0,0.0,0.0,0.0,0.0,0.0,0.0,0.0,0.0,0.0,0.0,0.0,0.0,0.0,0.0,0.0,0.0,0.0,0.0,0.0,0.0,0.0,0.0,0.0,0.0,0.0,0.0,0.0,0.0,0.0,0.0,0.0,0.0,0.0,0.0,0.0,0.0,0.0,0.0,0.0,0.0,0.0,0.0,0.0,0.0,0.0,0.0,0.0,0.0,0.0,0.0,0.0,0.0,0.0,0.0,0.0,0.0,0.0,0.0,0.0,0.0,0.0,0.0,0.0,0.0,0.0,0.0,0.0,0.0,0.0,0.0,0.0,0.0,0.0,0.0,0.0,0.0,0.0,0.0,0.0,0.0,0.0,0.0,0.0,0.0,0.0,0.0,0.0,0.0,0.0,0.0,0.0,0.0,0.0,0.0,0.0,0.0,0.0,0.0,0.0,0.0,0.0,0.0,0.0,0.0,-0.3406,-0.2956,-0.2691,0.0,-0.3588,0.0,0.0,0.0,0.0,0.0,0.0,0.0,0.0,0.0,0.0,0.0,0.0,0.0,0.0,0.0,0.0,0.0,0.0,0.0,0.0,0.0,0.0,0.0,0.0,0.0,0.0,0.0,0.0,0.0,0.0,0.0,0.0,0.0,0.0,0.0,0.0,0.0,0.0,0.0,0.0,0.0,0.0,0.0,0.0,0.0,0.0,0.0,0.0,0.0,0.0,0.0,0.0,0.0,0.0,0.0,0.0,0.0,0.0,0.0,0.0,0.0,0.0,0.0,0.0,0.0,0.0,0.0,0.0,0.0,0.0,0.0,0.0,0.0,0.0,0.0,0.0,0.0,0.0,0.0,0.0,0.0,0.0,0.0,0.0,0.0,0.0,0.0,0.0,0.0,0.0,0.0,0.0,0.0,0.0,0.0,0.0,0.0,0.0,0.0,0.0,0.0,0.0,0.0,0.0,0.0,0.0,0.0,0.0,0.0,0.0,-0.3105,-0.2466,-0.2102,-0.218,0.0,0.0,0.0,0.0,0.0,0.0,0.0,0.0,0.0,0.0,0.0,0.0,0.0,0.0,0.0,0.0,0.0,0.0,0.0,0.0,0.0,0.0,0.0,0.0,0.0,0.0,0.0,0.0,0.0,0.0,0.0,0.0,0.0,0.0,0.0,0.0,0.0,0.0,0.0,0.0,0.0,0.0,0.0,0.0,0.0,0.0,0.0,0.0,0.0,0.0,0.0,0.0,0.0,0.0,0.0,0.0,0.0,0.0,0.0,0.0,0.0,0.0,0.0,0.0,0.0,0.0,0.0,0.0,0.0,0.0,0.0,0.0,0.0,0.0,0.0,0.0,0.0,0.0,0.0,0.0,0.0,0.0,0.0,0.0,0.0,0.0,0.0,0.0,0.0,0.0,0.0,0.0,0.0,0.0,0.0,0.0,0.0,0.0,0.0,0.0,0.0,0.0,0.0,0.0,0.0,0.0,0.0,0.0,0.0,0.0,-0.367,-0.2875,-0.2145,-0.1764,-0.1837,-0.253,0.0,0.0,0.0,0.0,0.0,0.0,0.0,0.0,0.0,0.0,0.0,0.0,0.0,0.0,0.0,0.0,0.0,0.0,0.0,0.0,0.0,0.0,0.0,0.0,0.0,0.0,0.0,0.0,0.0,0.0,0.0,0.0,0.0,0.0,0.0,0.0,0.0,0.0,0.0,0.0,0.0,0.0,0.0,0.0,0.0,0.0,0.0,0.0,0.0,0.0,0.0,0.0,0.0,0.0,0.0,0.0,0.0,0.0,0.0,0.0,0.0,0.0,0.0,0.0,0.0,0.0,0.0,0.0,0.0,0.0,0.0,0.0,0.0,0.0,0.0,0.0,0.0,0.0,0.0,0.0,0.0,0.0,0.0,0.0,0.0,0.0,0.0,0.0,0.0,0.0,0.0,0.0,0.0,0.0,0.0,0.0,0.0,0.0,0.0,0.0,0.0,0.0,0.0,0.0,0.0,0.0,0.0,0.0,-0.4796,-0.3789,-0.2895,-0.1904,-0.1871,-0.2034,0.0,0.0,0.0,0.0,0.0,0.0,0.0,0.0,0.0,0.0,0.0,0.0,0.0,0.0,0.0,0.0,0.0,0.0,0.0,0.0,0.0,0.0,0.0,0.0,0.0,0.0,0.0,0.0,0.0,0.0,0.0,0.0,0.0,0.0,0.0,0.0,0.0,0.0,0.0,0.0,0.0,0.0,0.0,0.0,0.0,0.0,0.0,0.0,0.0,0.0,0.0,0.0,0.0,0.0,0.0,0.0,0.0,0.0,0.0,0.0,0.0,0.0,0.0,0.0,0.0,0.0,0.0,0.0,0.0,0.0,0.0,0.0,0.0,0.0,0.0,0.0,0.0,0.0,0.0,0.0,0.0,0.0,0.0,0.0,0.0,0.0,0.0,0.0,0.0,0.0,0.0,0.0,0.0,0.0,0.0,0.0,0.0,0.0,0.0,0.0,0.0,0.0,0.0,0.0,0.0,0.0,0.0,0.0,0.0,-0.4809,-0.3411,-0.2411,-0.1748,-0.1641,-0.1902,0.0,0.0,0.0,0.0,0.0,0.0,0.0,0.0,0.0,0.0,0.0,0.0,0.0,0.0,0.0,0.0,0.0,0.0,0.0,0.0,0.0,0.0,0.0,0.0,0.0,0.0,0.0,0.0,0.0,0.0,0.0,0.0,0.0,0.0,0.0,0.0,0.0,0.0,0.0,0.0,0.0,0.0,0.0,0.0,0.0,0.0,0.0,0.0,0.0,0.0,0.0,0.0,0.0,0.0,0.0,0.0,0.0,0.0,0.0,0.0,0.0,0.0,0.0,0.0,0.0,0.0,0.0,0.0,0.0,0.0,0.0,0.0,0.0,0.0,0.0,0.0,0.0,0.0,0.0,0.0,0.0,0.0,0.0,0.0,0.0,0.0,0.0,0.0,0.0,0.0,0.0,0.0,0.0,0.0,0.0,0.0,0.0,0.0,0.0,0.0,0.0,0.0,0.0,0.0,0.0,0.0,0.0,0.0,0.0,-0.4808,0.0,-0.2672,-0.218,-0.2068,-0.2127,0.0,0.0,0.0,0.0,0.0,0.0,0.0,0.0,0.0,0.0,0.0,0.0,0.0,0.0,0.0,0.0,0.0,0.0,0.0,0.0,0.0,0.0,0.0,0.0,0.0,0.0,0.0,0.0,0.0,0.0,0.0,0.0,0.0,0.0,0.0,0.0,0.0,0.0,0.0,0.0,0.0,0.0,0.0,0.0,0.0,0.0,0.0,0.0,0.0,0.0,0.0,0.0,0.0,0.0,0.0,0.0,0.0,0.0,0.0,0.0,0.0,0.0,0.0,0.0,0.0,0.0,0.0,0.0,0.0,0.0,0.0,0.0,0.0,0.0,0.0,0.0,0.0,0.0,0.0,0.0,0.0,0.0,0.0,0.0,0.0,0.0,0.0,0.0,0.0,0.0,0.0,0.0,0.0,0.0,0.0,0.0,0.0,0.0,0.0,0.0,0.0,0.0,0.0,0.0,0.0,0.0,0.0,0.0,-0.5839,-0.4799,-0.4193,-0.3728,-0.323,-0.2976,-0.2918,0.0,0.0,0.0,0.0,0.0,0.0,0.0,0.0,0.0,0.0,0.0,0.0,0.0,0.0,0.0,0.0,0.0,0.0,0.0,0.0,0.0,0.0,0.0,0.0,0.0,0.0,0.0,0.0,0.0,0.0,0.0,0.0,0.0,0.0,0.0,0.0,0.0,0.0,0.0,0.0,0.0,0.0,0.0,0.0,0.0,0.0,0.0,0.0,0.0,0.0,0.0,0.0,0.0,0.0,0.0,0.0,0.0,0.0,0.0,0.0,0.0,0.0,0.0,0.0,0.0,0.0,0.0,0.0,0.0,0.0,0.0,0.0,0.0,0.0,0.0,0.0,0.0,0.0,0.0,0.0,0.0,0.0,0.0,0.0,0.0,0.0,0.0,0.0,0.0,0.0,0.0,0.0,0.0,0.0,0.0,0.0,0.0,0.0,0.0,0.0,0.0,0.0,0.0,0.0,0.0,0.0,0.0,0.0,0.0,-0.5586,-0.4724,-0.4161,-0.3903,-0.3736,-0.3643,0.0,0.0,0.0,0.0,0.0,0.0,0.0,0.0,0.0,0.0,0.0,0.0,0.0,0.0,0.0,0.0,0.0,0.0,0.0,0.0,0.0,0.0,0.0,0.0,0.0,0.0,0.0,0.0,0.0,0.0,0.0,0.0,0.0,0.0,0.0,0.0,0.0,0.0,0.0,0.0,0.0,0.0,0.0,0.0,0.0,0.0,0.0,0.0,0.0,0.0,0.0,0.0,0.0,0.0,0.0,0.0,0.0,0.0,0.0,0.0,0.0,0.0,0.0,0.0,0.0,0.0,0.0,0.0,0.0,0.0,0.0,0.0,0.0,0.0,0.0,0.0,0.0,0.0,0.0,0.0,0.0,0.0,0.0,0.0,0.0,0.0,0.0,0.0,0.0,0.0,0.0,0.0,0.0,0.0,0.0,0.0,0.0,0.0,0.0,0.0,0.0,0.0,0.0,0.0,0.0,0.0,0.0,0.0,0.0,-0.7062,-0.5717,-0.5016,-0.487,-0.4612,-0.4487,-0.4387,0.0,0.0,0.0,0.0,0.0,0.0,0.0,0.0,0.0,0.0,0.0,0.0,0.0,0.0,0.0,0.0,0.0,0.0,0.0,0.0,0.0,0.0,0.0,0.0,0.0,0.0,0.0,0.0,0.0,0.0,0.0,0.0,0.0,0.0,0.0,0.0,0.0,0.0,0.0,0.0,0.0,0.0,0.0,0.0,0.0,0.0,0.0,0.0,0.0,0.0,0.0,0.0,0.0,0.0,0.0,0.0,0.0,0.0,0.0,0.0,0.0,0.0,0.0,0.0,0.0,0.0,0.0,0.0,0.0,0.0,0.0,0.0,0.0,0.0,0.0,0.0,0.0,0.0,0.0,0.0,0.0,0.0,0.0,0.0,0.0,0.0,0.0,0.0,0.0,0.0,0.0,0.0,0.0,0.0,0.0,0.0,0.0,0.0,0.0,0.0,0.0,0.0,0.0,0.0,0.0,0.0,0.0,0.0,-0.8992,-0.73,-0.6316,-0.6012,-0.5698,-0.5352,0.0,0.0,0.0,0.0,0.0,0.0,0.0,0.0,0.0,0.0,0.0,0.0,0.0,0.0,0.0,0.0,0.0,0.0,0.0,0.0,0.0,0.0,0.0,0.0,0.0,0.0,0.0,0.0,0.0,0.0,0.0,0.0,0.0,0.0,0.0,0.0,0.0,0.0,0.0,0.0,0.0,0.0,0.0,0.0,0.0,0.0,0.0,0.0,0.0,0.0,0.0,0.0,0.0,0.0,0.0,0.0,0.0,0.0,0.0,0.0,0.0,0.0,0.0,0.0,0.0,0.0,0.0,0.0,0.0,0.0,0.0,0.0,0.0,0.0,0.0,0.0,0.0,0.0,0.0,0.0,0.0,0.0,0.0,0.0,0.0,0.0,0.0,0.0,0.0,0.0,0.0,0.0,0.0,0.0,0.0,0.0,0.0,0.0,0.0,0.0,0.0,0.0,0.0,0.0,0.0,0.0,0.0,0.0,0.0,-1.0012,-0.9265,-0.8307,-0.7267,-0.6869,-0.6491,0.0,0.0,0.0,0.0,0.0,0.0,0.0,0.0,0.0,0.0,0.0,0.0,0.0,0.0,0.0,0.0,0.0,0.0,0.0,0.0,0.0,0.0,0.0,0.0,0.0,0.0,0.0,0.0,0.0,0.0,0.0,0.0,0.0,0.0,0.0,0.0,0.0,0.0,0.0,0.0,0.0,0.0,0.0,0.0,0.0,0.0,0.0,0.0,0.0,0.0,0.0,0.0,0.0,0.0,0.0,0.0,0.0,0.0,0.0,0.0,0.0,0.0,0.0,0.0,0.0,0.0,0.0,0.0,0.0,0.0,0.0,0.0,0.0,0.0,0.0,0.0,0.0,0.0,0.0,0.0,0.0,0.0,0.0,0.0,0.0,0.0,0.0,0.0,0.0,0.0,0.0,0.0,0.0,0.0,0.0,0.0,0.0,0.0,0.0,0.0,0.0,0.0,0.0,0.0,0.0,0.0,0.0,0.0,-1.088,-1.1173,-1.0772,-1.018,-0.9199,-0.832,-0.7572,0.0,0.0,0.0,0.0,0.0,0.0,0.0,0.0,0.0,0.0,0.0,0.0,0.0,0.0,0.0,0.0,0.0,0.0,0.0,0.0,0.0,0.0,0.0,0.0,0.0,0.0,0.0,0.0,0.0,0.0,0.0,0.0,0.0,0.0,0.0,0.0,0.0,0.0,0.0,0.0,0.0,0.0,0.0,0.0,0.0,0.0,0.0,0.0,0.0,0.0,0.0,0.0,0.0,0.0,0.0,0.0,0.0,0.0,0.0,0.0,0.0,0.0,0.0,0.0,0.0,0.0,0.0,0.0,0.0,0.0,0.0,0.0,0.0,0.0,0.0,0.0,0.0,0.0,0.0,0.0,0.0,0.0,0.0,0.0,0.0,0.0,0.0,0.0,0.0,0.0,0.0,0.0,0.0,0.0,0.0,0.0,0.0,0.0,0.0,0.0,0.0,0.0,0.0,0.0,0.0,0.0,0.0,0.0,-1.2305,-1.251,-1.2226,-1.1907,-1.1571,-0.9926,-0.8695,0.0,0.0,0.0,0.0,0.0,0.0,0.0,0.0,0.0,0.0,0.0,0.0,0.0,0.0,0.0,0.0,0.0,0.0,0.0,0.0,0.0,0.0,0.0,0.0,0.0,0.0,0.0,0.0,0.0,0.0,0.0,0.0,0.0,0.0,0.0,0.0,0.0,0.0,0.0,0.0,0.0,0.0,0.0,0.0,0.0,0.0,0.0,0.0,0.0,0.0,0.0,0.0,0.0,0.0,0.0,0.0,0.0,0.0,0.0,0.0,0.0,0.0,0.0,0.0,0.0,0.0,0.0,0.0,0.0,0.0,0.0,0.0,0.0,0.0,0.0,0.0,0.0,0.0,0.0,0.0,0.0,0.0,0.0,0.0,0.0,0.0,0.0,0.0,0.0,0.0,0.0,0.0,0.0,0.0,0.0,0.0,0.0,0.0,0.0,0.0,0.0,0.0,0.0,0.0,0.0,0.0,0.0,0.0,-1.3714,-1.4326,-1.3749,-1.3355,-1.3372,-1.129,-0.9832,0.0,0.0,0.0,0.0,0.0,0.0,0.0,0.0,0.0,0.0,0.0,0.0,0.0,0.0,0.0,0.0,0.0,0.0,0.0,0.0,0.0,0.0,0.0,0.0,0.0,0.0,0.0,0.0,0.0,0.0,0.0,0.0,0.0,0.0,0.0,0.0,0.0,0.0,0.0,0.0,0.0,0.0,0.0,0.0,0.0,0.0,0.0,0.0,-3.3366,0.0,0.0,0.0,0.0,0.0,0.0,0.0,0.0,0.0,0.0,0.0,0.0,0.0,0.0,0.0,0.0,0.0,0.0,0.0,0.0,0.0,0.0,0.0,0.0,0.0,0.0,0.0,0.0,0.0,0.0,0.0,0.0,0.0,0.0,0.0,0.0,0.0,0.0,0.0,0.0,0.0,0.0,0.0,0.0,0.0,0.0,0.0,0.0,0.0,0.0,0.0,0.0,0.0,0.0,0.0,0.0,0.0,0.0,0.0,-1.5398,-1.6114,-1.5469,-1.4993,-1.4717,-1.336,-1.1904,0.0,0.0,0.0,0.0,0.0,0.0,0.0,0.0,0.0,0.0,0.0,0.0,0.0,0.0,0.0,0.0,0.0,0.0,0.0,0.0,0.0,0.0,0.0,0.0,0.0,0.0,0.0,0.0,0.0,0.0,0.0,0.0,0.0,0.0,0.0,0.0,0.0,0.0,0.0,0.0,0.0,0.0,0.0,0.0,0.0,0.0,0.0,0.0,0.0,0.0,0.0,0.0,0.0,0.0,0.0,0.0,0.0,0.0,0.0,0.0,0.0,0.0,0.0,0.0,0.0,0.0,0.0,0.0,0.0,0.0,0.0,0.0,0.0,0.0,0.0,0.0,0.0,0.0,0.0,0.0,0.0,0.0,0.0,0.0,0.0,0.0,0.0,0.0,0.0,0.0,0.0,0.0,0.0,0.0,0.0,0.0,0.0,0.0,0.0,0.0,0.0,0.0,0.0,0.0,0.0,0.0,0.0,-1.6793,-1.6938,-1.7626,-1.7103,-1.6653,-1.6221,-1.5352,-1.4199,-1.2394,0.0,0.0,0.0,0.0,0.0,0.0,0.0,0.0,0.0,0.0,0.0,0.0,0.0,0.0,0.0,0.0,0.0,0.0,0.0,0.0,0.0,0.0,0.0,0.0,0.0,0.0,0.0,0.0,0.0,0.0,0.0,0.0,0.0,0.0,0.0,0.0,0.0,0.0,-3.2657,-3.391,0.0,0.0,0.0,0.0,0.0,0.0,0.0,0.0,-3.512,0.0,0.0,0.0,0.0,0.0,0.0,0.0,0.0,0.0,0.0,0.0,0.0,0.0,0.0,0.0,0.0,0.0,0.0,0.0,0.0,0.0,0.0,0.0,0.0,0.0,0.0,0.0,0.0,0.0,0.0,0.0,0.0,0.0,0.0,0.0,0.0,0.0,0.0,0.0,0.0,0.0,0.0,0.0,0.0,0.0,0.0,0.0,0.0,0.0,0.0,0.0,0.0,0.0,0.0,0.0,0.0,-1.8423,-1.8181,-1.8287,-1.8869,-1.8422,-1.8006,-1.7832,-1.6867,-1.5999,-1.5341,0.0,0.0,0.0,0.0,0.0,0.0,0.0,0.0,0.0,0.0,0.0,0.0,0.0,0.0,0.0,0.0,0.0,0.0,0.0,0.0,0.0,0.0,0.0,0.0,0.0,0.0,0.0,0.0,0.0,0.0,0.0,0.0,0.0,0.0,0.0,0.0,0.0,0.0,0.0,-3.4897,-3.5726,0.0,0.0,0.0,0.0,0.0,0.0,0.0,0.0,-3.5182,0.0,0.0,0.0,0.0,0.0,0.0,0.0,0.0,0.0,0.0,0.0,0.0,0.0,0.0,0.0,0.0,0.0,0.0,0.0,0.0,0.0,0.0,0.0,0.0,0.0,0.0,0.0,0.0,0.0,0.0,0.0,0.0,0.0,0.0,0.0,0.0,0.0,0.0,0.0,0.0,0.0,0.0,0.0,0.0,0.0,0.0,0.0,0.0,0.0,0.0,0.0,0.0,0.0,0.0,0.0,-1.9982,-1.9657,-1.986,-2.0577,-1.9956,-1.9383,-1.8997,-1.8163,-1.7347,0.0,0.0,0.0,0.0,0.0,0.0,0.0,0.0,0.0,0.0,0.0,0.0,0.0,0.0,0.0,0.0,0.0,0.0,0.0,0.0,0.0,0.0,0.0,0.0,0.0,0.0,0.0,0.0,0.0,0.0,0.0,0.0,0.0,0.0,0.0,0.0,0.0,0.0,0.0,0.0,-3.6739,-3.7691,-3.8181,0.0,0.0,0.0,0.0,0.0,0.0,-3.6941,-3.6016,0.0,0.0,0.0,0.0,0.0,0.0,0.0,0.0,0.0,0.0,0.0,0.0,0.0,0.0,0.0,0.0,0.0,0.0,0.0,0.0,0.0,0.0,0.0,0.0,0.0,0.0,0.0,0.0,0.0,0.0,0.0,0.0,0.0,0.0,0.0,0.0,0.0,0.0,0.0,0.0,0.0,0.0,0.0,0.0,0.0,0.0,0.0,0.0,0.0,0.0,0.0,0.0,0.0,0.0,0.0,-2.1355,-2.1089,-2.1312,-2.2035,-2.1523,-2.0879,-2.017,-1.9601,-1.8737,0.0,0.0,0.0,0.0,0.0,0.0,0.0,0.0,0.0,0.0,0.0,0.0,0.0,0.0,0.0,0.0,0.0,0.0,0.0,0.0,0.0,0.0,0.0,0.0,0.0,0.0,0.0,0.0,0.0,0.0,0.0,0.0,0.0,0.0,0.0,0.0,0.0,0.0,0.0,0.0,0.0,-3.9645,-4.0086,-4.0252,0.0,0.0,0.0,0.0,-3.9448,-3.8196,0.0,0.0,0.0,0.0,0.0,0.0,0.0,0.0,0.0,0.0,0.0,0.0,0.0,0.0,0.0,0.0,0.0,0.0,0.0,0.0,0.0,0.0,0.0,0.0,0.0,0.0,0.0,0.0,0.0,0.0,0.0,0.0,0.0,0.0,0.0,0.0,0.0,0.0,0.0,0.0,0.0,0.0,0.0,0.0,0.0,0.0,0.0,0.0,0.0,0.0,0.0,0.0,0.0,0.0,0.0,0.0,-2.2239,-2.2319,-2.2508,-2.294,-2.2901,-2.2362,-2.15,-2.105,-2.0318,0.0,0.0,0.0,0.0,0.0,0.0,0.0,0.0,0.0,0.0,0.0,0.0,0.0,0.0,0.0,0.0,0.0,0.0,0.0,0.0,0.0,0.0,0.0,0.0,0.0,0.0,0.0,0.0,0.0,0.0,0.0,0.0,0.0,0.0,0.0,0.0,0.0,0.0,0.0,0.0,0.0,-4.048,-4.0707,-4.099,-4.1255,0.0,0.0,0.0,-4.0033,-3.9098,0.0,0.0,0.0,0.0,0.0,0.0,0.0,0.0,0.0,0.0,0.0,0.0,0.0,0.0,0.0,0.0,0.0,0.0,0.0,0.0,0.0,0.0,0.0,0.0,0.0,0.0,0.0,0.0,0.0,0.0,0.0,0.0,0.0,0.0,0.0,0.0,0.0,0.0,0.0,0.0,0.0,0.0,0.0,0.0,0.0,0.0,0.0,0.0,0.0,0.0,0.0,0.0,0.0,0.0,0.0,-2.1459,-2.329,-2.3454,-2.3649,-2.4018,-2.3973,-2.3531,-2.2746,-2.2079,-2.1414,0.0,0.0,0.0,0.0,0.0,0.0,0.0,0.0,0.0,0.0,0.0,0.0,0.0,0.0,0.0,0.0,0.0,0.0,0.0,0.0,0.0,0.0,0.0,0.0,0.0,0.0,0.0,0.0,0.0,0.0,0.0,0.0,0.0,0.0,0.0,0.0,0.0,0.0,0.0,0.0,0.0,0.0,-4.2706,-4.3004,0.0,0.0,0.0,-4.1701,-4.1165,0.0,0.0,0.0,0.0,0.0,0.0,0.0,0.0,0.0,0.0,0.0,0.0,0.0,0.0,0.0,0.0,0.0,0.0,0.0,0.0,0.0,0.0,0.0,0.0,0.0,0.0,0.0,0.0,0.0,0.0,0.0,0.0,0.0,0.0,0.0,0.0,0.0,0.0,0.0,0.0,0.0,0.0,0.0,0.0,0.0,0.0,0.0,0.0,0.0,0.0,0.0,0.0,0.0,0.0,0.0,0.0,0.0,-2.4366,-2.45,-2.4718,-2.521,-2.5084,-2.4659,-2.4049,-2.3273,0.0,0.0,0.0,0.0,0.0,0.0,0.0,0.0,0.0,0.0,0.0,0.0,0.0,0.0,0.0,0.0,0.0,0.0,0.0,0.0,0.0,0.0,0.0,0.0,0.0,0.0,0.0,-3.1936,0.0,0.0,0.0,0.0,0.0,0.0,0.0,0.0,0.0,0.0,0.0,0.0,0.0,0.0,-4.3333,-4.4343,-4.4607,-4.4539,0.0,0.0,-4.2959,-4.2237,-4.1192,-4.0277,0.0,0.0,0.0,0.0,0.0,0.0,0.0,0.0,0.0,0.0,0.0,0.0,0.0,0.0,0.0,0.0,0.0,0.0,0.0,0.0,0.0,0.0,0.0,0.0,0.0,0.0,0.0,0.0,0.0,0.0,0.0,0.0,0.0,0.0,0.0,0.0,0.0,0.0,0.0,0.0,0.0,0.0,0.0,0.0,0.0,0.0,0.0,0.0,0.0,0.0,0.0,0.0,0.0,0.0,0.0,-2.5237,-2.5472,-2.5871,-2.6389,-2.6362,-2.603,-2.5359,-2.4472,-2.367,0.0,0.0,0.0,0.0,0.0,0.0,0.0,0.0,0.0,0.0,0.0,0.0,0.0,0.0,0.0,0.0,0.0,0.0,0.0,0.0,0.0,0.0,0.0,0.0,0.0,0.0,0.0,0.0,0.0,0.0,0.0,0.0,0.0,0.0,0.0,0.0,0.0,0.0,0.0,0.0,0.0,-4.4007,-4.4857,-4.5093,-4.5214,0.0,0.0,-4.3435,-4.3066,-4.2035,-4.0976,-3.9934,0.0,0.0,0.0,0.0,0.0,0.0,0.0,0.0,0.0,0.0,0.0,0.0,0.0,0.0,0.0,0.0,0.0,0.0,0.0,0.0,0.0,0.0,0.0,0.0,0.0,0.0,0.0,0.0,0.0,0.0,0.0,0.0,0.0,0.0,0.0,0.0,0.0,0.0,0.0,0.0,0.0,0.0,0.0,0.0,0.0,0.0,0.0,0.0,0.0,0.0,0.0,0.0,0.0,-2.3814,-2.5889,-2.6294,-2.671,-2.7267,-2.7325,-2.7092,-2.6528,-2.5791,-2.5073,0.0,0.0,0.0,0.0,0.0,0.0,0.0,0.0,0.0,0.0,0.0,0.0,0.0,0.0,0.0,0.0,0.0,0.0,0.0,0.0,0.0,0.0,0.0,0.0,0.0,0.0,0.0,0.0,-3.4101,-3.4594,-3.5118,0.0,0.0,0.0,0.0,0.0,0.0,0.0,0.0,0.0,0.0,-4.5753,-4.6613,-4.6862,0.0,0.0,-4.526,-4.4294,-4.3476,-4.2317,-4.1321,-4.0695,-3.9937,0.0,0.0,0.0,0.0,0.0,0.0,0.0,0.0,0.0,0.0,0.0,0.0,0.0,0.0,0.0,0.0,0.0,0.0,0.0,0.0,0.0,0.0,0.0,0.0,0.0,0.0,0.0,0.0,0.0,0.0,0.0,0.0,0.0,0.0,0.0,0.0,0.0,0.0,0.0,0.0,0.0,0.0,0.0,0.0,0.0,0.0,0.0,0.0,0.0,0.0,0.0,0.0,-2.4601,-2.6586,-2.6899,-2.7392,-2.8119,-2.8131,-2.7903,-2.758,-2.6875,-2.6211,0.0,0.0,0.0,0.0,0.0,0.0,0.0,0.0,0.0,0.0,0.0,0.0,0.0,0.0,0.0,0.0,0.0,0.0,0.0,0.0,0.0,0.0,0.0,0.0,0.0,0.0,0.0,0.0,-3.4643,-3.5148,-3.5667,0.0,0.0,0.0,0.0,0.0,0.0,0.0,0.0,0.0,0.0,-4.6961,-4.7783,-4.8032,-4.7831,-4.7183,-4.6059,-4.4967,-4.402,-4.2633,-4.1604,-4.1261,0.0,0.0,0.0,0.0,0.0,0.0,0.0,0.0,0.0,0.0,0.0,0.0,0.0,0.0,0.0,0.0,0.0,0.0,0.0,0.0,0.0,0.0,0.0,0.0,0.0,0.0,0.0,0.0,0.0,0.0,0.0,0.0,0.0,0.0,0.0,0.0,0.0,0.0,0.0,0.0,0.0,0.0,0.0,0.0,0.0,0.0,0.0,0.0,0.0,0.0,0.0,0.0,0.0,0.0,-2.7162,-2.7384,-2.7898,-2.8755,-2.8791,-2.8645,-2.8419,-2.7589,-2.7058,-2.7035,0.0,0.0,0.0,0.0,0.0,0.0,0.0,0.0,0.0,0.0,0.0,0.0,0.0,0.0,0.0,0.0,0.0,0.0,0.0,0.0,0.0,0.0,0.0,0.0,0.0,0.0,-3.4676,-3.5211,-3.5684,0.0,0.0,0.0,0.0,0.0,0.0,0.0,0.0,0.0,0.0,-4.6864,-4.7273,-4.8059,-4.8247,-4.8192,-4.7977,-4.6546,-4.5312,-4.4791,-4.3124,-4.1805,0.0,0.0,0.0,0.0,0.0,0.0,0.0,0.0,0.0,0.0,0.0,0.0,0.0,0.0,0.0,0.0,0.0,0.0,0.0,0.0,0.0,0.0,0.0,0.0,0.0,0.0,0.0,0.0,0.0,0.0,0.0,0.0,0.0,0.0,0.0,0.0,0.0,0.0,0.0,0.0,-2.3073,-2.3176,0.0,0.0,0.0,0.0,0.0,0.0,0.0,0.0,0.0,0.0,0.0,0.0,-2.6171,-2.7521,-2.8164,-2.8698,-2.9172,-2.9184,-2.9118,-2.8895,-2.8567,-2.8222,-2.7794,0.0,0.0,0.0,0.0,0.0,0.0,0.0,0.0,0.0,0.0,0.0,0.0,0.0,0.0,0.0,0.0,0.0,0.0,0.0,0.0,0.0,0.0,0.0,0.0,0.0,-3.596,0.0,0.0,0.0,0.0,0.0,0.0,0.0,0.0,0.0,0.0,0.0,-4.557,-4.7448,-4.7746,-4.7915,-4.821,-4.8267,-4.8084,0.0,0.0,0.0,0.0,0.0,0.0,0.0,0.0,0.0,0.0,0.0,0.0,0.0,0.0,-3.9039,-3.8091,-3.8014,-3.815,-3.8259,0.0,0.0,0.0,0.0,0.0,0.0,0.0,0.0,0.0,0.0,0.0,0.0,0.0,0.0,0.0,0.0,-1.9355,0.0,0.0,0.0,0.0,0.0,0.0,0.0,0.0,-2.259,-2.3463,-2.4523,-2.4609,-2.4757,0.0,-2.515,-2.4399,0.0,0.0,0.0,0.0,0.0,0.0,0.0,0.0,-2.6912,-2.8114,-2.8662,-2.9113,-2.9484,-2.9509,-2.9443,-2.9378,-2.9209,-2.8872,-2.8203,-2.7332,-2.6552,0.0,0.0,0.0,0.0,0.0,0.0,0.0,0.0,0.0,0.0,0.0,0.0,0.0,0.0,0.0,0.0,0.0,0.0,0.0,0.0,0.0,0.0,0.0,-3.7218,0.0,0.0,0.0,0.0,0.0,0.0,0.0,0.0,0.0,-4.5015,-4.5352,-4.6109,-4.8007,-4.8208,-4.8247,-4.8306,0.0,0.0,0.0,0.0,0.0,0.0,0.0,-4.2145,-4.1934,-4.148,-4.1071,-4.0871,-4.0534,-4.0288,-4.0188,0.0,0.0,-3.8836,-3.8778,-3.8904,-3.8999,-3.9296,-3.9676,-3.9983,-4.0736,-4.1421,0.0,0.0,0.0,0.0,0.0,0.0,0.0,0.0,-2.0166,-2.0,0.0,-1.96,0.0,0.0,0.0,0.0,0.0,0.0,0.0,0.0,-2.3266,-2.4336,-2.5131,-2.4966,-2.5374,-2.62,-2.5734,-2.5793,-2.6394,-2.6012,0.0,0.0,0.0,0.0,0.0,0.0,-2.7628,-2.8813,-2.895,-2.9239,-2.9767,-2.9779,-2.9779,-2.9779,-2.9521,-2.9105,-2.8393,-2.8319,-2.7753,-2.6505,-2.6159,0.0,0.0,0.0,0.0,0.0,0.0,0.0,0.0,0.0,0.0,0.0,0.0,0.0,0.0,0.0,0.0,0.0,0.0,0.0,0.0,-3.7436,0.0,0.0,0.0,0.0,0.0,0.0,0.0,0.0,0.0,0.0,-4.5251,-4.551,-4.6227,-4.7992,0.0,0.0,0.0,0.0,-4.7937,-4.7016,-4.6154,-4.5199,-4.4207,-4.3156,-4.2333,-4.2145,0.0,0.0,-4.0793,-4.0502,-4.0288,-4.0288,-4.0188,-4.0138,-4.0087,-4.0036,-4.0153,-4.0368,-4.0546,-4.0853,-4.1255,-4.1569,-4.1924,-2.237,0.0,0.0,0.0,0.0,-2.1341,-2.1504,-2.1504,-2.1367,-2.1328,-2.1309,-2.1201,0.0,0.0,0.0,0.0,0.0,0.0,-2.3137,-2.3601,-2.419,-2.5044,-2.5903,-2.6017,-2.6447,-2.7129,-2.699,-2.724,-2.7896,-2.7727,-2.7353,-2.6793,0.0,0.0,0.0,0.0,-2.8475,-2.8925,-2.934,-2.9628,-2.9779,-2.9779,-2.9779,-2.9779,-2.9702,-2.9549,-2.9399,-2.8923,-2.8487,-2.8014,-2.7185,0.0,0.0,0.0,0.0,0.0,0.0,0.0,0.0,0.0,0.0,0.0,0.0,0.0,0.0,0.0,0.0,0.0,0.0,0.0,-3.894,-3.9244,-3.934,0.0,0.0,0.0,0.0,0.0,0.0,0.0,0.0,0.0,-4.4692,-4.4857,-4.5516,0.0,0.0,-4.7462,-4.7462,-4.7424,-4.6947,-4.5572,0.0,0.0,0.0,-4.3121,-4.2691,-4.2555,-4.2044,-4.1498,-4.0995,-4.0823,-4.0631,-4.0355,-4.0255,-4.0238,-4.0238,-4.0255,-4.0288,-4.0485,-4.0745,-4.1093,-4.1471,-4.1866,-4.2246,-2.3783,-2.2515,-2.2592,-2.2679,-2.2688,-2.2794,-2.2891,-2.2871,-2.2715,-2.2559,-2.2383,-2.2217,-2.1894,-2.1494,-2.1889,0.0,0.0,0.0,-2.3855,-2.421,-2.469,-2.5341,-2.6113,-2.6467,-2.688,-2.7522,-2.7615,-2.8018,-2.8736,-2.8736,-2.859,-2.826,0.0,0.0,-2.8139,-2.855,-2.8975,-2.9277,-2.9616,-2.9779,-2.9779,-2.9779,-2.9779,-2.9779,-2.9779,-2.9779,-2.9779,-2.9465,-2.9088,-2.88,-2.815,-2.7676,0.0,0.0,0.0,0.0,0.0,0.0,0.0,0.0,0.0,0.0,0.0,-3.3472,0.0,0.0,0.0,0.0,-3.8101,-3.9089,-3.9901,-4.002,0.0,0.0,0.0,0.0,0.0,0.0,0.0,-4.1911,-4.2573,-4.3269,-4.4017,-4.4162,-4.4766,-4.6434,-4.6636,-4.6636,-4.6636,0.0,-4.6177,-4.4892,-4.4638,-4.4327,-4.3522,-4.316,-4.29,-4.2691,-4.2251,-4.1805,-4.1408,-4.118,-4.0901,-4.0631,-4.0502,-4.0453,-4.0453,-4.0453,-4.0502,-4.0631,-4.0888,-4.1198,-4.1604,-4.1952,-4.231,-2.4893,-2.4521,-2.4521,-2.4473,-2.4414,-2.4414,-2.4414,-2.4385,-2.4004,-2.3613,-2.3242,-2.2842,-2.2451,-2.2173,-2.2579,0.0,0.0,-2.3857,-2.4137,-2.4378,-2.4957,-2.555,-2.595,-2.6379,-2.6914,-2.751,-2.7719,-2.8271,-2.904,-2.9052,-2.93,-2.9779,-2.9099,-2.8686,-2.8786,-2.8925,-2.9264,-2.9779,-2.9779,-2.9779,-2.9779,-2.9779,-2.9779,-2.9779,-2.9779,-2.9779,-2.9779,-2.9779,-2.9553,-2.9038,-2.895,-2.8699,-2.8197,0.0,0.0,0.0,0.0,0.0,0.0,0.0,0.0,0.0,0.0,0.0,0.0,0.0,0.0,0.0,-3.9451,0.0,-4.0087,-4.0087,0.0,0.0,0.0,-4.1059,-4.1515,-4.1977,-4.2409,-4.2745,0.0,0.0,0.0,0.0,-4.403,-4.5516,-4.5773,-4.581,-4.5792,-4.581,-4.5516,-4.4672,-4.4546,-4.4217,-4.3558,-4.3251,-4.3012,-4.2709,-4.2369,-4.2086,-4.1866,-4.1542,-4.1226,-4.0948,-4.0823,-4.0745,-4.0745,-4.0762,-4.0793,-4.0935,-4.0995,-4.1226,-4.1736,-4.2019,-4.2292,-2.5518,-2.542,-2.542,-2.5039,-2.4424,-2.4424,-2.4424,-2.4404,-2.4307,-2.4209,-2.4111,-2.4004,-2.4096,-2.4376,-2.4555,-2.4812,-2.5244,-2.5357,-2.5498,-2.5498,-2.5857,-2.5985,-2.6184,-2.6441,-2.6836,-2.729,-2.7522,-2.7938,-2.8669,-2.8973,-2.9197,-2.9509,-2.9474,-2.9514,-2.9514,-2.9591,-2.9654,-2.9779,-2.9779,-2.9779,-2.9779,-2.9779,-2.9779,-2.9779,-2.9779,-2.9779,-2.9779,-2.9779,-2.9729,-2.9591,-2.9164,-2.8875,-2.8737,-2.8629,0.0,0.0,0.0,0.0,0.0,0.0,0.0,0.0,0.0,-3.5301,-3.6227,0.0,-3.8293,0.0,-3.9504,-3.9935,-4.007,-4.0087,0.0,0.0,-4.0631,-4.0918,-4.138,-4.1762,-4.2187,-4.2609,-4.2918,-4.3196,-4.3394,-4.3481,-4.3626,-4.403,-4.4599,-4.4984,-4.4984,-4.5002,-4.4709,-4.3975,-4.3809,-4.3683,-4.3536,-4.3411,-4.3196,-4.29,-4.2673,-4.2436,-4.2103,-4.1874,-4.1596,-4.1209,-4.1117,-4.1059,-4.1047,-4.1059,-4.118,-4.138,-4.1471,-4.1587,-4.1934,-4.2292,-4.2634,-2.5732,-2.5732,-2.5732,-2.5449,-2.501,-2.501,-2.501,-2.5,-2.5,-2.4893,-2.4697,-2.4502,-2.4608,-2.4995,-2.4995,-2.526,-2.5523,-2.5523,-2.5513,-2.5603,-2.5896,-2.602,-2.6055,-2.6671,-2.7125,-2.7358,-2.779,-2.8302,-2.888,-2.9289,-2.9589,-2.9843,-2.9928,-2.9974,-2.9961,-2.9827,-2.9779,-2.9779,-2.9779,-2.9779,-2.9779,-2.9779,-2.9779,-2.9779,-2.9779,-2.9779,-2.9779,-2.9779,-2.9779,-2.9779,-2.9478,-2.9315,-2.9302,-2.9389,-2.9464,0.0,0.0,0.0,0.0,0.0,0.0,0.0,0.0,0.0,0.0,0.0,-3.8672,0.0,-3.9661,0.0,-4.0087,-4.0087,-4.0171,-4.0387,-4.06,-4.0888,-4.1272,-4.1657,-4.2044,-4.2454,-4.2786,-4.3068,-4.3251,-4.334,-4.3393,-4.3428,-4.3831,-4.4141,-4.4176,-4.4176,-4.3993,-4.3571,-4.3479,-4.3479,-4.3479,-4.3446,-4.3359,-4.3142,-4.292,-4.2691,-4.2396,-4.221,-4.1977,-4.1613,-4.148,-4.1453,-4.1443,-4.1453,-4.1631,-4.1849,-4.2002,-4.2127,-4.221,-4.2516,-4.2844,-2.5732,-2.5732,-2.5732,-2.5732,-2.5732,-2.5732,-2.5732,-2.5732,-2.5732,-2.5518,-2.5127,-2.4746,-2.4683,-2.497,-2.4961,-2.5053,-2.5237,-2.5329,-2.5237,-2.5329,-2.5727,-2.597,-2.5999,-2.6779,-2.7292,-2.7503,-2.8215,-2.8723,-2.9141,-2.964,-3.0062,-3.0325,-3.0261,-3.027,-3.0313,-2.9986,-2.9854,-2.9792,-2.9779,-2.9779,-2.9779,-2.9779,-2.9779,-2.9779,-2.9779,-2.9779,-2.9779,-2.9779,-2.9779,-2.9779,-2.9779,-2.9779,-2.9792,-3.0152,-3.0302,0.0,-3.0868,0.0,0.0,0.0,0.0,0.0,0.0,0.0,0.0,-3.8024,-3.8766,-3.9573,-3.9781,-3.9935,-4.0087,-4.007,-4.0138,-4.0305,-4.0551,-4.0823,-4.1117,-4.1569,-4.1959,-4.2315,-4.2634,-4.29,-4.3067,-4.3105,-4.3214,-4.3323,-4.3395,-4.3449,-4.3446,-4.3552,-4.3534,-4.3479,-4.3479,-4.3479,-4.3497,-4.3428,-4.3429,-4.3376,-4.3178,-4.292,-4.275,-4.2534,-4.2269,-4.2044,-4.1934,-4.1849,-4.1866,-4.1934,-4.2061,-4.2287,-4.2552,-4.2652,-4.2534,-4.2747,-4.3013,-2.5732,-2.5732,-2.5732,-2.5732,-2.5732,-2.5732,-2.5732,-2.5732,-2.5732,-2.5693,-2.5605,-2.5527,-2.5575,-2.5853,-2.5853,-2.5958,-2.6245,-2.6245,-2.6255,-2.6235,-2.634,-2.6421,-2.6444,-2.6597,-2.6774,-2.7082,-2.758,-2.793,-2.8192,-2.9056,-2.9579,-2.9821,-3.0157,-3.0511,0.0,0.0,0.0,0.0,-2.9779,-2.9779,-2.9779,-2.9779,-2.9779,-2.9779,-2.9779,0.0,-2.9779,-2.9779,-2.9779,-2.9779,-2.9779,0.0,0.0,0.0,0.0,0.0,0.0,0.0,0.0,0.0,0.0,0.0,-3.5533,-3.626,-3.721,-3.8132,-3.8931,-3.9309,-3.9694,-3.9901,-3.9952,-4.002,-4.0138,-4.0288,-4.0453,-4.0631,-4.0918,-4.1272,-4.1631,-4.1959,-4.2274,-4.2573,-4.2804,-4.29,-4.3031,-4.3123,-4.3141,-4.316,-4.3251,-4.3375,-4.3479,-4.3479,-4.3479,-4.3479,-4.3479,-4.3497,-4.3481,-4.3411,-4.3359,-4.3233,-4.3049,-4.2862,-4.2709,-4.249,-4.2391,-4.2287,-4.2246,-4.2369,-4.2472,-4.253,-4.2822,-4.2974,-4.2862,-4.3068,-4.3323,-2.625,0.0,-2.6064,-2.5937,0.0,-2.5732,-2.5732,-2.5732,-2.5732,-2.5732,-2.5732,-2.5732,-2.5732,-2.5917,-2.5927,-2.6014,-2.612,-2.612,-2.612,-2.611,-2.6207,-2.6365,-2.6513,-2.6806,-2.7055,-2.7306,-2.7763,-2.8127,-2.8376,-2.9092,-2.9535,-2.9975,-3.026,-3.064,-3.0942,-3.0474,-3.0057,-2.9792,-2.9779,-2.9779,-2.9779,-2.9779,-2.9779,-2.9779,0.0,0.0,0.0,0.0,0.0,0.0,0.0,0.0,0.0,0.0,0.0,-3.0698,-3.1272,-3.1909,-3.2632,-3.3409,-3.4113,-3.4735,-3.5574,-3.6461,-3.7389,-3.8075,-3.8639,-3.9094,-3.9432,-3.9694,-3.9901,-3.9935,-4.0037,-4.0188,-4.0337,-4.0485,-4.0793,-4.1041,-4.1346,-4.1719,-4.2002,-4.2251,-4.2432,-4.2552,-4.267,-4.2804,-4.286,-4.288,-4.305,-4.3232,-4.3358,-4.3428,-4.3497,-4.3479,-4.3479,-4.3479,-4.3463,-4.3429,-4.3359,-4.3233,-4.3104,-4.2956,-4.2804,-4.2706,-4.2609,-4.2472,-4.253,-4.2649,-4.2765,-4.2842,-4.3049,-4.3196,-4.3178,-4.3305,-4.3394,-2.6816,-2.6494,-2.6494,-2.6299,-2.5957,-2.5889,-2.581,-2.5732,0.0,0.0,0.0,-2.5732,-2.5732,-2.5732,-2.5732,-2.5732,-2.5732,-2.5732,-2.5732,-2.5732,-2.5917,-2.6207,-2.6496,-2.687,-2.7167,-2.7441,-2.7925,-2.8301,-2.856,-2.9024,-2.9485,-3.0,-3.0248,-3.0517,-3.0783,-3.0655,-3.0306,-2.9877,-2.9829,-2.9779,-2.9779,-2.9779,-2.9779,-2.9779,-2.9779,-2.9779,-2.9779,-2.9779,-2.9779,-2.9779,-2.9779,-2.9779,-2.9792,-2.9934,-3.0228,-3.0622,-3.111,-3.1776,-3.2489,-3.3199,-3.3908,-3.4631,-3.5524,-3.6461,-3.7464,-3.7801,-3.8262,-3.8805,-3.9077,-3.9379,-3.9729,-3.9798,-3.9884,-4.0037,-4.0188,-4.0337,-4.06,-4.0823,-4.1071,-4.1453,-4.1657,-4.1831,-4.1977,-4.2103,-4.2246,-4.2432,-4.249,-4.2552,-4.2786,-4.3013,-4.3214,-4.3323,-4.3376,-4.3463,-4.3444,-4.341,-4.3428,-4.3359,-4.3233,-4.3142,-4.3049,-4.2917,-4.2822,-4.2804,-4.2727,-4.2688,-4.2765,-4.288,-4.2975,-4.3104,-4.3269,-4.3429,-4.3429,-4.3429,-4.3411,-2.6982,-2.6934,-2.6934,-2.6894,-2.6807,-2.6445,-2.6084,-2.5742,-2.5732,-2.5732,-2.5732,-2.5732,-2.5732,-2.5732,-2.5732,-2.5732,-2.5732,-2.5732,-2.5732,0.0,-2.5732,-2.5917,-2.6187,-2.6284,-2.639,-2.6688,-2.6955,-2.7241,-2.7536,-2.7998,-2.856,-2.9209,-2.9704,-3.0252,-3.0781,-3.1392,-3.1158,-3.0139,-2.9939,-2.9779,-2.9779,-2.9779,-2.9779,-2.9779,-2.9779,-2.9779,-2.9779,-2.9779,-2.9779,-2.9779,-2.9779,-2.9779,-2.9792,-2.9869,-3.0011,-3.0444,-3.0685,-3.1136,-3.195,-3.2503,-3.3409,-3.4549,-3.5228,-3.5925,-3.6785,-3.7389,-3.786,-3.823,-3.8623,-3.904,-3.9325,-3.9501,-3.959,-3.9729,-3.9969,-4.0121,-4.0188,-4.0485,-4.0823,-4.1041,-4.1209,-4.1391,-4.1587,-4.1675,-4.178,-4.1934,-4.2019,-4.2086,-4.2391,-4.2822,-4.3104,-4.3141,-4.3196,-4.3232,-4.3232,-4.3232,-4.3214,-4.3123,-4.3104,-4.3049,-4.29,-4.2804,-4.2783,-4.2862,-4.2765,-4.2765,-4.2862,-4.3068,-4.3142,-4.3196,-4.3322,-4.3463,-4.3463,-4.3444,-4.3481,-2.7578,-2.7383,-2.7373,-2.7226,-2.6992,-2.6807,-2.6611,-2.6435,-2.6426,-2.6162,-2.5742,-2.5732,-2.5732,-2.5732,-2.5732,-2.5732,-2.5732,-2.5732,-2.5732,-2.5732,-2.5732,-2.583,-2.61,-2.61,-2.6294,-2.6506,-2.6592,-2.687,-2.7051,-2.7431,-2.7914,-2.8571,-2.9405,-3.0214,-3.0849,-3.1172,-3.1062,-3.0535,-3.0348,-3.0093,-2.9792,-2.9779,-2.9779,-2.9779,-2.9779,-2.9779,-2.9779,-2.9779,-2.9779,-2.9779,-2.9779,-2.9779,-2.9779,-2.9779,-2.9934,-3.0228,-3.0546,-3.0924,-3.1508,-3.2359,-3.3269,-3.4278,-3.4831,-3.5344,-3.5988,-3.6723,-3.7373,-3.7844,-3.8132,-3.8511,-3.8985,-3.9094,-3.9202,-3.9435,-3.9609,-3.9781,-3.9884,-4.0104,-4.0387,-4.0662,-4.0806,-4.0901,-4.118,-4.118,-4.129,-4.148,-4.1613,-4.1805,-4.1909,-4.221,-4.2552,-4.2783,-4.2956,-4.2995,-4.3032,-4.305,-4.2975,-4.2842,-4.2804,-4.2765,-4.2631,-4.2512,-4.2552,-4.2613,-4.2591,-4.267,-4.2862,-4.2957,-4.305,-4.3214,-4.3322,-4.3446,-4.3446,-4.3463,-4.3479,-2.8105,-2.7812,-2.7812,-2.7568,-2.7158,-2.7158,-2.7109,-2.7012,-2.7002,-2.6641,-2.6064,-2.5928,-2.583,-2.5732,-2.5732,-2.5732,-2.5732,-2.5732,-2.5732,-2.5732,-2.5732,-2.582,-2.6004,-2.6004,-2.61,-2.6314,-2.6314,-2.6486,-2.6764,-2.6965,-2.7347,-2.7998,-2.9035,-2.9966,-3.0668,-3.0802,-3.0711,-3.0599,-3.0592,-3.039,-2.9829,-2.9779,-2.9779,-2.9779,-2.9779,-2.9779,-2.9779,-2.9779,-2.9779,-2.9779,-2.9779,-2.9779,-2.9779,-2.9779,-2.9869,-3.0075,-3.0381,-3.0761,-3.1347,-3.2273,-3.3129,-3.3839,-3.4264,-3.4765,-3.5309,-3.591,-3.6646,-3.7329,-3.7594,-3.7927,-3.8455,-3.8567,-3.8733,-3.9007,-3.9185,-3.9379,-3.952,-3.9625,-3.9884,-4.0221,-4.0337,-4.0419,-4.068,-4.0776,-4.0871,-4.1088,-4.1272,-4.1426,-4.1471,-4.1631,-4.1917,-4.221,-4.2534,-4.2729,-4.2768,-4.2747,-4.267,-4.2472,-4.2432,-4.2351,-4.2187,-4.2163,-4.2187,-4.2269,-4.2292,-4.2414,-4.2691,-4.2824,-4.29,-4.3068,-4.3196,-4.3323,-4.334,-4.3393,-4.3479,-2.8271,-2.8242,-2.8213,-2.7998,-2.7617,-2.7598,-2.7393,-2.707,-2.7021,-2.6982,-2.6846,-2.6504,-2.6123,-2.5762,-2.5752,-2.5752,-2.5752,-2.5732,-2.5732,-2.5732,-2.5732,-2.5732,-2.5742,-2.5732,-2.5732,-2.583,-2.583,-2.5927,-2.6197,-2.6197,-2.6668,-2.7631,-2.8466,-2.9209,-2.9966,-3.0531,-3.0636,-3.0074,-3.0526,-3.0419,-2.9854,-2.9779,-2.9779,-2.9779,-2.9779,-2.9779,-2.9779,-2.9779,-2.9779,-2.9779,-2.9779,-2.9779,-2.9779,-2.9779,-2.9869,-3.0088,-3.0152,-3.0444,-3.1272,-3.2055,-3.2632,-3.3058,-3.3632,-3.4113,-3.4683,-3.4935,-3.5574,-3.6523,-3.6921,-3.7266,-3.787,-3.8001,-3.8116,-3.8432,-3.8694,-3.886,-3.8914,-3.9115,-3.9382,-3.9713,-3.9764,-3.9918,-4.0238,-4.0337,-4.0436,-4.0697,-4.0823,-4.0965,-4.1012,-4.1117,-4.13,-4.1463,-4.1874,-4.2269,-4.231,-4.2369,-4.2228,-4.2002,-4.1959,-4.1892,-4.1736,-4.1692,-4.1736,-4.1874,-4.1917,-4.2044,-4.2333,-4.2552,-4.2649,-4.2804,-4.2974,-4.3123,-4.3233,-4.3286,-4.3393,-2.8301,-2.8301,-2.8301,-2.8193,-2.8047,-2.8037,-2.793,-2.7773,-2.7764,-2.7637,-2.7393,-2.7217,-2.6904,-2.6475,-2.623,-2.6123,-2.6103,-2.5859,-2.5732,-2.5732,-2.5732,-2.5732,-2.5732,-2.5732,-2.5732,-2.5732,-2.5732,-2.5732,-2.5917,-2.6004,-2.6486,-2.7146,-2.7799,-2.8384,-2.9046,-2.9874,-3.009,-2.9591,-3.0062,-3.0049,-2.9658,-2.9702,-2.9779,-2.9779,-2.9779,-2.9779,-2.9779,-2.9779,-2.9779,-2.9779,-2.9779,-2.9779,-2.9779,-2.9779,-2.9869,-2.9946,-2.9998,-3.0381,-3.1048,-3.1482,-3.1982,-3.2632,-3.2917,-3.3409,-3.4128,-3.4332,-3.4773,-3.5509,-3.607,-3.6616,-3.7207,-3.7326,-3.746,-3.777,-3.8075,-3.8286,-3.8286,-3.8511,-3.886,-3.9131,-3.9185,-3.9345,-3.9729,-3.9952,-4.0104,-4.0255,-4.0337,-4.0436,-4.0534,-4.0662,-4.0806,-4.0965,-4.1226,-4.1542,-4.1805,-4.1892,-4.1762,-4.1569,-4.1463,-4.1391,-4.1244,-4.1198,-4.1244,-4.1436,-4.148,-4.1657,-4.2044,-4.2127,-4.2228,-4.245,-4.2649,-4.2842,-4.3013,-4.3142,-4.3233,-2.8184,-2.8301,-2.8301,-2.8301,-2.8301,-2.8301,-2.8301,-2.8301,-2.8301,-2.8115,-2.7851,-2.7842,-2.7666,-2.7324,-2.6807,-2.6562,-2.6504,-2.6113,-2.5918,-2.5898,-2.5801,-2.5732,-2.5732,-2.5732,-2.5732,-2.5732,-2.5732,-2.5732,-2.5732,-2.5917,-2.6187,-2.6668,-2.7061,-2.7536,-2.8207,-2.9046,-2.9297,-2.9063,-2.947,-2.9532,-2.9266,-2.9456,-2.9714,-2.9779,-2.9779,-2.9779,-2.9779,-2.9779,-2.9779,-2.9779,-2.9779,-2.9779,-2.9779,-2.9779,-2.9779,-2.9792,-3.0011,-3.0305,-3.0761,-3.1061,-3.1495,-3.2055,-3.2359,-3.2775,-3.3339,-3.3701,-3.4045,-3.4587,-3.5118,-3.5752,-3.6554,-3.6662,-3.6799,-3.7134,-3.746,-3.7621,-3.7637,-3.7902,-3.8246,-3.8511,-3.8583,-3.875,-3.9218,-3.952,-3.9729,-3.9713,-3.9816,-3.9986,-4.0104,-4.0238,-4.037,-4.0502,-4.0631,-4.0918,-4.1335,-4.1426,-4.1272,-4.118,-4.1071,-4.0995,-4.0823,-4.0776,-4.084,-4.1088,-4.1088,-4.1209,-4.1552,-4.1701,-4.1849,-4.2103,-4.2328,-4.249,-4.267,-4.2842,-4.2936,-2.8067,-2.8291,-2.8301,-2.8301,-2.8301,-2.8301,-2.8301,-2.8301,-2.8301,-2.8271,-2.8232,-2.8242,-2.8242,-2.8135,-2.7363,-2.7002,-2.6934,-2.6553,-2.6357,-2.6318,-2.5957,-2.5742,-2.5732,-2.5732,-2.5732,-2.5732,-2.5732,-2.5732,-2.5732,-2.5742,-2.582,-2.6091,-2.6486,-2.6976,-2.7631,-2.8164,-2.8448,-2.8381,-2.8752,-2.8868,-2.8643,-2.8895,-2.9378,-2.9714,-2.9779,-2.9779,-2.9779,-2.9779,-2.9779,-2.9779,-2.9779,-2.9779,-2.9779,-2.9779,-2.9779,-2.9779,-3.0011,-3.0088,-3.0228,-3.0685,-3.1136,-3.1347,-3.1716,-3.2155,-3.2704,-3.2988,-3.3339,-3.3839,-3.4099,-3.4773,-3.5767,-3.5958,-3.6163,-3.6538,-3.6799,-3.689,-3.6951,-3.7298,-3.7594,-3.787,-3.8001,-3.823,-3.875,-3.9044,-3.9206,-3.9276,-3.9398,-3.9537,-3.959,-3.9729,-3.9935,-4.0087,-4.0238,-4.0436,-4.0823,-4.0965,-4.0935,-4.0776,-4.0728,-4.0697,-4.0583,-4.0534,-4.0631,-4.0697,-4.0776,-4.0948,-4.1163,-4.1346,-4.1587,-4.1762,-4.1849,-4.2044,-4.2251,-4.249,-4.257,-2.8077,-2.8301,-2.8301,-2.8301,-2.8301,-2.8301,-2.8301,-2.8301,-2.8301,-2.8301,-2.8301,-2.8301,-2.8301,-2.8271,-2.7978,-2.7695,-2.7412,-2.6982,-2.6787,-2.6738,-2.6348,-2.6162,-2.6133,-2.5879,-2.5732,-2.5732,-2.5732,-2.5732,-2.5732,-2.5732,-2.5742,-2.5927,-2.611,-2.6486,-2.6914,-2.7243,-2.7495,-2.7602,-2.7962,-2.8124,-2.8342,-2.8578,-2.8973,-2.9509,-2.9714,-2.9779,-2.9779,-2.9779,-2.9779,-2.9779,-2.9779,-2.9779,-2.9779,-2.9779,-2.9779,-2.9779,-2.9869,-2.9934,-3.0075,-3.0318,-3.0533,-3.0911,-3.1136,-3.1495,-3.1909,-3.2345,-3.2775,-3.3058,-3.3409,-3.3962,-3.4438,-3.4971,-3.5509,-3.5958,-3.6211,-3.6383,-3.6445,-3.6693,-3.6952,-3.7282,-3.7578,-3.8001,-3.8173,-3.8528,-3.8655,-3.8711,-3.8821,-3.8931,-3.904,-3.9202,-3.9415,-3.9642,-3.9746,-3.9849,-4.007,-4.0485,-4.0583,-4.0485,-4.0436,-4.0387,-4.0288,-4.0288,-4.0337,-4.0436,-4.0534,-4.068,-4.0853,-4.1041,-4.1226,-4.1363,-4.148,-4.1587,-4.1805,-4.2019,-4.2103,-2.796,-2.8184,-2.8291,-2.8301,-2.8301,-2.8301,-2.8301,-2.8301,-2.8301,-2.8301,-2.8301,-2.8301,-2.8301,-2.8301,-2.8301,-2.8154,-2.7842,-2.7422,-2.7226,-2.7187,-2.6787,-2.6523,-2.6357,-2.6084,-2.5869,-2.5752,-2.5732,-2.5732,-2.5732,-2.5732,-2.5732,-2.5732,-2.5917,-2.611,-2.632,-2.6619,-2.6799,-2.6939,-2.7159,-2.7451,-2.7754,-2.8087,-2.8578,-2.9118,-2.9456,-2.9702,-2.9779,-2.9779,-2.9779,-2.9779,-2.9779,-2.9779,-2.9779,-2.9779,-2.9779,-2.9779,-2.9779,-2.9869,-3.0011,-3.0075,-3.0228,-3.047,-3.0685,-3.0973,-3.1347,-3.1776,-3.2128,-3.2345,-3.2704,-3.3058,-3.3479,-3.3962,-3.4572,-3.5249,-3.5589,-3.5782,-3.5973,-3.6163,-3.6399,-3.6677,-3.7207,-3.7519,-3.7637,-3.7886,-3.8033,-3.8107,-3.8246,-3.8415,-3.8511,-3.8694,-3.8931,-3.9218,-3.9255,-3.9345,-3.9556,-3.9918,-4.0171,-4.0138,-4.0188,-4.0138,-4.0138,-4.0087,-4.0138,-4.0188,-4.0288,-4.0387,-4.0534,-4.068,-4.0853,-4.0977,-4.1088,-4.1134,-4.1363,-4.1525,-4.1613,-2.7843,-2.796,-2.8184,-2.8291,-2.8301,-2.8301,-2.8301,-2.8301,-2.8301,-2.8301,-2.8301,-2.8301,-2.8301,-2.8301,-2.8301,-2.8281,-2.8164,-2.7832,-2.7676,-2.7627,-2.7217,-2.6826,-2.6514,-2.6387,-2.6094,-2.5752,-2.5732,-2.5732,-2.5732,-2.5732,-2.5732,-2.5732,-2.5732,-2.5927,-2.6091,-2.6118,-2.6136,-2.6225,-2.6443,-2.665,-2.6948,-2.7499,-2.8075,-2.8498,-2.904,-2.9443,-2.9702,-2.9779,-2.9779,-2.9779,-2.9779,-2.9779,-2.9779,-2.9779,-2.9779,-2.9779,-2.9779,-2.9792,-2.9856,-3.0011,-3.0075,-3.0152,-3.0305,-3.0533,-3.0761,-3.1136,-3.1421,-3.1629,-3.1909,-3.2273,-3.2632,-3.2988,-3.3548,-3.4481,-3.5016,-3.5294,-3.5489,-3.5653,-3.5816,-3.6196,-3.6677,-3.689,-3.6966,-3.7222,-3.7417,-3.7476,-3.7637,-3.7886,-3.787,-3.8132,-3.8472,-3.8694,-3.875,-3.8843,-3.9077,-3.9362,-3.9625,-3.9781,-3.9884,-3.9935,-4.0037,-4.002,-4.0087,-4.0138,-4.0188,-4.0288,-4.0337,-4.0485,-4.0534,-4.0662,-4.068,-4.0776,-4.0965,-4.1134,-4.1163,-2.7305,-2.7853,-2.796,-2.8184,-2.8291,-2.8301,-2.8301,-2.8301,-2.8301,-2.8301,-2.8301,-2.8301,-2.8301,-2.8301,-2.8301,-2.8301,-2.8281,-2.8144,-2.8096,-2.8008,-2.7646,-2.7393,-2.7168,-2.666,-2.6162,-2.5801,-2.5732,-2.5732,-2.5732,-2.5732,-2.5732,-2.5732,-2.5732,-2.5732,-2.579,-2.5491,-2.5371,-2.5653,-2.5556,-2.5752,-2.6373,-2.6951,-2.7522,-2.8259,-2.8657,-2.8986,-2.93,-2.9624,-2.9779,-2.9779,-2.9779,-2.9779,-2.9779,-2.9779,-2.9779,-2.9779,-2.9779,-2.9779,-2.9779,-2.9856,-2.9869,-2.9934,-3.0075,-3.0228,-3.0318,-3.0698,-3.0911,-3.0986,-3.1347,-3.169,-3.1909,-3.2345,-3.2988,-3.3991,-3.4414,-3.475,-3.4964,-3.5344,-3.5668,-3.5816,-3.618,-3.6368,-3.643,-3.6631,-3.6769,-3.6831,-3.7042,-3.7222,-3.7266,-3.7519,-3.7828,-3.8116,-3.8173,-3.8286,-3.8583,-3.8788,-3.8952,-3.9276,-3.9451,-3.9729,-3.9833,-3.9935,-3.9986,-4.0037,-4.0138,-4.0188,-4.0238,-4.0288,-4.0337,-4.0387,-4.0436,-4.0534,-4.0631,-4.0728,-4.0806,-2.698,-2.7745,-2.7853,-2.8067,-2.8291,-2.8301,-2.8301,-2.8301,-2.8301,-2.8301,-2.8301,-2.8301,-2.8301,-2.8301,-2.8301,-2.8301,-2.8301,-2.8301,-2.8301,-2.8262,-2.8047,-2.7822,-2.7578,-2.6787,-2.626,-2.5996,-2.581,-2.5732,-2.5732,-2.5732,-2.5732,-2.5732,-2.5732,-2.5732,-2.5684,-2.5332,-2.5165,-2.5189,-2.5083,-2.521,-2.5738,-2.629,-2.6962,-2.7603,-2.8087,-2.8419,-2.8895,-2.9221,-2.9534,-2.9611,-2.9714,-2.9792,-2.9779,-2.9779,-2.9779,-2.9779,-2.9779,-2.9779,-2.9779,-2.9779,-2.9779,-2.9779,-2.9934,-3.0011,-3.0088,-3.0318,-3.047,-3.0546,-3.0748,-3.1048,-3.1272,-3.1703,-3.2273,-3.2917,-3.3646,-3.421,-3.4549,-3.5082,-3.5344,-3.5574,-3.5816,-3.5943,-3.6085,-3.6148,-3.6289,-3.6352,-3.6507,-3.6616,-3.6738,-3.6921,-3.7222,-3.746,-3.7578,-3.777,-3.796,-3.8189,-3.8327,-3.8678,-3.9007,-3.9362,-3.9642,-3.9694,-3.9746,-3.9884,-3.9935,-4.0003,-4.0037,-4.0138,-4.0188,-4.0188,-4.0238,-4.0288,-4.0387,-4.0436,-4.0583,-2.6881,-2.7431,-2.7745,-2.8067,-2.8291,-2.8301,-2.8301,-2.8301,-2.8301,-2.8301,-2.8301,-2.8301,-2.8301,-2.8301,-2.8301,-2.8301,-2.8301,-2.8301,-2.8301,-2.8301,-2.8223,-2.8047,-2.7588,-2.6855,-2.6455,-2.6279,-2.5928,-2.5742,-2.5732,-2.5732,-2.5732,-2.5732,-2.5732,-2.5732,-2.5644,-2.5464,-2.5189,-2.4965,-2.4974,-2.4964,-2.4977,-2.5695,-2.6362,-2.688,-2.7429,-2.7914,-2.8339,-2.8736,-2.9028,-2.9341,-2.9689,-2.9779,-2.9779,-2.9779,-2.9779,-2.9779,-2.9779,-2.9779,-2.9779,-2.9779,-2.9779,-2.9779,-2.9779,-2.9779,-2.9856,-3.0011,-3.0088,-3.0152,-3.0305,-3.0533,-3.0698,-3.1061,-3.1421,-3.1776,-3.2874,-3.373,-3.4332,-3.4817,-3.5082,-3.5213,-3.5444,-3.5688,-3.5703,-3.5831,-3.5973,-3.5973,-3.6085,-3.6196,-3.6258,-3.6445,-3.6677,-3.686,-3.7042,-3.7178,-3.7373,-3.7578,-3.7738,-3.7911,-3.8311,-3.8788,-3.9309,-3.9432,-3.9537,-3.9625,-3.9729,-3.9833,-3.9901,-3.9935,-4.0037,-4.0087,-4.0087,-4.0087,-4.0188,-4.0288,-4.0337,-2.6218,-2.7098,-2.7431,-2.7862,-2.8291,-2.8301,-2.8301,-2.8301,-2.8301,-2.8301,-2.8301,-2.8301,-2.8301,-2.8301,-2.8301,-2.8301,-2.8301,-2.8301,-2.8301,-2.8301,-2.8301,-2.8066,-2.7646,-2.7119,-2.6689,-2.6387,-2.6006,-2.5732,-2.5732,-2.5732,-2.5732,-2.5732,-2.5732,-2.5732,-2.5664,-2.5398,-2.5041,-2.4802,-2.4456,-2.448,-2.4623,-2.5041,-2.5611,-2.6362,-2.6869,-2.736,-2.7765,-2.8486,-2.9003,-2.9344,-2.9664,-2.9779,-2.9779,-2.9779,-2.9779,-2.9779,-2.9779,-2.9779,-2.9779,-2.9779,-2.9779,-2.9779,-2.9779,-2.9779,-2.9779,-2.9856,-2.9856,-2.9934,-3.0088,-3.0228,-3.0318,-3.0609,-3.1048,-3.1629,-3.2503,-3.3283,-3.3854,-3.4332,-3.4683,-3.4831,-3.5133,-3.5264,-3.5394,-3.5539,-3.5634,-3.5668,-3.5782,-3.5816,-3.5958,-3.6085,-3.6321,-3.6321,-3.6445,-3.6569,-3.6693,-3.6966,-3.7131,-3.7191,-3.7605,-3.81,-3.8678,-3.9131,-3.9239,-3.9329,-3.9451,-3.952,-3.9642,-3.9694,-3.9798,-3.9901,-3.9952,-3.9935,-4.0037,-4.0188,-4.0188,-2.5542,-2.6663,-2.7098,-2.7647,-2.8077,-2.8291,-2.8301,-2.8301,-2.8301,-2.8301,-2.8301,-2.8301,-2.8301,-2.8301,-2.8301,-2.8301,-2.8301,-2.8301,-2.8301,-2.8301,-2.8301,-2.8154,-2.7871,-2.749,-2.707,-2.6641,-2.6211,-2.5928,-2.5762,-2.5732,-2.5732,-2.5732,-2.5732,-2.5732,-2.5732,-2.5498,-2.5222,-2.4893,-2.4552,-2.4386,-2.4328,-2.4537,-2.4946,-2.5622,-2.6135,-2.6622,-2.7441,-2.8247,-2.8937,-2.9356,-2.9651,-2.9779,-2.9779,-2.9779,-2.9779,-2.9779,-2.9779,-2.9779,-2.9779,-2.9779,-2.9779,-2.9779,-2.9779,-2.9779,-2.9779,-2.9779,-2.9779,-2.9779,-2.9946,-2.9934,-3.0011,-3.0241,-3.0685,-3.1198,-3.185,-3.2561,-3.3269,-3.3839,-3.4128,-3.4399,-3.4683,-3.4964,-3.5016,-3.5228,-3.5359,-3.5424,-3.5539,-3.5589,-3.5653,-3.5782,-3.5894,-3.5958,-3.6085,-3.6211,-3.6336,-3.6492,-3.6738,-3.6799,-3.7027,-3.7578,-3.8042,-3.8623,-3.8788,-3.8898,-3.9077,-3.9202,-3.9255,-3.9362,-3.952,-3.9625,-3.9677,-3.9781,-3.9884,-4.0003,-3.9986,-2.4991,-2.6017,-2.6663,-2.7314,-2.7843,-2.8067,-2.8184,-2.8291,-2.8301,-2.8301,-2.8301,-2.8301,-2.8301,-2.8301,-2.8301,-2.8301,-2.8301,-2.8301,-2.8301,-2.8301,-2.8301,-2.8252,-2.8184,-2.7783,-2.7363,-2.6943,-2.6572,-2.6143,-2.583,-2.5732,-2.5732,-2.5732,-2.5732,-2.5732,-2.5732,-2.5693,-2.5488,-2.5114,-2.4756,-2.4505,-2.4157,-2.4149,-2.4368,-2.4871,-2.5454,-2.6196,-2.7185,-2.8007,-2.8633,-2.9254,-2.9586,-2.9702,-2.9779,-2.9779,-2.9779,-2.9779,-2.9779,-2.9779,-2.9779,-2.9779,-2.9779,-2.9779,-2.9779,-2.9779,-2.9779,-2.9779,-2.9779,-2.9779,-2.9779,-2.9792,-2.9869,-3.0011,-3.0318,-3.0685,-3.1048,-3.1629,-3.2417,-3.3199,-3.3701,-3.377,-3.4182,-3.4549,-3.4683,-3.4883,-3.5148,-3.5294,-3.5424,-3.5489,-3.5539,-3.5668,-3.5718,-3.5703,-3.5831,-3.591,-3.5958,-3.6085,-3.6274,-3.6399,-3.6693,-3.7118,-3.7417,-3.7828,-3.8132,-3.8375,-3.8472,-3.8639,-3.8694,-3.886,-3.9131,-3.9292,-3.9362,-3.9468,-3.9609,-3.9746,-3.9798,-2.4556,-2.545,-2.6327,-2.6871,-2.7206,-2.7745,-2.796,-2.796,-2.8184,-2.8291,-2.8301,-2.8301,-2.8301,-2.8301,-2.8301,-2.8301,-2.8301,-2.8301,-2.8301,-2.8301,-2.8301,-2.8301,-2.8213,-2.7891,-2.7461,-2.7041,-2.6602,-2.6172,-2.585,-2.5762,-2.5732,-2.5732,-2.5732,-2.5732,-2.5732,-2.5723,-2.5518,-2.5068,-2.4741,-2.4411,-2.4088,-2.3829,-2.3937,-2.4358,-2.5115,-2.5957,-2.688,-2.7452,-2.8007,-2.8633,-2.9118,-2.9521,-2.9702,-2.9779,-2.9779,-2.9792,-2.9792,-2.9792,-2.9779,-2.9779,-2.9779,-2.9779,-2.9779,-2.9779,-2.9779,-2.9779,-2.9779,-2.9779,-2.9779,-2.9779,-2.9792,-3.0011,-3.0164,-3.0318,-3.0622,-3.0911,-3.1272,-3.22,-3.2846,-3.3058,-3.3563,-3.4059,-3.4196,-3.4549,-3.4817,-3.5096,-3.5294,-3.5374,-3.5424,-3.5554,-3.5539,-3.5589,-3.5589,-3.5733,-3.5797,-3.5846,-3.6022,-3.6163,-3.6399,-3.6585,-3.6876,-3.7118,-3.7492,-3.7727,-3.7886,-3.8001,-3.8116,-3.8359,-3.8583,-3.875,-3.8969,-3.9077,-3.9185,-3.9362,-3.9554,-2.3664,-2.4454,-2.5441,-2.6218,-2.6663,-2.7196,-2.7638,-2.7853,-2.8067,-2.8184,-2.8291,-2.8301,-2.8301,-2.8301,-2.8301,-2.8301,-2.8301,-2.8301,-2.8301,-2.8301,-2.8301,-2.8301,-2.8271,-2.8066,-2.7734,-2.7305,-2.6894,-2.6455,-2.6113,-2.584,-2.5732,-2.5732,-2.5732,-2.5732,-2.5732,-2.5732,-2.5625,-2.5312,-2.4736,-2.4297,-2.4224,-2.3644,-2.359,-2.4196,-2.4871,-2.5622,-2.6456,-2.6974,-2.7522,-2.8075,-2.8633,-2.904,-2.9378,-2.9456,-2.9534,-2.9611,-2.9611,-2.9702,-2.9779,-2.9779,-2.9779,-2.9779,-2.9779,-2.9779,-2.9779,-2.9779,-2.9779,-2.9779,-2.9779,-2.9779,-2.9792,-2.9856,-2.9934,-3.0011,-3.0241,-3.0394,-3.0609,-3.1482,-3.22,-3.2345,-3.2846,-3.3269,-3.3632,-3.4059,-3.4481,-3.4683,-3.5148,-3.5228,-3.5359,-3.5424,-3.5489,-3.5489,-3.5489,-3.5554,-3.5554,-3.5668,-3.5752,-3.5894,-3.6085,-3.6211,-3.6321,-3.6569,-3.6815,-3.7058,-3.7298,-3.746,-3.7578,-3.7844,-3.8033,-3.823,-3.8399,-3.8551,-3.8733,-3.8914,-3.9094,-2.2788,-2.3344,-2.4556,-2.545,-2.6008,-2.6663,-2.7206,-2.7736,-2.7843,-2.8077,-2.8291,-2.8301,-2.8301,-2.8301,-2.8301,-2.8301,-2.8301,-2.8301,-2.8301,-2.8301,-2.8301,-2.8301,-2.8281,-2.8213,-2.8076,-2.7725,-2.7197,-2.6758,-2.6328,-2.5986,-2.5742,-2.5732,-2.5732,-2.5732,-2.5732,-2.5732,-2.5703,-2.5557,-2.4834,-2.4404,-2.4228,-2.3584,-2.3523,-2.4013,-2.454,-2.52,-2.5957,-2.6456,-2.7033,-2.7568,-2.7846,-2.8259,-2.8657,-2.8973,-2.9118,-2.9275,-2.9263,-2.9353,-2.9611,-2.9702,-2.9702,-2.9779,-2.9779,-2.9779,-2.9779,-2.9779,-2.9779,-2.9779,-2.9779,-2.9779,-2.9779,-2.9779,-2.9779,-2.9856,-2.9934,-3.0011,-3.0228,-3.0885,-3.1259,-3.1556,-3.2055,-3.2561,-3.2988,-3.3409,-3.3839,-3.4332,-3.475,-3.5082,-3.5228,-3.5294,-3.5359,-3.5489,-3.5489,-3.5489,-3.5504,-3.5554,-3.5653,-3.5703,-3.5846,-3.5846,-3.591,-3.6037,-3.6274,-3.6523,-3.6754,-3.6876,-3.6997,-3.7194,-3.7417,-3.7637,-3.7812,-3.7854,-3.8157,-3.8472,-3.8583,-2.2085,-2.278,-2.3991,-2.4667,-2.511,-2.6218,-2.6871,-2.7206,-2.7628,-2.8067,-2.8291,-2.8301,-2.8301,-2.8301,-2.8301,-2.8301,-2.8301,-2.8301,-2.8301,-2.8301,-2.8301,-2.8301,-2.8301,-2.8291,-2.8232,-2.8008,-2.7432,-2.6807,-2.6416,-2.5977,-2.5752,-2.5732,-2.5732,-2.5732,-2.5732,-2.5732,-2.5732,-2.5615,-2.4883,-2.4443,-2.4228,-2.3623,-2.3309,-2.3841,-2.4196,-2.47,-2.5285,-2.579,-2.6302,-2.6693,-2.6962,-2.729,-2.7603,-2.8167,-2.8566,-2.8791,-2.887,-2.9028,-2.9209,-2.9443,-2.9431,-2.9509,-2.9689,-2.9779,-2.9779,-2.9779,-2.9779,-2.9779,-2.9779,-2.9779,-2.9779,-2.9779,-2.9779,-2.9779,-2.9856,-2.9856,-2.9934,-3.0241,-3.0609,-3.0836,-3.1408,-3.1909,-3.2345,-3.2775,-3.3269,-3.377,-3.4264,-3.4668,-3.4868,-3.5082,-3.5294,-3.5359,-3.5489,-3.5489,-3.5489,-3.5489,-3.5539,-3.5539,-3.5604,-3.5604,-3.5604,-3.5619,-3.5733,-3.6037,-3.6274,-3.6383,-3.6523,-3.6585,-3.6754,-3.7042,-3.7147,-3.7207,-3.7519,-3.7828,-3.7985,-2.141,-2.1873,-2.2998,-2.3776,-2.4437,-2.5441,-2.6327,-2.698,-2.7422,-2.7853,-2.8184,-2.8301,-2.8301,-2.8301,-2.8301,-2.8301,-2.8301,-2.8301,-2.8301,-2.8301,-2.8301,-2.8301,-2.8301,-2.8301,-2.8301,-2.8057,-2.7451,-2.6934,-2.666,-2.6045,-2.5771,-2.5732,-2.5732,-2.5732,-2.5732,-2.5732,-2.5732,-2.5547,-2.4912,-2.4414,-2.4326,-2.3574,-2.3368,-2.358,-2.3764,-2.4196,-2.4796,-2.5211,-2.5549,-2.5957,-2.6218,-2.6385,-2.6622,-2.7021,-2.7592,-2.8143,-2.8395,-2.8633,-2.8949,-2.9184,-2.9419,-2.9431,-2.9611,-2.9779,-2.9779,-2.9779,-2.9779,-2.9779,-2.9779,-2.9779,-2.9779,-2.9779,-2.9779,-2.9779,-2.9779,-2.9779,-2.9779,-2.9856,-3.0088,-3.033,-3.0761,-3.1272,-3.1703,-3.22,-3.2704,-3.3199,-3.3701,-3.4113,-3.4452,-3.4735,-3.5016,-3.5294,-3.5424,-3.5504,-3.5504,-3.5489,-3.5489,-3.5489,-3.5489,-3.5489,-3.5489,-3.5489,-3.5554,-3.5683,-3.5846,-3.5958,-3.61,-3.6289,-3.6399,-3.6507,-3.6554,-3.6677,-3.6937,-3.7118,-3.7342,-2.073,-2.1089,-2.1987,-2.2885,-2.3656,-2.4659,-2.5661,-2.6663,-2.7098,-2.753,-2.8077,-2.8184,-2.8184,-2.8184,-2.8291,-2.8301,-2.8301,-2.8301,-2.8301,-2.8301,-2.8301,-2.8301,-2.8301,-2.8281,-2.8232,-2.7978,-2.7412,-2.7012,-2.6807,-2.6143,-2.5791,-2.5732,-2.5732,-2.5732,-2.5732,-2.5732,-2.5732,-2.5469,-2.4893,-2.4414,-2.4014,-2.3525,-2.3232,-2.3503,-2.3493,-2.3764,-2.4282,-2.4615,-2.4861,-2.52,-2.5454,-2.5633,-2.5633,-2.5874,-2.6351,-2.7151,-2.7672,-2.8167,-2.8566,-2.9028,-2.9263,-2.9275,-2.9611,-2.9779,-2.9779,-2.9779,-2.9779,-2.9779,-2.9779,-2.9779,-2.9779,-2.9779,-2.9779,-2.9779,-2.9779,-2.9779,-2.9779,-2.9779,-2.9779,-3.0088,-3.0318,-3.0685,-3.1198,-3.1629,-3.2128,-3.2646,-3.3143,-3.3632,-3.3977,-3.4399,-3.4683,-3.5082,-3.5359,-3.5439,-3.5504,-3.5489,-3.5489,-3.5489,-3.5489,-3.5489,-3.5489,-3.5489,-3.5554,-3.5554,-3.5619,-3.5797,-3.5861,-3.5925,-3.6037,-3.6085,-3.607,-3.6196,-3.6445,-3.6631,-3.6799,-2.0046,-2.05,-2.1402,-2.2085,-2.2772,-2.3888,-2.5,-2.5898,-2.6436,-2.6989,-2.7539,-2.7745,-2.796,-2.796,-2.8184,-2.8291,-2.8301,-2.8301,-2.8301,-2.8301,-2.8301,-2.8301,-2.8301,-2.8301,-2.8076,-2.7812,-2.7285,-2.7041,-2.6777,-2.6113,-2.5752,-2.5732,-2.5732,-2.5732,-2.5732,-2.5732,-2.5732,-2.5576,-2.4863,-2.4072,-2.3467,-2.3223,-2.3251,-2.3416,-2.3493,-2.358,-2.3927,-2.4186,-2.4358,-2.4358,-2.4594,-2.4669,-2.4669,-2.4935,-2.52,-2.5779,-2.6528,-2.7522,-2.795,-2.8566,-2.8961,-2.9118,-2.9534,-2.9702,-2.9779,-2.9779,-2.9779,-2.9779,-2.9779,-2.9779,-2.9779,-2.9779,-2.9779,-2.9779,-2.9779,-2.9779,-2.9779,-2.9779,-2.9779,-2.9779,-3.0088,-3.0318,-3.0685,-3.1123,-3.1629,-3.2082,-3.2588,-3.3072,-3.3563,-3.3991,-3.4414,-3.4817,-3.5213,-3.5359,-3.5439,-3.5439,-3.5489,-3.5489,-3.5504,-3.5489,-3.5489,-3.5489,-3.5489,-3.5489,-3.5554,-3.5554,-3.5619,-3.5668,-3.5668,-3.5718,-3.5831,-3.5894,-3.6037,-3.6211,-3.6383,-1.97,-2.004,-2.0838,-2.1517,-2.2328,-2.3336,-2.4454,-2.5348,-2.5898,-2.6554,-2.7098,-2.7314,-2.753,-2.7853,-2.8077,-2.8184,-2.8291,-2.8301,-2.8301,-2.8301,-2.8301,-2.8301,-2.8301,-2.8271,-2.8066,-2.7617,-2.7236,-2.6846,-2.6553,-2.6123,-2.5732,-2.5732,-2.5732,-2.5732,-2.5732,-2.5732,-2.5732,-2.5488,-2.4863,-2.3994,-2.3369,-2.3144,-2.3144,-2.3319,-2.3232,-2.3406,-2.358,-2.3764,-2.3851,-2.3927,-2.409,-2.4079,-2.4176,-2.4358,-2.4615,-2.4871,-2.5695,-2.6539,-2.7301,-2.8007,-2.8566,-2.8961,-2.9287,-2.9611,-2.9702,-2.9779,-2.9779,-2.9779,-2.9779,-2.9779,-2.9779,-2.9779,-2.9779,-2.9779,-2.9779,-2.9779,-2.9779,-2.9779,-2.9779,-2.9779,-2.9779,-3.0088,-3.0318,-3.0609,-3.1048,-3.1495,-3.1936,-3.2345,-3.2988,-3.3701,-3.4128,-3.4616,-3.4949,-3.5228,-3.5359,-3.5439,-3.5489,-3.5489,-3.5504,-3.5504,-3.5489,-3.5489,-3.5489,-3.5489,-3.5489,-3.5489,-3.5489,-3.5489,-3.5554,-3.5604,-3.5604,-3.5668,-3.5797,-3.5816,-3.607,-1.9482,-1.97,-2.0378,-2.1067,-2.1873,-2.2667,-2.368,-2.4676,-2.5119,-2.567,-2.6436,-2.6772,-2.7196,-2.7638,-2.7853,-2.8067,-2.8184,-2.8291,-2.8301,-2.8301,-2.8301,-2.8301,-2.8301,-2.8262,-2.8008,-2.751,-2.7178,-2.6728,-2.626,-2.5918,-2.5732,-2.5732,-2.5732,-2.5732,-2.5732,-2.5703,-2.5644,-2.5205,-2.458,-2.3857,-2.3271,-2.3144,-2.3144,-2.3144,-2.3135,-2.3222,-2.3319,-2.3406,-2.3493,-2.358,-2.357,-2.3657,-2.3667,-2.3851,-2.411,-2.4368,-2.5031,-2.5622,-2.655,-2.736,-2.8087,-2.8645,-2.9106,-2.9509,-2.9779,-2.9779,-2.9779,-2.9779,-2.9779,-2.9779,-2.9779,-2.9779,-2.9779,-2.9779,-2.9779,-2.9779,-2.9779,-2.9779,-2.9779,-2.9779,-2.9779,-2.9869,-3.0088,-3.0164,-3.0457,-3.0911,-3.1272,-3.1703,-3.2417,-3.3269,-3.377,-3.4196,-3.4616,-3.4949,-3.5096,-3.5228,-3.5294,-3.5424,-3.5439,-3.5504,-3.5504,-3.5489,-3.5489,-3.5489,-3.5489,-3.5489,-3.5489,-3.5489,-3.5489,-3.5489,-3.5554,-3.5489,-3.5539,-3.5638,-3.5752,-1.9366,-1.9482,-2.0046,-2.05,-2.0945,-2.1759,-2.2675,-2.3568,-2.3888,-2.4556,-2.5441,-2.6209,-2.6772,-2.7098,-2.753,-2.7853,-2.796,-2.8184,-2.8291,-2.8301,-2.8301,-2.8301,-2.8281,-2.8154,-2.7861,-2.7217,-2.6943,-2.6504,-2.5996,-2.583,-2.5732,-2.5732,-2.5732,-2.5732,-2.5703,-2.5644,-2.5264,-2.4785,-2.417,-2.3701,-2.3281,-2.3144,-2.3144,-2.3144,-2.3144,-2.3135,-2.3135,-2.3135,-2.3222,-2.3232,-2.3232,-2.3232,-2.3319,-2.3503,-2.3677,-2.4024,-2.4368,-2.5041,-2.579,-2.6775,-2.7684,-2.8327,-2.8949,-2.9496,-2.9702,-2.9779,-2.9779,-2.9779,-2.9779,-2.9779,-2.9779,-2.9779,-2.9779,-2.9779,-2.9779,-2.9779,-2.9779,-2.9779,-2.9779,-2.9779,-2.9792,-2.9869,-2.9869,-3.0011,-3.0164,-3.0533,-3.0986,-3.1421,-3.1982,-3.2775,-3.3269,-3.377,-3.4196,-3.4549,-3.4765,-3.4964,-3.5213,-3.5359,-3.5439,-3.5439,-3.5489,-3.5489,-3.5489,-3.5489,-3.5489,-3.5489,-3.5489,-3.5489,-3.5489,-3.5489,-3.5489,-3.5489,-3.5489,-3.5589,-3.5638,-1.9366,-1.9482,-1.9815,-2.0155,-2.0493,-2.1196,-2.1995,-2.2562,-2.3014,-2.3664,-2.4659,-2.5432,-2.6109,-2.6772,-2.7098,-2.753,-2.7853,-2.8174,-2.8291,-2.8301,-2.8301,-2.8301,-2.8232,-2.7978,-2.7588,-2.707,-2.6768,-2.6367,-2.582,-2.5732,-2.5732,-2.5732,-2.5732,-2.5732,-2.5693,-2.5449,-2.4961,-2.4512,-2.4004,-2.3574,-2.3232,-2.3144,-2.3144,-2.3144,-2.3144,-2.3144,-2.3135,-2.3135,-2.3144,-2.3144,-2.3144,-2.3144,-2.3144,-2.3232,-2.3416,-2.3667,-2.411,-2.454,-2.52,-2.6268,-2.7267,-2.8327,-2.9003,-2.9459,-2.9599,-2.9702,-2.9779,-2.9779,-2.9779,-2.9779,-2.9779,-2.9779,-2.9779,-2.9779,-2.9779,-2.9779,-2.9779,-2.9779,-2.9779,-2.9779,-2.9779,-2.9779,-2.9779,-2.9779,-3.0011,-3.0318,-3.0685,-3.1198,-3.1703,-3.22,-3.2704,-3.3269,-3.3701,-3.4142,-3.4414,-3.475,-3.5133,-3.5279,-3.5359,-3.5439,-3.5504,-3.5489,-3.5489,-3.5489,-3.5489,-3.5489,-3.5489,-3.5489,-3.5489,-3.5489,-3.5489,-3.5489,-3.5554,-3.5539,-3.5529,-1.9366,-1.9482,-1.9591,-1.9815,-2.0155,-2.0737,-2.1203,-2.1653,-2.2002,-2.2893,-2.3999,-2.4667,-2.5441,-2.6109,-2.6772,-2.7206,-2.7745,-2.8067,-2.8291,-2.8301,-2.8301,-2.8301,-2.8154,-2.7881,-2.748,-2.7012,-2.6592,-2.6172,-2.5752,-2.5732,-2.5732,-2.5732,-2.5732,-2.5732,-2.5596,-2.5156,-2.4707,-2.4385,-2.3857,-2.3506,-2.3154,-2.3144,-2.3144,-2.3144,-2.3144,-2.3144,-2.3144,-2.3144,-2.3144,-2.3144,-2.3144,-2.3144,-2.3144,-2.3144,-2.3232,-2.3493,-2.3851,-2.4196,-2.4946,-2.6019,-2.7185,-2.8247,-2.8937,-2.9238,-2.9406,-2.9611,-2.9779,-2.9779,-2.9779,-2.9779,-2.9779,-2.9779,-2.9779,-2.9779,-2.9779,-2.9779,-2.9779,-2.9779,-2.9779,-2.9779,-2.9779,-2.9779,-2.9779,-2.9779,-2.9934,-3.0088,-3.0305,-3.0761,-3.1123,-3.1629,-3.2128,-3.2632,-3.3199,-3.3632,-3.4074,-3.4467,-3.4802,-3.5082,-3.5228,-3.5374,-3.5439,-3.5439,-3.5489,-3.5489,-3.5489,-3.5489,-3.5489,-3.5489,-3.5489,-3.5489,-3.5489,-3.5489,-3.5489,-3.5524,-3.5265,-1.9366,-1.9366,-1.9366,-1.9591,-1.9815,-2.0162,-2.05,-2.0838,-2.1203,-2.2002,-2.3127,-2.3999,-2.4659,-2.5441,-2.6436,-2.7098,-2.7539,-2.8077,-2.8301,-2.8301,-2.8301,-2.8301,-2.8086,-2.7773,-2.7305,-2.6982,-2.6514,-2.6064,-2.5742,-2.5732,-2.5732,-2.5732,-2.5732,-2.5732,-2.5654,-2.4873,-2.4453,-2.4307,-2.3613,-2.3262,-2.3164,-2.3144,-2.3144,-2.3144,-2.3144,-2.3144,-2.3144,-2.3144,-2.3144,-2.3144,-2.3144,-2.3144,-2.3144,-2.3144,-2.3232,-2.3416,-2.3493,-2.3927,-2.4529,-2.6185,-2.7267,-2.8099,-2.8712,-2.9106,-2.9353,-2.9611,-2.9779,-2.9779,-2.9779,-2.9779,-2.9779,-2.9779,-2.9779,-2.9779,-2.9779,-2.9779,-2.9779,-2.9779,-2.9779,-2.9779,-2.9779,-2.9779,-2.9779,-2.9779,-2.9934,-2.9998,-3.0075,-3.0305,-3.0685,-3.1136,-3.1556,-3.2055,-3.2632,-3.3129,-3.3632,-3.4128,-3.4467,-3.4802,-3.5082,-3.5228,-3.5374,-3.5439,-3.5424,-3.5489,-3.5489,-3.5489,-3.5489,-3.5489,-3.5489,-3.5489,-3.5489,-3.5489,-3.5489,-3.5355,-3.5085,-1.9366,-1.9366,-1.9366,-1.9482,-1.9591,-1.9815,-2.004,-2.027,-2.0859,-2.1774,-2.2683,-2.3464,-2.4342,-2.5221,-2.6209,-2.6989,-2.7431,-2.797,-2.8301,-2.8301,-2.8271,-2.8086,-2.7851,-2.7451,-2.7021,-2.6592,-2.6182,-2.5947,-2.5732,-2.5732,-2.5732,-2.5732,-2.5732,-2.5732,-2.5498,-2.4922,-2.4424,-2.4258,-2.3652,-2.3144,-2.3144,-2.3144,-2.3144,-2.3144,-2.3144,-2.3144,-2.3144,-2.3144,-2.3144,-2.3144,-2.3144,-2.3144,-2.3144,-2.3144,-2.3144,-2.3319,-2.3406,-2.3927,-2.4775,-2.5935,-2.6857,-2.7592,-2.8327,-2.8816,-2.9131,-2.9431,-2.9611,-2.9792,-2.9792,-2.9792,-2.9779,-2.9779,-2.9779,-2.9779,-2.9779,-2.9779,-2.9779,-2.9779,-2.9779,-2.9779,-2.9779,-2.9779,-2.9779,-2.9779,-2.9856,-2.9934,-3.0011,-3.0075,-3.0305,-3.0685,-3.1061,-3.1482,-3.2055,-3.2561,-3.3129,-3.3632,-3.4128,-3.4467,-3.4735,-3.4949,-3.5096,-3.5294,-3.5374,-3.5439,-3.5424,-3.5489,-3.5489,-3.5489,-3.5489,-3.5489,-3.5489,-3.5489,-3.5489,-3.5175,-3.4711,-1.9366,-1.9366,-1.9366,-1.9366,-1.9482,-1.9591,-1.9822,-2.0046,-2.0622,-2.1432,-2.2343,-2.3135,-2.4016,-2.5008,-2.5999,-2.6772,-2.7431,-2.7862,-2.8291,-2.8271,-2.8115,-2.792,-2.7588,-2.709,-2.6719,-2.6309,-2.5986,-2.5732,-2.5732,-2.5732,-2.5732,-2.5732,-2.5723,-2.5605,-2.5322,-2.4805,-2.4316,-2.4053,-2.3486,-2.3144,-2.3144,-2.3144,-2.3144,-2.3144,-2.3144,-2.3144,-2.3144,-2.3144,-2.3144,-2.3144,-2.3144,-2.3144,-2.3144,-2.3144,-2.3144,-2.3135,-2.3493,-2.3927,-2.4605,-2.5454,-2.6279,-2.7021,-2.7926,-2.8498,-2.8895,-2.9197,-2.9431,-2.9611,-2.9714,-2.9792,-2.9779,-2.9779,-2.9779,-2.9779,-2.9779,-2.9779,-2.9779,-2.9779,-2.9779,-2.9779,-2.9779,-2.9779,-2.9779,-2.9779,-2.9779,-2.9869,-2.9946,-2.9934,-2.9998,-3.0305,-3.0622,-3.1048,-3.1482,-3.2055,-3.2618,-3.3199,-3.3632,-3.4128,-3.4399,-3.4616,-3.4949,-3.5096,-3.5228,-3.5374,-3.5439,-3.5504,-3.5489,-3.5489,-3.5489,-3.5489,-3.5489,-3.5489,-3.5489,-3.5011,-3.4412,-1.9366,-1.9366,-1.9366,-1.9366,-1.9366,-1.9482,-1.9707,-2.027,-2.0277,-2.0967,-2.2108,-2.2788,-2.368,-2.4787,-2.5679,-2.6554,-2.7206,-2.7745,-2.7912,-2.8028,-2.7795,-2.7695,-2.7314,-2.6807,-2.6455,-2.623,-2.5977,-2.5732,-2.5732,-2.5732,-2.5732,-2.5703,-2.5635,-2.54,-2.5,-2.457,-2.417,-2.3828,-2.3447,-2.3174,-2.3144,-2.3144,-2.3144,-2.3144,-2.3144,-2.3144,-2.3144,-2.3144,-2.3144,-2.3144,-2.3144,-2.3144,-2.3144,-2.3144,-2.3144,-2.3232,-2.3493,-2.3851,-2.4282,-2.5031,-2.5706,-2.6445,-2.7429,-2.8018,-2.8578,-2.904,-2.9353,-2.9521,-2.9624,-2.9702,-2.9779,-2.9779,-2.9779,-2.9779,-2.9779,-2.9779,-2.9779,-2.9779,-2.9779,-2.9779,-2.9779,-2.9779,-2.9779,-2.9779,-2.9779,-2.9779,-2.9869,-2.9856,-2.9934,-3.0011,-3.0318,-3.0622,-3.1123,-3.1542,-3.2114,-3.2632,-3.3129,-3.3563,-3.3991,-3.4264,-3.4549,-3.4883,-3.503,-3.5228,-3.5374,-3.5439,-3.5504,-3.5489,-3.5489,-3.5474,-3.5385,-3.5205,-3.5115,-3.4651,-3.4083,-1.9366,-1.9366,-1.9366,-1.9366,-1.9366,-1.9366,-1.9713,-2.027,-2.027,-2.096,-2.2116,-2.257,-2.3352,-2.459,-2.5467,-2.6118,-2.6772,-2.7276,-2.7399,-2.7429,-2.7313,-2.704,-2.6764,-2.6494,-2.6201,-2.5986,-2.581,-2.5732,-2.5732,-2.5732,-2.5732,-2.5713,-2.5459,-2.5078,-2.4648,-2.4189,-2.3965,-2.3701,-2.332,-2.3193,-2.3144,-2.3144,-2.3144,-2.3144,-2.3144,-2.3144,-2.3144,-2.3144,-2.3144,-2.3144,-2.3144,-2.3144,-2.3144,-2.3144,-2.3135,-2.3135,-2.3406,-2.3677,-2.4013,-2.4444,-2.5126,-2.5779,-2.6599,-2.751,-2.8247,-2.8816,-2.9209,-2.9365,-2.9611,-2.9779,-2.9779,-2.9779,-2.9779,-2.9779,-2.9779,-2.9779,-2.9779,-2.9779,-2.9779,-2.9779,-2.9779,-2.9779,-2.9779,-2.9779,-2.9779,-2.9779,-2.9779,-2.9779,-2.9779,-2.9856,-3.0011,-3.0394,-3.0609,-3.111,-3.1556,-3.2069,-3.2489,-3.2917,-3.3353,-3.3785,-3.4128,-3.4467,-3.4817,-3.5096,-3.5294,-3.5424,-3.5489,-3.5489,-3.5489,-3.5265,-3.5145,-3.4921,-3.4651,-3.4113,-3.3649,-1.9366,-1.9366,-1.9366,-1.9366,-1.9366,-1.9366,-1.9707,-2.0046,-2.0277,-2.0967,-2.1888,-2.2456,-2.3135,-2.4024,-2.4906,-2.567,-2.6209,-2.6559,-2.6802,-2.6854,-2.6787,-2.657,-2.6274,-2.6201,-2.5986,-2.5791,-2.5732,-2.5732,-2.5732,-2.5732,-2.5732,-2.5693,-2.5293,-2.4844,-2.4443,-2.4062,-2.373,-2.3506,-2.3291,-2.3174,-2.3144,-2.3144,-2.3144,-2.3144,-2.3144,-2.3144,-2.3144,-2.3144,-2.3144,-2.3144,-2.3144,-2.3144,-2.3144,-2.3144,-2.3144,-2.3135,-2.3319,-2.359,-2.3764,-2.4282,-2.47,-2.5285,-2.5935,-2.6775,-2.7684,-2.8419,-2.8882,-2.9287,-2.9534,-2.9779,-2.9779,-2.9779,-2.9779,-2.9779,-2.9779,-2.9779,-2.9779,-2.9779,-2.9779,-2.9779,-2.9779,-2.9779,-2.9779,-2.9779,-2.9779,-2.9779,-2.9779,-2.9779,-2.9779,-2.9779,-2.9934,-3.0152,-3.0394,-3.0609,-3.1061,-3.1495,-3.185,-3.2345,-3.2789,-3.3213,-3.3632,-3.4128,-3.4534,-3.4949,-3.5279,-3.5359,-3.5424,-3.5474,-3.5429,-3.5145,-3.4711,-3.4322,-3.3903,-3.3365,-3.2946,-1.9366,-1.9366,-1.9366,-1.9366,-1.9366,-1.9366,-1.9591,-1.9815,-2.0155,-2.0737,-2.1668,-2.2237,-2.2675,-2.3456,-2.4231,-2.4846,-2.5392,-2.573,-2.6,-2.6281,-2.6049,-2.5915,-2.5904,-2.5761,-2.5732,-2.5762,-2.5732,-2.5732,-2.5732,-2.5723,-2.5703,-2.5674,-2.5195,-2.4717,-2.4268,-2.3848,-2.3516,-2.3291,-2.3203,-2.3144,-2.3144,-2.3144,-2.3144,-2.3144,-2.3144,-2.3144,-2.3144,-2.3144,-2.3144,-2.3144,-2.3144,-2.3144,-2.3144,-2.3144,-2.3144,-2.3144,-2.3319,-2.3416,-2.359,-2.4024,-2.4444,-2.5031,-2.5611,-2.6279,-2.7103,-2.8087,-2.8645,-2.9118,-2.9365,-2.9702,-2.9779,-2.9779,-2.9779,-2.9779,-2.9779,-2.9779,-2.9779,-2.9779,-2.9779,-2.9779,-2.9779,-2.9779,-2.9779,-2.9779,-2.9779,-2.9779,-2.9779,-2.9779,-2.9779,-2.9779,-2.9856,-2.9998,-3.0152,-3.0394,-3.0609,-3.0973,-3.1272,-3.1703,-3.2214,-3.2632,-3.3058,-3.3618,-3.4332,-3.4668,-3.5016,-3.5228,-3.5359,-3.521,-3.5006,-3.4726,-3.4262,-3.3694,-3.3185,-3.2706,-3.2392,-1.9366,-1.9366,-1.9366,-1.9366,-1.9366,-1.9366,-1.9597,-1.9815,-1.9931,-2.0399,-2.1211,-2.1554,-2.2002,-2.2788,-2.3416,-2.3978,-2.4275,-2.4701,-2.5029,-2.514,-2.5172,-2.5348,-2.5564,-2.5625,-2.5635,-2.5732,-2.5732,-2.5732,-2.5723,-2.5693,-2.5518,-2.5225,-2.4805,-2.4375,-2.4014,-2.3584,-2.3271,-2.3144,-2.3144,-2.3144,-2.3144,-2.3144,-2.3144,-2.3144,-2.3144,-2.3144,-2.3144,-2.3144,-2.3144,-2.3144,-2.3144,-2.3144,-2.3144,-2.3144,-2.3144,-2.3135,-2.3222,-2.3319,-2.3503,-2.3764,-2.4013,-2.4529,-2.5115,-2.5695,-2.6528,-2.7672,-2.8407,-2.8803,-2.9197,-2.9443,-2.9689,-2.9702,-2.9779,-2.9779,-2.9779,-2.9779,-2.9779,-2.9779,-2.9779,-2.9779,-2.9779,-2.9779,-2.9779,-2.9779,-2.9779,-2.9779,-2.9779,-2.9779,-2.9779,-2.9779,-2.9779,-2.9934,-3.0011,-3.0241,-3.0381,-3.0533,-3.0823,-3.1123,-3.1629,-3.2055,-3.2489,-3.3199,-3.3908,-3.4332,-3.4683,-3.4765,-3.4756,-3.4619,-3.4401,-3.4125,-3.3724,-3.305,-3.2677,-3.2213,-3.1958,-1.9366,-1.9366,-1.9366,-1.9366,-1.9366,-1.9366,-1.9475,-1.9584,-1.9591,-1.9938,-2.063,-2.0852,-2.1303,-2.182,-2.2294,-2.2696,-2.3051,-2.3409,-2.3738,-2.4003,-2.4326,-2.4644,-2.4899,-2.5342,-2.5538,-2.5635,-2.5732,-2.5723,-2.5684,-2.5469,-2.5225,-2.4951,-2.4502,-2.4033,-2.3721,-2.3389,-2.3144,-2.3144,-2.3144,-2.3144,-2.3144,-2.3144,-2.3144,-2.3144,-2.3144,-2.3144,-2.3144,-2.3144,-2.3144,-2.3144,-2.3144,-2.3144,-2.3144,-2.3144,-2.3144,-2.3144,-2.3144,-2.3144,-2.3319,-2.3493,-2.3667,-2.4186,-2.4615,-2.52,-2.5863,-2.6846,-2.7753,-2.8155,-2.8803,-2.9209,-2.9365,-2.9443,-2.9521,-2.9586,-2.9689,-2.9779,-2.9779,-2.9779,-2.9779,-2.9779,-2.9779,-2.9779,-2.9779,-2.9779,-2.9779,-2.9779,-2.9779,-2.9779,-2.9779,-2.9779,-2.9779,-2.9779,-2.9934,-2.9934,-3.0011,-3.0241,-3.0457,-3.0761,-3.1048,-3.1629,-3.2273,-3.2846,-3.3409,-3.3739,-3.4004,-3.4053,-3.4032,-3.3873,-3.3547,-3.3196,-3.284,-3.2393,-3.2079,-3.1854,-3.1719,-1.9366,-1.9366,-1.9366,-1.9366,-1.9366,-1.9366,-1.9366,-1.9359,-1.9319,-1.9408,-1.9713,-2.013,-2.0387,-2.0779,-2.1137,-2.1456,-2.1768,-2.2233,-2.2545,-2.2929,-2.3406,-2.3909,-2.4467,-2.4932,-2.5235,-2.5538,-2.5635,-2.5548,-2.5557,-2.5312,-2.5049,-2.4805,-2.4316,-2.376,-2.3603,-2.3389,-2.3144,-2.3144,-2.3144,-2.3144,-2.3144,-2.3144,-2.3144,-2.3144,-2.3144,-2.3144,-2.3144,-2.3144,-2.3144,-2.3144,-2.3144,-2.3144,-2.3144,-2.3144,-2.3144,-2.3144,-2.3144,-2.3144,-2.3144,-2.3319,-2.3493,-2.3841,-2.4196,-2.47,-2.5369,-2.603,-2.6857,-2.751,-2.8143,-2.8791,-2.8949,-2.9197,-2.9263,-2.9419,-2.9599,-2.9779,-2.9779,-2.9779,-2.9779,-2.9779,-2.9779,-2.9779,-2.9779,-2.9779,-2.9779,-2.9779,-2.9779,-2.9779,-2.9779,-2.9779,-2.9779,-2.9779,-2.9856,-2.9869,-2.9869,-2.9946,-3.0164,-3.0305,-3.0672,-3.1334,-3.1942,-3.2212,-3.2541,-3.3071,-3.3243,-3.3044,-3.3028,-3.2937,-3.2647,-3.2344,-3.2109,-3.1886,-3.184,-3.1659,-3.1599,-1.9366,-1.9366,-1.9366,-1.9366,-1.9359,-1.9359,-1.9366,-1.9325,-1.9098,-1.9005,-1.9065,-1.8996,-1.92,-1.9984,-2.0125,-2.0361,-2.0703,-2.102,-2.153,-2.202,-2.2679,-2.3247,-2.3926,-2.4529,-2.4932,-2.5235,-2.5392,-2.5324,-2.5246,-2.5117,-2.4687,-2.4111,-2.4023,-2.3613,-2.3281,-2.3144,-2.3144,-2.3144,-2.3144,-2.3144,-2.3144,-2.3144,-2.3144,-2.3144,-2.3144,-2.3144,-2.3144,-2.3144,-2.3144,-2.3144,-2.3144,-2.3144,-2.3144,-2.3144,-2.3144,-2.3144,-2.3144,-2.3144,-2.3144,-2.3232,-2.3406,-2.358,-2.4024,-2.4282,-2.4871,-2.5285,-2.603,-2.6599,-2.7244,-2.8143,-2.8462,-2.8791,-2.8949,-2.9353,-2.9611,-2.9702,-2.9779,-2.9779,-2.9779,-2.9779,-2.9779,-2.9779,-2.9779,-2.9779,-2.9779,-2.9779,-2.9779,-2.9779,-2.9779,-2.9779,-2.9779,-2.9779,-2.9779,-2.9779,-2.9792,-2.9792,-2.9946,-3.0088,-3.0279,-3.0807,-3.1169,-3.1227,-3.1619,-3.2069,-3.2036,-3.1787,-3.1803,-3.2009,-3.2003,-3.1808,-3.1634,-3.1455,-3.1482,-3.1467,-3.1467]}]]